[[{"header":{"parameterUnit":"m.s-1","parameterCategory":1,"la1":30.6,"la2":29.2853,"lo1":-89.7004,"lo2":-87.6739,"dy":0.0162,"dx":0.0183,"nx":112,"ny":82,"refTime":"2024-09-17T12:00:00:Z","depth":0,"parameterNumber":2,"parameterNumberName":"U-component_of_WINDS"},"data":[0.0,0.0,0.0,0.0,0.0,0.0,0.0,0.0,0.0,0.0,0.0,0.0,0.0,0.0,0.0,0.0,0.0,0.0,0.0,0.0,0.0,0.0,0.0,0.0,0.0,0.0,0.0,0.0,0.0,0.0,0.0,0.0,0.0,0.0,0.0,0.0,0.0,0.0,0.0,0.0,0.0,0.0,0.0,0.0,0.0,0.0,0.0,0.0,0.0,0.0,0.0,0.0,0.0,0.0,0.0,0.0,0.0,0.0,0.0,0.0,0.0,0.0,0.0,0.0,0.0,0.0,0.0,0.0,0.0,0.0,0.0,0.0,0.0,0.0,0.0,0.0,0.0,0.0,0.0,0.0,0.0,0.0,0.0,0.0,0.0,0.0,0.0,0.0,0.0,0.0,0.8437,1.0405,1.1136,1.0985,0.9694,0.8765,0.7525,0.5811,0.0,0.0,0.0,0.0,0.0,0.0,0.0,0.0,0.0,0.0,0.0,0.0,0.0,0.0,0.0,0.0,0.0,0.0,0.0,0.0,0.0,0.0,0.0,0.0,0.0,0.0,0.0,0.0,0.0,0.0,0.0,0.0,0.0,0.0,0.0,0.0,0.0,0.0,0.0,0.0,0.0,0.0,0.0,0.0,0.0,0.0,0.0,0.0,0.0,0.0,0.0,0.0,0.0,0.0,0.0,0.0,0.0,0.0,0.0,0.0,0.0,0.0,0.0,0.0,0.0,0.0,0.0,0.0,0.0,0.0,0.0,0.0,0.0,0.0,0.0,0.0,0.0,0.0,0.0,0.0,0.0,0.0,0.0,0.0,0.0,0.0,0.0,0.0,0.0,0.0,0.0,0.0,0.0,0.0,0.0,0.0,0.0,0.0,0.0,0.0,0.0,0.0,0.0,0.0,0.8752,1.167,1.2554,1.2329,1.0949,0.9724,0.8093,0.5828,0.0,0.0,0.0,0.0,0.0,0.0,0.0,0.0,0.0,0.0,0.0,0.0,0.0,0.0,0.0,0.0,0.0,0.0,0.0,0.0,0.0,0.0,0.0,0.0,0.0,0.0,0.0,0.0,0.0,0.0,0.0,0.0,0.0,0.0,0.0,0.0,0.0,0.0,0.0,0.0,0.0,0.0,0.0,0.0,0.0,0.0,0.0,0.0,0.0,0.0,0.0,0.0,0.0,0.0,0.0,0.0,0.0,0.0,0.0,0.0,0.0,0.0,0.0,0.0,0.0,0.0,0.0,0.0,0.0,0.0,0.0,0.0,0.0,0.0,0.0,0.0,0.0,0.0,0.0,0.0,0.0,0.0,0.0,0.0,0.0,0.0,0.0,0.0,0.0,0.0,0.0,0.0,0.0,0.0,0.0,0.0,0.0,0.0,0.0,0.0,0.0,0.0,0.0,0.9354,1.038,1.2367,1.272,1.2385,1.1296,0.9816,0.8139,0.6318,0.4801,0.0,0.0,0.0,0.0,0.0,0.0,0.0,0.0,0.0,0.0,0.0,0.0,0.0,0.0,0.0,0.0,0.0,0.0,0.0,0.0,0.0,0.0,0.0,0.0,0.0,0.0,0.0,0.0,0.0,0.0,0.0,0.0,0.0,0.0,0.0,0.0,0.0,0.0,0.0,0.0,0.0,0.0,0.0,0.0,0.0,0.0,0.0,0.0,0.0,0.0,0.0,0.0,0.0,0.0,0.0,0.0,0.0,0.0,0.0,0.0,0.0,0.0,0.0,0.0,0.0,0.0,0.0,0.0,0.0,0.0,0.0,0.0,0.0,0.0,0.0,0.0,0.0,0.0,0.0,0.0,0.0,0.0,0.0,0.0,0.0,0.0,0.0,0.0,0.0,0.0,0.0,0.0,0.0,0.0,0.0,0.0,0.0,0.0,0.0,0.0,0.0,0.0,1.1152,1.187,1.273,1.274,1.2279,1.1273,0.9664,0.8122,0.6721,0.4996,0.0,0.0,0.0,0.0,0.0,0.0,0.0,0.0,0.0,0.0,0.0,0.0,0.0,0.0,0.0,0.0,0.0,0.0,0.0,0.0,0.0,0.0,0.0,0.0,0.0,0.0,0.0,0.0,0.0,0.0,0.0,0.0,0.0,0.0,0.0,0.0,0.0,0.0,0.0,0.0,0.0,0.0,0.0,0.0,0.0,0.0,0.0,0.0,0.0,0.0,0.0,0.0,0.0,0.0,0.0,0.0,0.0,0.0,0.0,0.0,0.0,0.0,0.0,0.0,0.0,0.0,0.0,0.0,0.0,0.0,0.0,0.0,0.0,0.0,0.0,0.0,0.0,0.0,0.0,0.0,0.0,0.0,0.0,0.0,0.0,0.0,0.0,0.0,0.0,0.0,0.0,0.0,0.0,0.0,0.0,0.0,0.0,0.0,0.0,0.0,0.0,0.0,1.1582,1.2472,1.284,1.3099,1.2595,1.0964,0.9591,0.8187,0.6793,0.5066,0.0,0.0,0.0,0.0,0.0,0.0,0.0,0.0,0.0,0.0,0.0,0.0,0.0,0.0,0.0,0.0,0.0,0.0,0.0,0.0,0.0,0.0,0.0,0.0,0.0,0.0,0.0,0.0,0.0,0.0,0.0,0.0,0.0,0.0,0.0,0.0,0.0,0.0,0.0,0.0,0.0,0.0,0.0,0.0,0.0,0.0,0.0,0.0,0.0,0.0,0.0,0.0,0.0,0.0,0.0,0.0,0.0,0.0,0.0,0.0,0.0,0.0,0.0,0.0,0.0,0.0,0.0,0.0,0.0,0.0,0.0,0.0,0.0,0.0,0.0,0.0,0.0,0.0,0.0,0.0,0.0,0.0,0.0,0.0,0.0,0.0,0.0,0.0,0.0,0.0,0.0,0.0,0.0,0.0,0.0,0.0,0.0,0.0,0.0,0.0,0.0,0.0,1.1658,1.2154,1.2643,1.2388,1.1793,1.0835,0.8853,0.755,0.7221,0.0,0.0,0.0,0.0,0.0,0.0,0.0,0.0,0.0,0.0,0.0,0.0,0.0,0.0,0.0,0.0,0.0,0.0,0.0,0.0,0.0,0.0,0.0,0.0,0.0,0.0,0.0,0.0,0.0,0.0,0.0,0.0,0.0,0.0,0.0,0.0,0.0,0.0,0.0,0.0,0.0,0.0,0.0,0.0,0.0,0.0,0.0,0.0,0.0,0.0,0.0,0.0,0.0,0.0,0.0,0.0,0.0,0.0,0.0,0.0,0.0,0.0,0.0,0.0,0.0,0.0,0.0,0.0,0.0,0.0,0.0,0.0,0.0,0.0,0.0,0.0,0.0,0.0,0.0,0.0,0.0,0.0,0.0,0.0,0.0,0.0,0.0,0.0,0.0,0.0,0.0,0.0,0.0,0.0,0.0,0.0,0.0,0.0,0.0,0.0,0.0,0.0,1.1419,1.1544,1.1637,1.2335,1.1733,1.0968,1.0192,0.8226,0.7055,0.7152,0.0,0.0,0.0,0.0,0.0,0.0,0.0,0.0,0.0,0.0,0.0,0.0,0.0,0.0,0.0,0.0,0.0,0.0,0.0,0.0,0.0,0.0,0.0,0.0,0.0,0.0,0.0,0.0,0.0,0.0,0.0,0.0,0.0,0.0,0.0,0.0,0.0,0.0,0.0,0.0,0.0,0.0,0.0,0.0,0.0,0.0,0.0,0.0,0.0,0.0,0.0,0.0,0.0,0.0,0.0,0.0,0.0,0.0,0.0,0.0,0.0,0.0,0.0,0.0,0.0,0.0,0.0,0.0,0.0,0.0,0.0,0.0,0.0,0.0,0.0,0.0,0.0,0.0,0.0,0.0,0.0,0.0,0.0,0.0,0.0,0.0,0.0,0.0,0.0,0.0,0.0,0.0,0.0,0.0,0.0,0.0,0.0,0.0,0.0,0.0,0.0,0.0,1.158,1.1245,1.1027,1.1886,1.1285,1.0292,0.902,0.7802,0.691,0.0,0.0,0.0,0.0,0.0,0.0,0.0,0.0,0.0,0.0,0.0,0.0,0.0,0.0,0.0,0.0,0.0,0.0,0.0,0.0,0.0,0.0,0.0,0.0,0.0,0.0,0.0,0.0,0.0,0.0,0.0,0.0,0.0,0.0,0.0,0.0,0.0,0.0,0.0,0.0,0.0,0.0,0.0,0.0,0.0,0.0,0.0,0.0,0.0,0.0,0.0,0.0,0.0,0.0,0.0,0.0,0.0,0.0,0.0,0.0,0.0,0.0,0.0,0.0,0.0,0.0,0.0,0.0,0.0,0.0,0.0,0.0,0.0,0.0,0.0,0.0,0.0,0.0,0.0,0.0,0.0,0.0,0.0,0.0,0.0,0.0,0.0,0.0,0.0,0.0,0.0,0.0,0.0,0.0,0.0,0.0,0.0,0.0,0.0,0.0,0.0,0.0,0.0,1.1457,1.1252,1.1059,1.1658,1.1248,1.0365,0.8869,0.7493,0.6725,0.6826,0.0,0.0,0.0,0.0,0.0,0.0,0.0,0.0,0.0,0.0,0.0,0.0,0.0,0.0,0.0,0.0,0.0,0.0,0.0,0.0,0.0,0.0,0.0,0.0,0.0,0.0,0.0,0.0,0.0,0.0,0.0,0.0,0.0,0.0,0.0,0.0,0.0,0.0,0.0,0.0,0.0,0.0,0.0,0.0,0.0,0.0,0.0,0.0,0.0,0.0,0.0,0.0,0.0,0.0,0.0,0.0,0.0,0.0,0.0,0.0,0.0,0.0,0.0,0.0,0.0,0.0,0.0,0.0,0.0,0.0,0.0,0.0,0.0,0.0,0.0,0.0,0.0,0.0,0.0,0.0,0.0,0.0,0.0,0.0,0.0,0.0,0.0,0.0,0.0,0.0,0.0,0.0,0.0,0.0,0.0,0.0,0.0,0.0,0.0,0.0,0.0,0.0,1.1465,1.1115,1.0878,1.1642,1.1017,0.9995,0.8623,0.7179,0.6367,0.6387,0.0,0.0,0.0,0.0,0.0,0.0,0.0,0.0,0.0,0.0,0.0,0.0,0.0,0.0,0.0,0.0,0.0,0.0,0.0,0.0,0.0,0.0,0.0,0.0,0.0,0.0,0.0,0.0,0.0,0.0,0.0,0.0,0.0,0.0,0.0,0.0,0.0,0.0,0.0,0.0,0.0,0.0,0.0,0.0,0.0,0.0,0.0,0.0,0.0,0.0,0.0,0.0,0.0,0.0,0.0,0.0,0.0,0.0,0.0,0.0,0.0,0.0,0.0,0.0,0.0,0.0,0.0,0.0,0.0,0.0,0.0,0.0,0.0,0.0,0.0,0.0,0.0,0.0,0.0,0.0,0.0,0.0,0.0,0.0,0.0,0.0,0.0,0.0,0.0,0.0,0.0,0.0,0.0,0.0,0.0,0.0,0.0,0.0,0.0,0.0,0.0,0.0,1.1482,1.0837,1.053,1.1717,1.0666,0.9442,0.8291,0.6947,0.5959,0.555,0.0,0.0,0.0,0.0,0.0,0.0,0.0,0.0,0.0,0.0,0.0,0.0,0.0,0.0,0.0,0.0,0.0,0.0,0.0,0.0,0.0,0.0,0.0,0.0,0.0,0.0,0.0,0.0,0.0,0.0,0.0,0.0,0.0,0.0,0.0,0.0,0.0,0.0,0.0,0.0,0.0,0.0,0.0,0.0,0.0,0.0,0.0,0.0,0.0,0.0,0.0,0.0,0.0,0.0,0.0,0.0,0.0,0.0,0.0,0.0,0.8088,0.7284,0.0,0.0,0.0,0.0,0.0,0.0,0.0,0.0,0.0,0.0,0.0,0.0,0.0,0.0,0.0,0.0,0.0,0.0,0.0,0.0,0.0,0.0,0.0,0.0,0.0,0.0,0.0,0.0,0.0,0.0,0.0,0.0,0.0,0.0,0.0,0.0,0.0,0.0,0.0,0.0,1.0912,1.0487,1.0308,1.1241,1.039,0.9348,0.8374,0.7168,0.6284,0.5776,0.4431,0.0,0.0,0.0,0.0,0.0,0.0,0.0,0.0,0.0,0.0,0.0,0.0,0.0,0.0,0.0,0.0,0.0,0.0,0.0,0.0,0.0,0.0,0.0,0.0,0.0,0.0,0.0,0.0,0.0,0.0,0.0,0.0,0.0,0.0,0.0,0.0,0.0,0.0,0.0,0.0,0.0,0.0,0.0,0.0,0.0,0.0,0.0,0.0,0.0,0.0,0.0,0.0,0.0,0.0,0.0,0.0,0.0,0.0,0.0,1.0436,0.9548,0.0,0.0,0.0,0.0,0.0,0.0,0.0,0.0,0.0,0.0,0.0,0.0,0.0,0.0,0.0,0.0,0.0,0.0,0.0,0.0,0.0,0.0,0.0,0.0,0.0,0.0,0.0,0.0,0.0,0.0,0.0,0.0,0.0,0.0,0.0,0.0,0.0,0.0,0.0,0.0,1.0754,1.0831,1.0785,1.1125,1.0281,0.9387,0.8563,0.7511,0.6559,0.5751,0.4721,0.0,0.0,0.0,0.0,0.0,0.0,0.0,0.0,0.0,0.0,0.0,0.0,0.0,0.0,0.0,0.0,0.0,0.0,0.0,0.0,0.0,0.0,0.0,0.0,0.0,0.0,0.0,0.0,0.0,0.0,0.0,0.0,0.0,0.0,0.0,0.0,0.0,0.0,0.0,0.0,0.0,0.0,0.0,0.0,0.0,0.0,0.0,0.0,0.0,0.0,0.0,0.0,0.0,1.3766,1.3925,1.5254,1.4602,1.4687,1.5232,1.3245,1.2509,1.2591,1.1004,0.0,0.0,0.0,0.0,0.0,0.0,0.0,0.0,0.0,0.0,0.0,0.0,0.0,0.0,0.0,0.0,0.0,0.0,0.0,0.0,0.0,0.0,1.1711,1.2829,1.3964,1.4018,1.1223,0.0,0.0,0.0,0.0,0.0,0.0,0.0,0.0,0.0,0.0,0.0,1.0739,1.1258,1.1391,1.1064,1.022,0.9425,0.8773,0.7848,0.6857,0.583,0.5166,0.456,0.0,0.0,0.0,0.0,0.0,0.0,0.0,0.0,0.0,0.0,0.0,0.0,0.0,0.0,0.0,0.0,0.0,0.0,0.0,0.0,0.0,0.0,0.0,0.0,0.0,0.0,0.0,0.0,0.0,0.0,0.0,0.0,0.5881,0.674,0.0,0.0,0.0,0.0,0.0,0.0,0.0,0.0,0.0,0.0,0.0,0.0,0.0,1.2249,1.3617,1.4659,1.5338,1.5673,1.645,1.6922,1.7151,1.714,1.7125,1.7051,1.6564,0.0,1.3513,1.3096,0.0,0.0,0.0,0.0,0.0,0.0,0.0,0.0,0.0,0.0,0.0,0.0,0.0,0.0,0.0,0.0,0.0,0.0,0.0,0.0,0.0,0.0,1.5163,1.5062,1.5687,1.5996,1.487,1.2991,1.1239,1.0328,0.9176,0.8242,0.0,0.0,0.0,0.0,0.0,0.0,1.0534,1.114,1.1304,1.0819,1.0122,0.9451,0.8844,0.8083,0.7272,0.6421,0.6242,0.59,0.5356,0.5362,0.0,0.0,0.0,0.0,0.0,0.0,0.0,0.0,0.0,0.0,0.0,0.0,0.0,0.0,0.0,0.0,0.0,0.0,0.0,0.0,0.0,0.0,0.0,0.0,0.0,0.0,0.0,0.0,0.0,0.6044,0.6919,0.699,0.7457,0.74,0.0,0.0,0.0,0.0,0.0,0.0,0.0,0.0,0.0,1.3419,1.3569,1.4167,1.5429,1.6057,1.6502,1.6817,1.7594,1.8076,1.8291,1.8458,1.8422,1.8239,1.8158,1.7264,1.5814,1.4702,1.3561,1.2454,0.0,0.0,0.0,0.0,1.1123,1.1173,1.2225,1.238,1.2018,1.1689,0.0,0.0,0.0,0.0,0.0,0.0,0.0,1.1154,1.2269,1.3773,1.5157,1.5816,1.6641,1.7046,1.6203,1.5478,1.4413,1.2403,1.1912,1.119,0.9179,0.9121,0.0,0.0,0.0,1.1438,1.1801,1.2138,1.2037,1.1242,1.0417,0.9673,0.9074,0.8523,0.7837,0.6997,0.6764,0.6484,0.6059,0.6066,0.5922,0.0,0.0,0.0,0.0,0.0,0.0,0.0,0.0,0.0,0.0,0.0,0.0,0.0,0.0,0.0,0.0,0.0,0.0,0.0,0.0,0.0,0.0,0.0,0.0,0.0,0.0,0.0,0.0,0.6571,0.7451,0.7248,0.8099,0.8303,0.0,0.0,0.0,0.0,0.0,0.0,1.1481,1.1612,1.2706,1.5036,1.5245,1.5765,1.6727,1.7075,1.7361,1.763,1.8161,1.8486,1.8645,1.8833,1.8817,1.8627,1.8431,1.7984,1.7239,1.606,1.5221,1.4623,1.3697,1.3315,1.3289,1.3577,1.332,1.2958,1.4183,1.4027,1.3236,1.2979,1.2741,1.2329,1.1162,0.0,0.0,0.0,0.0,1.2005,1.3073,1.4021,1.4995,1.6141,1.6925,1.721,1.6636,1.6897,1.6532,1.4197,1.427,1.39,1.1423,1.1535,0.0,1.1042,1.2282,1.3263,1.3229,1.3295,1.2953,1.1863,1.0965,1.0172,0.9486,0.8917,0.8316,0.7649,0.737,0.7127,0.6868,0.6968,0.681,0.631,0.0,0.0,0.0,0.0,0.0,0.0,0.0,0.0,0.0,0.0,0.0,0.0,0.0,0.0,0.0,0.0,0.0,0.0,0.0,0.0,0.0,0.0,0.0,0.0,0.0,0.0,0.0,0.0,0.0,0.7763,0.8517,0.0,0.0,0.0,0.0,0.9548,1.0857,1.206,1.2858,1.304,1.3881,1.5603,1.6156,1.6812,1.7642,1.8153,1.8171,1.7693,1.837,1.8428,1.7957,1.8084,1.8083,1.7916,1.721,1.6824,1.6686,1.7176,1.6098,1.4116,1.388,1.3617,1.3341,1.3,1.3498,1.4372,1.4186,1.4091,1.4168,1.4829,1.4473,1.3569,1.2309,1.1631,0.0,0.0,1.2458,1.3267,1.434,1.5161,1.5841,1.6355,1.6339,1.6255,1.6546,1.6518,1.6272,1.5609,1.536,1.5263,1.528,0.0,1.4444,1.4774,1.4856,1.4753,1.4363,1.432,1.3837,1.2582,1.1764,1.0975,1.013,0.9164,0.8551,0.8441,0.8248,0.8121,0.8119,0.8367,0.8139,0.7426,0.7123,0.0,0.0,0.0,0.0,0.0,0.0,0.0,0.0,0.0,0.0,0.0,0.0,0.0,0.0,0.0,0.0,0.0,0.0,0.0,0.0,0.0,0.0,0.0,0.0,0.0,0.0,0.0,0.0,0.7446,0.8607,0.0,0.7935,0.861,0.9231,0.9442,0.997,1.0834,1.2115,1.2715,1.3491,1.458,1.5289,1.5796,1.6082,1.6454,1.6454,1.6082,1.6646,1.6629,1.6176,1.6621,1.6719,1.6568,1.6489,1.6459,1.6365,1.5789,1.5557,1.5511,1.5439,1.5218,1.4924,1.4784,1.4626,1.4499,1.44,1.4125,1.3799,1.3708,1.3281,1.2711,1.2272,1.2456,1.288,1.3065,1.3279,1.3574,1.3953,1.4114,1.4314,1.477,1.5067,1.5359,1.5747,1.6271,1.658,1.6357,1.6348,1.6211,1.5639,1.6007,1.6249,1.5917,1.5966,1.598,1.5831,1.4752,1.377,1.3145,1.2182,1.127,1.042,0.9585,0.8974,0.8656,0.8089,0.7766,0.7809,0.7669,0.744,0.7178,0.7022,0.667,0.0,0.0,0.0,0.0,0.0,0.0,0.0,0.0,0.0,0.0,0.0,0.0,0.0,0.0,0.0,0.0,0.0,0.0,0.0,0.0,0.0,0.0,0.0,0.0,0.0,0.5538,0.6215,0.5976,0.746,0.8197,0.7439,0.8079,0.8856,0.9655,0.9911,1.0478,1.1515,1.2063,1.2571,1.3071,1.3763,1.4114,1.4114,1.4483,1.4483,1.4114,1.4631,1.4602,1.4145,1.4541,1.4615,1.4477,1.458,1.4594,1.449,1.3749,1.3901,1.4624,1.4789,1.4773,1.4621,1.4365,1.4024,1.3669,1.3794,1.3789,1.3637,1.324,1.2936,1.2683,1.2539,1.3055,1.3676,1.3529,1.3596,1.3709,1.3709,1.3596,1.357,1.3885,1.4201,1.454,1.5047,1.559,1.6084,1.661,1.7079,1.7266,1.6841,1.7476,1.7971,1.7749,1.7332,1.705,1.7042,1.537,1.405,1.3686,1.2729,1.1708,1.0682,1.0026,0.9412,0.8778,0.8106,0.7809,0.8001,0.7674,0.7416,0.7342,0.6915,0.6686,0.663,0.0,0.0,0.0,0.0,0.0,0.0,0.0,0.0,0.0,0.0,0.0,0.0,0.0,0.0,0.0,0.0,0.0,0.0,0.0,0.0,0.0,0.0,0.0,0.2379,0.3161,0.3592,0.3533,0.511,0.6292,0.6391,0.8144,0.9542,1.0148,1.0784,1.1125,1.1114,1.1151,1.1198,1.1198,1.1698,1.193,1.193,1.2461,1.2461,1.193,1.2461,1.2428,1.1895,1.193,1.1849,1.1664,1.1375,1.1151,1.103,1.1114,1.1198,1.1297,1.178,1.214,1.227,1.1525,1.1578,1.1999,1.2317,1.2936,1.3589,1.3589,1.3602,1.3522,1.3144,1.334,1.3602,1.3191,1.3374,1.3682,1.3682,1.3769,1.3868,1.3868,1.3735,1.3815,1.4511,1.4447,1.4755,1.6333,1.7412,1.832,1.916,1.9292,1.9549,2.0286,1.8974,0.0,1.7808,1.6146,1.4752,1.4181,1.339,1.2391,1.0991,1.0487,0.9826,0.885,0.8401,0.833,0.8742,0.8496,0.824,0.8,0.6923,0.6552,0.6921,0.0,0.0,0.0,0.0,0.0,0.0,0.0,0.0,0.0,0.0,0.0,0.0,0.0,0.0,0.0,0.0,0.0,0.0,0.0,0.0,0.0,-0.1625,-0.0963,0.1593,0.2904,0.3658,0.3788,0.4385,0.4752,0.4609,0.5832,0.6909,0.7499,0.7546,0.7362,0.6963,0.8054,0.87,0.87,0.9982,1.0634,1.0559,1.0777,1.0777,1.0559,1.0814,1.0477,0.9715,1.0598,1.0247,0.9009,0.9816,0.9807,0.9141,0.8415,0.9044,1.0504,1.1228,1.1358,1.1157,1.0936,1.0776,1.0729,1.0808,1.0989,1.1174,1.1174,1.137,1.1575,1.1465,1.2165,1.2938,1.2822,1.2938,1.3135,1.3135,1.301,1.2941,1.3135,1.3421,1.3669,1.357,1.3794,1.4318,1.5407,1.5201,1.5807,1.8804,1.929,1.8982,1.8032,1.7899,1.7282,1.5575,1.4775,1.4406,1.4592,1.4137,1.3395,1.2254,1.1585,1.0505,0.8889,0.7733,0.7292,0.7703,0.7545,0.7538,0.7705,0.8077,0.7955,0.0,0.0,0.0,0.0,0.0,0.0,0.0,0.0,0.0,0.0,0.0,0.0,0.0,0.0,0.0,0.0,0.0,0.0,0.0,0.0,0.0,0.0,-0.2987,-0.2749,-0.0361,0.0644,0.1278,0.1766,0.2285,0.2577,0.2572,0.2968,0.367,0.4719,0.5196,0.5206,0.4728,0.6198,0.6926,0.6719,0.8292,0.8748,0.7939,0.8254,0.8206,0.7883,0.8012,0.7754,0.7195,0.787,0.7639,0.6658,0.7372,0.7397,0.6895,0.6375,0.686,0.8006,0.0,0.0,0.0,0.0,0.9243,0.9594,0.9283,0.9596,1.0214,1.0214,1.0416,1.0616,1.0387,1.1058,1.1852,1.1623,1.178,1.2008,1.2008,1.2283,1.2472,1.2152,1.2718,1.3132,1.2575,1.2731,1.3451,1.5133,1.4936,0.0,1.8975,1.8871,1.8014,1.7044,1.692,1.6319,1.4615,1.3751,1.3611,1.4388,1.4011,1.3304,1.2254,1.1715,0.0,0.0,0.0,0.7505,0.772,0.7764,0.0,0.0,0.0,0.0,0.0,0.0,0.0,0.0,0.8817,0.9011,0.0,0.0,0.0,0.0,0.0,0.0,0.0,0.0,0.0,0.0,0.0,0.0,0.0,0.0,0.0,0.0,-0.3765,-0.4306,-0.2885,-0.2639,-0.2293,-0.1424,-0.0313,0.0401,0.044,0.0176,0.057,0.1906,0.3231,0.3857,0.3576,0.4803,0.0,0.0,0.0,0.6335,0.4799,0.5399,0.5351,0.4574,0.4708,0.4665,0.444,0.4526,0.444,0.4223,0.4353,0.431,0.418,0.4405,0.4539,0.4756,0.5888,0.6797,0.7363,0.6622,0.7266,0.8407,0.7669,0.0,0.0,0.9635,0.9925,1.0147,0.9603,1.0089,1.0695,1.0186,1.0417,1.0847,1.0847,1.1645,1.2212,1.1291,1.1843,1.2365,1.1653,1.1635,1.2567,1.5112,1.5589,1.6412,1.9045,1.8297,1.7148,1.6589,1.599,1.5211,1.4131,1.2929,1.2643,1.394,1.3501,0.0,1.1628,1.1339,1.0734,0.9569,0.8935,0.8573,0.8518,0.8926,0.9111,0.9033,0.8978,0.9459,1.0502,1.0225,1.0637,1.1616,1.0412,1.067,0.0,0.0,0.0,0.0,0.0,0.0,0.0,0.0,0.0,0.0,0.0,0.0,0.0,0.0,0.0,-0.5509,-0.5583,-0.5273,-0.4573,-0.4543,-0.4077,-0.2726,-0.0983,-0.0223,-0.0937,-0.0401,-0.0089,-0.031,0.0399,0.1066,0.1551,0.1672,0.1533,0.1049,0.2567,0.3218,0.2827,0.3983,0.3893,0.2651,0.2651,0.0,0.1703,0.2255,0.1743,0.0575,0.1098,0.0967,0.0398,0.0575,0.1589,0.3215,0.4756,0.5545,0.5754,0.5583,0.5749,0.5993,0.5817,0.5981,0.6265,0.6265,0.7285,0.8543,0.8423,0.9596,0.0,1.0826,1.0891,1.1041,1.1041,1.1217,1.1428,1.1458,1.1665,1.1617,1.093,1.1985,1.3359,1.4304,1.4717,1.5365,1.682,1.8339,1.8141,1.461,1.496,1.4608,1.1838,1.1675,1.2503,1.4283,1.3788,1.3116,1.2503,1.1832,1.1005,1.0046,0.9927,0.9881,0.9757,1.0754,1.1012,1.0417,1.0862,1.1088,1.1057,1.1207,1.1716,1.2533,1.1864,1.1536,0.0,0.0,0.0,0.0,0.0,0.0,0.0,0.0,0.0,0.0,0.0,-0.562,-0.5532,0.0,-0.586,-0.62,-0.6487,-0.6275,-0.499,-0.5168,-0.486,-0.335,-0.2142,-0.165,-0.2105,-0.1746,-0.1743,-0.2487,-0.1774,-0.1326,-0.1447,-0.0307,0.0044,-0.057,-0.0395,0.0175,0.1053,0.1361,0.1273,0.0834,0.0834,0.0659,0.0264,0.0614,0.0308,-0.0445,-0.0133,-0.0222,-0.0534,-0.0445,0.0266,0.1371,0.2161,0.3611,0.5298,0.5285,0.514,0.4833,0.4271,0.4621,0.5283,0.5283,0.5891,0.6562,0.6444,0.7113,0.7935,0.7774,0.8366,0.9002,0.9002,0.9925,1.0774,1.0406,1.1422,1.2272,1.1425,1.272,1.4067,1.4143,1.4288,1.4501,1.4847,1.5879,1.552,1.2141,1.2156,1.2043,1.0682,1.0481,1.1333,1.3703,1.3411,1.297,1.2719,1.1926,1.1075,1.0157,1.0487,1.0618,1.0468,1.1353,1.1644,1.1219,1.1496,1.1784,1.2066,1.2005,1.2424,1.3253,1.2807,1.2587,0.0,0.0,0.0,0.0,0.0,0.0,0.0,-0.5213,-0.5499,-0.6348,-0.6553,-0.6618,-0.67,-0.6914,-0.6862,-0.6215,-0.6867,-0.6852,-0.5173,-0.5433,-0.5333,-0.4045,-0.3385,-0.3025,-0.3052,-0.3081,-0.3407,-0.4136,-0.3541,-0.3477,-0.4285,-0.2225,-0.1357,-0.2107,-0.2934,-0.2674,-0.1195,-0.1641,-0.1685,-0.1373,-0.1507,-0.1507,-0.1373,-0.1417,-0.1417,-0.1417,-0.1461,-0.1461,-0.1373,-0.1373,-0.1196,-0.0885,-0.0975,0.101,0.3916,0.4192,0.3997,0.3517,0.2646,0.3171,0.4306,0.4444,0.4517,0.4504,0.4164,0.4453,0.4867,0.4624,0.5466,0.6389,0.6389,0.8086,0.9667,0.9163,1.1116,1.2993,1.2538,1.3585,1.4492,1.416,1.4029,1.3695,1.2864,1.2712,1.2048,1.0124,0.964,0.963,1.0054,0.957,1.0202,1.2891,1.2743,1.2413,1.2258,1.1686,1.1,1.0331,1.0904,1.1228,1.1131,1.169,1.1982,1.1914,1.1914,1.2272,1.2961,1.262,1.2814,1.3467,1.3151,1.3207,-0.6199,-0.6651,-0.6661,-0.5877,-0.6413,-0.7446,0.0,-0.8413,-0.8313,-0.9519,-0.9192,-0.8555,-0.8228,-0.7843,-0.7438,-0.6962,-0.6658,-0.6374,-0.6161,-0.5961,-0.5821,-0.5567,-0.4339,-0.351,-0.3503,-0.3677,-0.398,-0.4487,-0.4757,-0.5203,-0.582,-0.511,-0.4976,-0.5545,-0.5211,-0.4933,-0.4746,-0.4353,-0.4396,-0.4933,-0.541,-0.541,-0.4933,-0.4976,-0.4976,-0.4933,-0.4981,-0.4976,-0.4933,-0.4933,-0.4574,-0.3999,-0.3865,-0.2808,-0.1101,0.0133,0.0533,0.0488,0.0356,0.0444,0.071,0.1287,0.2029,0.2582,0.1966,0.3218,0.4905,0.4867,0.4721,0.458,0.458,0.5711,0.7287,0.8895,1.0696,1.2484,1.4063,1.4268,1.4154,1.4114,1.3764,1.2781,1.0668,1.0295,1.0113,0.9609,0.952,0.9595,0.9827,0.9483,1.0136,1.2519,1.2079,1.1367,1.0715,1.0836,1.0935,1.0909,1.157,1.2047,1.2201,1.2586,1.2861,1.3023,1.3023,1.3082,1.3166,1.2775,1.2613,1.2708,1.2389,1.2579,-0.7661,-0.7769,-0.7546,-0.7842,-0.811,-0.8418,-0.8779,-0.8831,-0.905,-0.9836,-0.9763,-0.9394,-0.8859,-0.8492,-0.8094,-0.7509,-0.7321,-0.7105,-0.6761,-0.6617,-0.6404,-0.5985,-0.5477,-0.4919,-0.4248,-0.4095,-0.4244,-0.486,-0.5308,-0.5879,-0.6581,-0.6246,-0.6112,-0.6313,-0.5679,-0.5283,-0.5283,-0.5148,-0.5191,-0.5374,-0.5701,-0.5936,-0.6085,-0.6127,-0.6295,-0.654,-0.654,-0.6427,-0.6241,-0.6193,-0.597,-0.5699,-0.5572,-0.5142,-0.432,-0.2075,-0.0712,-0.0045,-0.0223,-0.0045,0.0267,0.0579,0.0755,0.0886,0.0975,0.1367,0.1846,0.2115,0.2452,0.2824,0.287,0.2863,0.3899,0.8299,0.9654,1.0736,1.3716,1.5083,1.492,1.2193,1.1376,1.0404,0.8035,0.7531,0.7368,0.7079,0.7841,0.8574,0.9037,0.9499,1.0338,1.1839,1.1799,1.1505,1.1067,1.1292,1.1378,1.1314,1.1968,1.2365,1.2413,1.2685,1.2826,1.2861,1.265,1.2544,1.2544,1.2401,1.2318,1.233,1.2186,1.2258,-0.8416,-0.8498,-0.8469,-0.9384,-0.9639,-0.9531,-0.9072,-0.9329,-0.9742,-0.9966,-1.0106,-0.9932,-0.9217,-0.8967,-0.8643,-0.7878,-0.7836,-0.7746,-0.728,-0.712,-0.6895,-0.6525,-0.6422,-0.6168,-0.5497,-0.4988,-0.5079,-0.5908,-0.6186,-0.67,-0.7516,-0.7175,-0.7001,-0.7043,-0.6548,-0.6162,-0.5973,-0.6536,-0.6613,-0.6283,-0.6655,-0.7038,-0.7521,-0.7521,-0.7724,-0.8094,-0.8046,-0.7908,-0.7736,-0.7532,-0.7409,-0.7327,-0.7141,-0.6851,-0.6337,-0.4203,-0.2644,-0.1507,-0.1381,-0.1068,-0.071,-0.0843,-0.0889,-0.0847,-0.0712,-0.0668,-0.067,-0.0313,-0.0084,0.0078,0.0155,-0.0643,-0.0136,0.5264,0.6588,0.78,1.2064,1.3546,1.318,1.033,0.9101,0.7977,0.6198,0.5809,0.5674,0.5707,0.6919,0.8011,0.8456,0.9624,1.0626,1.1207,1.1404,1.1442,1.1282,1.1479,1.1564,1.1485,1.2004,1.2258,1.2186,1.2473,1.2579,1.2461,1.221,1.2113,1.2113,1.1993,1.1884,1.1774,1.1664,1.1542,-0.7952,-0.8573,-0.9437,-0.9798,-1.0724,-1.1341,-1.0599,-1.0797,-1.1025,-1.0629,-1.0572,-1.0302,-0.9439,-0.9279,-0.8958,-0.8036,-0.7912,-0.7829,-0.7712,-0.7401,-0.7313,-0.7619,-0.7071,-0.6933,-0.7534,-0.6784,-0.6778,-0.8113,-0.7833,-0.8013,-0.8895,-0.8431,-0.8226,-0.8332,-0.8561,-0.8358,-0.7628,-0.9248,-0.9633,-0.8795,-0.9672,-1.0089,-1.0079,-1.0079,-1.0089,-1.0128,-1.0128,-1.0089,-1.0051,-0.9681,-0.9455,-0.9257,-0.882,-0.7975,-0.7065,-0.6857,-0.6193,-0.5229,-0.3946,-0.3473,-0.3565,-0.402,-0.3473,-0.2791,-0.376,-0.2876,-0.1554,-0.1375,-0.2681,-0.4127,-0.4101,-0.4961,-0.4931,-0.1419,0.0693,0.3439,0.9027,0.8417,0.7362,0.9164,0.7656,0.6044,0.5761,0.5723,0.5927,0.6573,0.774,0.8496,0.8238,0.975,1.084,1.0753,1.0687,1.0649,1.0715,1.0954,1.1201,1.1384,1.1686,1.1763,1.1653,1.2018,1.2174,1.2113,1.2113,1.2113,1.2113,1.17,1.133,1.0916,1.0544,1.0108,-0.9478,-1.0131,-1.06,-1.1214,-1.1711,-1.1943,-1.148,-1.1469,-1.1479,-1.1002,-1.0378,-0.976,-0.9309,-0.8823,-0.8367,-0.789,-0.7924,-0.8028,-0.8193,-0.7814,-0.7676,-0.8111,-0.7958,-0.8023,-0.8537,-0.7485,-0.7037,-0.7721,-0.7867,-0.8383,-0.955,-0.8931,-0.9307,-1.1002,-0.9842,-0.9491,-1.0079,-1.0153,-1.006,-0.9779,-1.093,-1.1562,-1.1739,-1.2082,-1.2212,-1.2112,-1.1894,-1.1822,-1.1855,-1.171,-1.1662,-1.163,-1.1368,-1.0685,-0.9764,-0.9372,-0.8624,-0.7563,-0.5386,-0.466,-0.4626,-0.4434,-0.4128,-0.3811,-0.3719,-0.4132,-0.459,-0.4322,-0.5666,-0.7128,-0.7042,-0.7841,-0.7337,-0.208,-0.089,0.0359,0.5153,0.5543,0.4836,0.441,0.4303,0.4231,0.4192,0.4783,0.5782,0.7445,0.8359,0.9107,0.9769,1.0157,1.039,1.0495,1.0572,1.0697,1.0954,1.1088,1.1185,1.1271,1.1266,1.1356,1.1579,1.1431,1.1431,1.17,1.1463,1.1287,1.1287,1.0812,1.0495,1.0351,0.9873,0.9597,-1.0908,-1.1391,-1.1688,-1.2524,-1.266,-1.2484,-1.2138,-1.192,-1.1619,-1.1015,-1.0256,-0.957,-0.9138,-0.8639,-0.8205,-0.7893,-0.7976,-0.8166,-0.8456,-0.8201,-0.816,-0.8578,-0.8618,-0.8773,-0.9128,-0.8334,-0.8008,-0.8415,-0.8912,-0.9573,-1.0523,-1.0341,-1.094,-1.2553,-1.1467,-1.1141,-1.1691,-1.1693,-1.1664,-1.1552,-1.2396,-1.2874,-1.3043,-1.3397,-1.3495,-1.3413,-1.3178,-1.3121,-1.3159,-1.3009,-1.2959,-1.2927,-1.2689,-1.2225,-1.1628,-1.1287,-1.0784,-0.9878,-0.7263,-0.6355,-0.6336,-0.6371,-0.6374,-0.6344,-0.6206,-0.6785,-0.7363,-0.6729,-0.7749,-0.8926,-0.8474,-0.9428,-0.93,-0.4512,-0.3905,-0.3188,0.1243,0.2164,0.2084,0.1891,0.268,0.3437,0.3487,0.4596,0.6021,0.7691,0.8367,0.9156,1.0524,1.0186,0.9952,1.0312,1.038,1.0534,1.1002,1.0975,1.0899,1.0899,1.0791,1.0771,1.0885,1.0733,1.0791,1.1067,1.0659,1.0515,1.0679,1.0157,0.9834,0.9637,0.927,0.907,-1.2072,-1.2379,-1.2732,-1.3598,-1.3459,-1.3022,-1.2603,-1.2126,-1.157,-1.068,-1.0214,-0.9757,-0.8907,-0.8689,-0.8483,-0.7994,-0.8092,-0.8318,-0.8553,-0.8561,-0.8643,-0.8975,-0.9016,-0.9182,-0.9548,-0.9499,-0.9656,-1.0226,-1.0937,-1.1491,-1.1945,-1.2558,-1.2981,-1.3181,-1.338,-1.3168,-1.2541,-1.3759,-1.4225,-1.4001,-1.3983,-1.3989,-1.3999,-1.3989,-1.3991,-1.3998,-1.3989,-1.3991,-1.3979,-1.3598,-1.3373,-1.3231,-1.2839,-1.263,-1.2568,-1.2518,-1.2474,-1.2072,-0.9489,-0.8595,-0.8744,-0.9666,-0.997,-1.0122,-1.0884,-1.0546,-0.9681,-0.8534,-0.9042,-0.9716,-0.8764,-0.9872,-1.0688,-0.8548,-0.7984,-0.6787,-0.2416,-0.1568,-0.0959,0.1448,0.2685,0.3396,0.3723,0.5148,0.6518,0.7321,0.7762,0.8649,1.0399,0.9825,0.9478,1.0157,0.9972,1.0079,1.0764,1.0534,1.0341,1.038,1.0234,0.9992,0.9619,0.9953,1.0196,1.0273,0.9825,0.9825,1.0244,0.9785,0.9262,0.874,0.874,0.8415,-1.316,-1.3654,-1.396,-1.39,-1.3769,-1.3454,-1.2615,-1.2153,-1.1581,-1.051,-0.9509,-0.8687,-0.8224,-0.8127,-0.8112,-0.8115,-0.8629,-0.9173,-0.9558,-0.9177,-0.9007,-0.939,-0.943,-0.9817,-1.0759,-1.113,-1.1689,-1.2566,-1.1908,-1.229,-1.4238,-1.3419,-1.3744,-1.5627,-1.4118,-1.3648,-1.4402,-1.3957,-1.3814,-1.3998,-1.3802,-1.3806,-1.3992,-1.3791,-1.3809,-1.4008,-1.3739,-1.3796,-1.407,-1.3961,-1.4123,-1.4358,-1.4013,-1.3735,-1.3443,-1.2647,-1.206,-1.1626,-1.1219,-1.1059,-1.0997,-1.09,-1.087,-1.0759,-1.0114,-1.0607,-1.1167,-1.0161,-1.0703,-1.156,-1.1395,-1.0238,-0.8944,-0.837,-0.6684,-0.4744,-0.3081,-0.2515,-0.1943,-0.0755,0.0973,0.2693,0.426,0.4879,0.5475,0.6265,0.6687,0.7563,0.935,0.8981,0.8691,0.8996,0.8844,0.8956,0.964,0.9521,0.9531,0.9776,0.9469,0.939,0.9579,0.939,0.9478,0.9785,0.9658,0.9628,0.9716,0.9199,0.8618,0.8031,0.7634,0.7433,-1.3942,-1.4421,-1.4627,-1.4246,-1.4019,-1.3546,-1.2403,-1.1789,-1.1074,-0.9699,-0.87,-0.7936,-0.7617,-0.7572,-0.773,-0.8146,-0.8686,-0.9281,-0.9933,-0.9625,-0.9496,-0.9873,-0.9864,-1.0253,-1.1395,-1.1725,-1.2523,-1.4131,-1.3599,-1.3741,-1.4971,-1.4707,-1.5116,-1.6391,-1.5213,-1.4751,-1.5185,-1.444,-1.4085,-1.4128,-1.3976,-1.3986,-1.4122,-1.3987,-1.3989,-1.4114,-1.3931,-1.3979,-1.4176,-1.4176,-1.4337,-1.4556,-1.4365,-1.4209,-1.4015,-1.3441,-1.3024,-1.2736,-1.29,-1.2951,-1.2851,-1.2466,-1.2213,-1.1951,-1.134,-1.1574,-1.1821,-1.0851,-1.082,-1.0893,-1.0131,-0.849,-0.6868,-0.6144,-0.4683,-0.3271,-0.2536,-0.2001,-0.1331,-0.0044,0.1375,0.2838,0.4439,0.4709,0.5005,0.5802,0.6027,0.6628,0.7957,0.8047,0.8121,0.8513,0.8236,0.8317,0.9036,0.8924,0.8901,0.911,0.8886,0.8854,0.9079,0.8846,0.8935,0.9319,0.9119,0.8958,0.891,0.839,0.7814,0.7217,0.6937,0.681,-1.4533,-1.4783,-1.4907,-1.4564,-1.4168,-1.346,-1.2079,-1.1295,-1.0392,-0.8673,-0.7882,-0.7386,-0.7008,-0.7083,-0.7412,-0.8075,-0.8639,-0.9227,-1.0051,-1.0049,-1.0049,-1.0361,-1.0371,-1.0795,-1.1925,-1.2144,-1.3091,-1.5245,-1.5503,-1.5427,-1.5075,-1.6004,-1.6367,-1.605,-1.605,-1.5781,-1.5211,-1.4833,-1.4487,-1.4189,-1.4092,-1.4059,-1.4059,-1.4013,-1.4013,-1.4013,-1.4013,-1.4013,-1.4013,-1.4013,-1.4013,-1.4013,-1.398,-1.4013,-1.4019,-1.396,-1.3992,-1.4044,-1.3822,-1.3743,-1.3789,-1.3736,-1.3511,-1.3205,-1.3019,-1.2513,-1.1802,-1.075,-0.9877,-0.8875,-0.7183,-0.5987,-0.4837,-0.3318,-0.2615,-0.2043,-0.1297,-0.0759,0.0089,0.1905,0.2625,0.3296,0.4308,0.453,0.4787,0.5465,0.5572,0.5793,0.6495,0.7049,0.7592,0.8154,0.7799,0.7792,0.8504,0.8415,0.8357,0.8439,0.8414,0.8414,0.8414,0.8414,0.8537,0.8814,0.8332,0.8077,0.7972,0.7489,0.6992,0.6392,0.6392,0.6343,-1.5104,-1.5088,-1.4907,-1.4501,-1.4246,-1.3616,-1.185,-1.1082,-1.0205,-0.8299,-0.7402,-0.6784,-0.6282,-0.664,-0.7275,-0.8058,-0.9036,-1.0014,-1.0866,-1.084,-1.0725,-1.0802,-1.1308,-1.2121,-1.3263,-1.4217,-1.5235,-1.6343,-1.6466,-1.6443,-1.638,-1.6203,-1.5839,-1.524,-1.4954,-1.4769,-1.4645,-1.4084,-1.3769,-1.3715,-1.3069,-1.272,-1.272,-1.2567,-1.2496,-1.2496,-1.2496,-1.2496,-1.2496,-1.2496,-1.2496,-1.2483,-1.2283,-1.239,-1.254,-1.178,-1.1888,-1.2307,-1.1498,-1.1435,-1.19,-1.3023,-1.3393,-1.3146,-1.1631,-1.112,-1.0835,-0.9524,-0.8326,-0.7286,-0.6623,-0.5423,-0.4033,-0.2926,-0.182,-0.0846,-0.0358,0.0313,0.1028,0.1873,0.245,0.2984,0.3649,0.4092,0.4316,0.4224,0.453,0.4923,0.5356,0.613,0.6732,0.6852,0.6696,0.6781,0.7196,0.7454,0.7704,0.7995,0.825,0.8414,0.8414,0.8414,0.8201,0.7773,0.769,0.7356,0.681,0.6689,0.6386,0.583,0.583,0.5825,-1.5118,-1.5074,-1.4951,-1.4672,-1.4263,-1.3388,-1.1378,-1.0508,-0.9549,-0.7539,-0.6777,-0.6416,-0.6151,-0.6335,-0.6758,-0.7517,-0.8178,-0.9044,-1.0297,-1.0421,-1.072,-1.1673,-1.2029,-1.277,-1.4198,-1.4781,-1.5483,-1.6422,-1.6227,-1.6074,-1.6074,-1.555,-1.5015,-1.4599,-1.4264,-1.4019,-1.3875,-1.3433,-1.3173,-1.3151,-1.2615,-1.2294,-1.2138,-1.1909,-1.1752,-1.1583,-1.1667,-1.1667,-1.1704,-1.1993,-1.197,-1.1754,-1.1909,-1.1766,-1.1469,-1.1058,-1.1132,-1.1333,-1.054,-1.0608,-1.1014,-1.1105,-1.1472,-1.1698,-1.0623,-0.9761,-0.8998,-0.8131,-0.7016,-0.5956,-0.5343,-0.4085,-0.2739,-0.1818,-0.0667,0.0313,0.0671,0.0985,0.1432,0.2055,0.2544,0.2987,0.3344,0.3788,0.4056,0.3928,0.4232,0.4535,0.4714,0.5313,0.5922,0.6404,0.641,0.6453,0.6623,0.6956,0.716,0.7154,0.7489,0.7655,0.7655,0.7565,0.744,0.7231,0.7063,0.6683,0.6136,0.6087,0.583,0.5323,0.5323,0.5323,-1.497,-1.4982,-1.4921,-1.4763,-1.4179,-1.3075,-1.1024,-1.0047,-0.9009,-0.6966,-0.6376,-0.6218,-0.6129,-0.607,-0.6244,-0.6916,-0.7347,-0.8219,-0.9927,-1.0333,-1.1056,-1.2675,-1.2908,-1.3444,-1.4708,-1.4963,-1.5347,-1.6099,-1.5608,-1.5315,-1.5359,-1.4707,-1.4296,-1.4141,-1.3756,-1.3433,-1.3263,-1.2896,-1.2662,-1.252,-1.2258,-1.1957,-1.1616,-1.1431,-1.1185,-1.0939,-1.1052,-1.11,-1.1137,-1.1531,-1.1383,-1.096,-1.1345,-1.0977,-1.0262,-1.0309,-1.0414,-1.0414,-0.9857,-1.0031,-1.0311,-0.9266,-0.9531,-1.0099,-0.9473,-0.8448,-0.7383,-0.6813,-0.5925,-0.4938,-0.4208,-0.3008,-0.1769,-0.0756,0.0313,0.1119,0.1389,0.1433,0.1567,0.1967,0.241,0.281,0.299,0.3391,0.3748,0.384,0.406,0.428,0.4364,0.4666,0.5183,0.6019,0.619,0.6233,0.6233,0.6617,0.6738,0.6526,0.6774,0.6937,0.6937,0.6768,0.6725,0.6725,0.6477,0.6093,0.562,0.5572,0.5366,0.499,0.499,0.5009,-1.4886,-1.4904,-1.4763,-1.4578,-1.3981,-1.2943,-1.11,-1.0117,-0.9043,-0.7099,-0.6522,-0.6278,-0.5893,-0.5826,-0.6037,-0.6645,-0.762,-0.9023,-1.1047,-1.1862,-1.2623,-1.358,-1.4318,-1.4728,-1.4644,-1.5337,-1.5768,-1.568,-1.5015,-1.4672,-1.4856,-1.4232,-1.3894,-1.4019,-1.3331,-1.3012,-1.3129,-1.272,-1.2354,-1.1982,-1.1516,-1.1105,-1.0725,-1.0505,-1.039,-1.0351,-1.039,-1.039,-1.039,-1.0428,-1.004,-0.9408,-0.9518,-0.9102,-0.8456,-0.8504,-0.8852,-0.9195,-0.878,-0.8973,-0.9315,-0.8602,-0.8933,-0.9301,-0.7728,-0.7224,-0.6926,-0.593,-0.5034,-0.4291,-0.3843,-0.3108,-0.2008,-0.0313,0.0537,0.103,0.1478,0.1569,0.1523,0.1253,0.1609,0.2008,0.2324,0.2768,0.3214,0.3578,0.367,0.3843,0.4276,0.436,0.4578,0.5053,0.5524,0.5782,0.5782,0.6221,0.652,0.652,0.6641,0.6725,0.6725,0.6725,0.6471,0.5916,0.5879,0.5626,0.5072,0.5072,0.5029,0.499,0.499,0.5084,-1.4429,-1.4681,-1.4763,-1.4655,-1.372,-1.2439,-1.0868,-0.9813,-0.8704,-0.7039,-0.6672,-0.6557,-0.6284,-0.6122,-0.6109,-0.6357,-0.6744,-0.7531,-0.9063,-0.9992,-1.1205,-1.3081,-1.381,-1.4413,-1.5086,-1.5274,-1.5226,-1.489,-1.4749,-1.4624,-1.4525,-1.4046,-1.3648,-1.3297,-1.3,-1.2756,-1.2544,-1.2389,-1.2102,-1.1653,-1.1367,-1.0878,-1.0273,-1.0088,-0.9932,-0.9804,-0.9607,-0.9576,-0.9646,-0.9667,-0.939,-0.8926,-0.9182,-0.8812,-0.8103,-0.8103,-0.8136,-0.808,-0.769,-0.7765,-0.7949,-0.7384,-0.7502,-0.766,-0.6981,-0.6512,-0.5998,-0.5029,-0.4033,-0.3161,-0.3025,-0.2095,-0.0894,0.0536,0.094,0.1074,0.1344,0.1344,0.1254,0.1032,0.1344,0.17,0.1744,0.241,0.299,0.317,0.3398,0.3667,0.384,0.3884,0.3928,0.4008,0.4787,0.5265,0.5173,0.5346,0.5394,0.5183,0.5399,0.5572,0.5572,0.562,0.5626,0.5496,0.5366,0.5111,0.4631,0.4898,0.4898,0.4635,0.47,0.4787,-1.361,-1.4184,-1.4532,-1.4198,-1.3173,-1.1885,-1.0512,-0.9386,-0.827,-0.6997,-0.674,-0.6689,-0.6512,-0.6302,-0.6165,-0.6147,-0.6282,-0.6888,-0.8259,-0.9228,-1.0637,-1.2935,-1.3572,-1.4186,-1.5074,-1.5019,-1.478,-1.4397,-1.4525,-1.4447,-1.4092,-1.3795,-1.3459,-1.3012,-1.2685,-1.2401,-1.209,-1.1982,-1.17,-1.1217,-1.1105,-1.0687,-1.0049,-0.9774,-0.9646,-0.9607,-0.9136,-0.9016,-0.9208,-0.9142,-0.8861,-0.8513,-0.8812,-0.8407,-0.769,-0.7773,-0.7607,-0.7231,-0.6901,-0.6852,-0.6839,-0.6252,-0.6167,-0.6155,-0.57,-0.5401,-0.4976,-0.4077,-0.3117,-0.2368,-0.2192,-0.1386,-0.0358,0.0716,0.0941,0.0986,0.1166,0.1121,0.0987,0.0854,0.1122,0.1345,0.1389,0.1966,0.2499,0.2632,0.2948,0.3217,0.3353,0.3353,0.3353,0.3398,0.4049,0.4478,0.4517,0.4609,0.457,0.4316,0.4451,0.4539,0.4539,0.4631,0.4718,0.4893,0.4762,0.4543,0.4232,0.4543,0.4529,0.4312,0.4429,0.4447,-1.2388,-1.3313,-1.3899,-1.3039,-1.221,-1.1263,-0.9993,-0.8813,-0.7775,-0.6958,-0.6689,-0.6564,-0.6436,-0.6236,-0.6086,-0.6009,-0.6613,-0.7768,-0.9702,-1.0674,-1.1803,-1.349,-1.4116,-1.4365,-1.4311,-1.461,-1.4651,-1.4332,-1.4235,-1.3993,-1.3514,-1.3399,-1.3353,-1.348,-1.2413,-1.1847,-1.1909,-1.1431,-1.0992,-1.0621,-1.0621,-1.04,-0.998,-0.9527,-0.9567,-0.9941,-0.9088,-0.8918,-0.9279,-0.8878,-0.8431,-0.8021,-0.8021,-0.7572,-0.6956,-0.7293,-0.7112,-0.6683,-0.6537,-0.641,-0.6161,-0.5379,-0.512,-0.4904,-0.3635,-0.3679,-0.3989,-0.2993,-0.2415,-0.201,-0.1523,-0.1254,-0.0851,0.0,0.036,0.0584,0.0855,0.09,0.0855,0.0719,0.0719,0.0854,0.1299,0.1389,0.1567,0.2055,0.2099,0.2322,0.2854,0.2771,0.2907,0.3353,0.3306,0.3388,0.3865,0.4136,0.4316,0.4316,0.4056,0.3924,0.3924,0.3924,0.3924,0.3924,0.3924,0.3924,0.3924,0.3924,0.3961,0.4109,0.4112,0.4042,-1.1266,-1.1858,-1.2245,-1.1913,-1.1268,-1.0465,-0.9571,-0.8704,-0.7909,-0.7326,-0.696,-0.6774,-0.6861,-0.6744,-0.6774,-0.7176,-0.7502,-0.8075,-0.9111,-1.0138,-1.1187,-1.2268,-1.3624,-1.4335,-1.4002,-1.4132,-1.413,-1.3848,-1.3947,-1.3822,-1.3395,-1.3042,-1.2777,-1.2567,-1.2174,-1.1847,-1.1494,-1.1073,-1.0608,-1.0128,-0.9845,-0.9588,-0.9297,-0.9177,-0.9288,-0.9646,-0.9065,-0.8854,-0.8837,-0.839,-0.7904,-0.7454,-0.7454,-0.7209,-0.6872,-0.6653,-0.6562,-0.6471,-0.5771,-0.5556,-0.5518,-0.4957,-0.4744,-0.4652,-0.4132,-0.3913,-0.3646,-0.2588,-0.219,-0.201,-0.1521,-0.1344,-0.1165,-0.0672,-0.0313,0.0,0.0358,0.0584,0.0764,0.0719,0.0719,0.0764,0.0898,0.1166,0.1433,0.1611,0.1876,0.2097,0.2275,0.2188,0.2233,0.2591,0.2322,0.2406,0.3205,0.3341,0.3391,0.335,0.3486,0.3575,0.3575,0.3792,0.3932,0.4035,0.4039,0.3954,0.3825,0.4065,0.4094,0.3945,0.3945,0.3893,-1.0146,-1.0806,-1.1209,-1.0917,-1.0386,-0.9765,-0.9025,-0.8334,-0.774,-0.7429,-0.7169,-0.7006,-0.7123,-0.7055,-0.7089,-0.7439,-0.751,-0.7828,-0.873,-0.9487,-1.0479,-1.1938,-1.3297,-1.4047,-1.3901,-1.3947,-1.3835,-1.3535,-1.3555,-1.3361,-1.2914,-1.259,-1.2175,-1.1689,-1.1494,-1.1223,-1.0885,-1.0417,-0.9992,-0.9649,-0.95,-0.9408,-0.9266,-0.9065,-0.9217,-0.9536,-0.8781,-0.8488,0.0,-0.7889,-0.7314,-0.6865,-0.6865,-0.6605,-0.6209,-0.6081,-0.5959,-0.5787,-0.5211,-0.4957,-0.4831,-0.4264,-0.3869,-0.3646,-0.3609,-0.348,-0.3126,-0.2101,-0.1834,-0.1789,-0.1478,-0.1208,-0.0985,-0.076,-0.0358,0.009,0.0314,0.0539,0.0719,0.0719,0.0719,0.0719,0.0719,0.0898,0.1076,0.1076,0.1254,0.1477,0.1654,0.1564,0.1607,0.2008,0.1741,0.1753,0.2329,0.2568,0.2635,0.2595,0.2998,0.322,0.322,0.3449,0.3514,0.3357,0.3602,0.3578,0.3216,0.3717,0.3891,0.3717,0.3767,0.3727,0.0,-1.0045,-1.0591,-0.9962,-0.9564,-0.9158,-0.8464,-0.7849,0.0,-0.736,-0.7326,-0.7282,-0.7265,-0.7178,-0.712,-0.7113,-0.6974,-0.7346,-0.8756,-0.9105,-1.0077,-1.247,-1.3152,-1.3556,-1.3933,-1.3888,-1.3689,-1.334,-1.3088,-1.273,-1.2199,-1.197,-1.1594,-1.0929,-1.0377,-1.0108,-1.0176,-0.9579,-0.9279,-0.9279,-0.9506,-0.9603,-0.9594,-0.9185,-0.9226,-0.9594,-0.8291,-0.7946,-0.8203,-0.7391,-0.6719,-0.6246,-0.6289,-0.5813,-0.5163,-0.5551,-0.5346,-0.484,-0.4739,-0.4526,-0.4184,-0.3435,-0.2724,-0.2188,-0.2415,-0.2551,-0.2462,-0.1657,-0.1433,-0.1389,-0.1389,-0.0895,-0.0403,-0.0403,0.0134,0.0629,0.0629,0.0674,0.0719,0.0674,0.0674,0.0674,0.0674,0.0584,0.0494,0.0494,0.045,0.0539,0.0986,0.094,0.103,0.1478,0.1393,0.1327,0.1334,0.1794,0.2066,0.2027,0.2528,0.2802,0.2802,0.2908,0.268,0.2156,0.2834,0.2941,0.2385,0.3096,0.3414,0.3417,0.3531,0.3585,-0.7916,0.0,-0.9103,-0.8943,-0.8799,-0.864,0.0,-0.8032,-0.7739,-0.7811,-0.759,-0.7456,-0.7692,-0.7482,-0.7444,-0.8057,-0.8277,-0.887,-1.0279,-1.1452,-1.2677,-1.404,-1.3816,-1.3546,-1.3537,-1.3441,-1.3113,-1.252,-1.2555,-1.2378,-1.1788,-1.1678,-1.1147,-0.9969,-0.9478,-0.9516,-1.0108,-0.9408,-0.9056,-0.9056,-0.8822,-0.8781,-0.8926,-0.8805,-0.8926,-0.9145,-0.8496,-0.8152,-0.8013,-0.753,-0.6768,-0.5916,-0.6039,-0.5647,-0.5005,-0.484,-0.4966,-0.5048,-0.4049,-0.3917,-0.4005,-0.3217,-0.2904,-0.2677,-0.2142,-0.1967,-0.2018,-0.202,-0.1703,-0.1389,-0.1389,-0.103,-0.0626,-0.0626,-0.0224,0.0179,0.0179,0.0449,0.0674,0.0584,0.0539,0.0539,0.0494,0.045,0.0405,0.0405,0.0315,0.0269,0.0404,0.0314,0.0409,0.0841,0.0564,0.0478,0.0843,0.1296,0.1569,0.1568,0.167,0.1765,0.1762,0.2225,0.2469,0.2385,0.3116,0.3444,0.3281,0.3471,0.3539,0.3542,0.3569,0.3585,-0.6697,-0.7506,-0.8265,-0.8594,-0.8612,-0.851,-0.8377,-0.8162,-0.7982,-0.8011,-0.77,-0.7507,-0.7719,-0.7718,-0.7774,-0.8088,-0.8697,-0.959,-1.0965,-1.2414,-1.353,-1.4087,-1.3762,-1.3542,-1.3589,-1.2889,-1.242,-1.2342,-1.1815,-1.1398,-1.1148,-1.0765,-1.0236,-0.952,-0.9012,-0.8958,-0.9314,-0.8828,-0.8602,-0.8602,-0.8456,-0.8367,-0.8278,-0.827,-0.83,-0.839,-0.7946,-0.769,-0.7599,-0.6937,-0.6215,-0.5567,-0.5389,-0.5005,-0.4491,-0.4368,-0.4364,-0.4351,-0.37,-0.3435,-0.33,-0.2862,-0.2551,-0.2324,-0.2099,-0.1925,-0.1748,-0.1569,-0.1344,-0.1164,-0.1074,-0.0716,-0.0358,-0.0358,-0.009,0.0224,0.0224,0.0404,0.0542,0.0461,0.0455,0.0452,0.0415,0.0364,0.0315,0.0315,0.018,0.009,0.009,0.0046,0.0093,0.0333,0.0146,0.01,0.0361,0.0863,0.1156,0.1059,0.126,0.151,0.181,0.2199,0.2574,0.2995,0.3104,0.3302,0.3585,0.3585,0.3585,0.3585,0.3585,0.3585,-0.5825,-0.6645,-0.7614,-0.8337,-0.85,-0.8432,-0.8145,-0.8016,-0.7929,-0.7806,-0.7564,-0.7407,-0.7513,-0.7816,-0.8027,-0.7947,-0.8991,-1.0232,-1.1373,-1.2662,-1.35,-1.3601,-1.3395,-1.3301,-1.3532,-1.2262,-1.1604,-1.213,-1.1044,-1.0396,-1.0545,-0.9813,-0.9333,-0.9269,-0.8831,-0.853,-0.8377,-0.8265,-0.8185,-0.8193,-0.835,-0.8222,-0.7761,-0.7744,-0.7691,-0.7568,-0.712,-0.6972,-0.6965,-0.6081,-0.5524,-0.5178,-0.4792,-0.436,-0.3928,-0.4016,-0.3796,-0.3439,-0.3476,-0.3034,-0.2462,-0.2373,-0.2059,-0.1746,-0.2012,-0.1969,-0.1703,-0.0985,-0.0895,-0.0984,-0.0805,-0.0403,-0.0045,-0.0045,0.0224,0.0495,0.0499,0.0454,0.0413,0.0382,0.0375,0.0371,0.0336,0.0233,0.0182,0.0183,0.0091,0.0,0.0,0.0,0.0,0.0,0.0,0.0,0.0,0.0537,0.0848,0.0719,0.1177,0.1687,0.2254,0.2426,0.2826,0.3524,0.3074,0.3074,0.3585,0.3585,0.3585,0.3585,0.3585,0.3585,-0.6437,-0.6527,-0.6418,-0.704,-0.765,-0.7909,-0.7184,-0.6941,-0.6832,-0.6813,-0.6766,-0.6845,-0.7191,-0.7583,-0.8108,-0.8921,-1.0543,-1.1924,-1.2563,-1.3045,-1.3526,-1.4119,-1.3123,-1.2414,-1.2531,-1.1611,-1.0883,-1.0651,-1.0592,-1.0509,-1.0421,-0.9993,-0.9429,-0.8746,-0.8646,-0.8472,-0.8246,-0.8473,-0.8601,-0.8601,-0.8625,-0.8302,-0.7621,-0.7905,-0.7671,-0.7004,-0.6824,-0.655,-0.6161,-0.561,-0.5091,-0.4705,-0.4753,-0.4495,-0.4064,-0.3836,-0.37,-0.3568,-0.3037,-0.2598,-0.2199,-0.1837,-0.1925,-0.2101,-0.1477,-0.1609,-0.1832,-0.1207,-0.1341,-0.1563,-0.1164,-0.0671,-0.0358,-0.0358,0.0045,0.0408,0.0423,0.0426,0.0383,0.0248,0.0249,0.0199,0.01,0.0049,0.0048,0.005,0.0,0.0,0.0,0.0,0.0,0.0,0.0,0.0,0.0,0.0556,0.0888,0.0884,0.1433,0.1873,0.2204,0.2489,0.2834,0.3188,0.3357,0.3527,0.3585,0.3585,0.3585,0.3585,0.3585,0.3585,-0.5609,-0.6199,-0.6469,-0.5946,-0.6976,-0.7984,-0.7495,-0.7539,-0.7661,-0.7634,-0.7419,-0.7301,-0.7487,-0.8055,-0.9013,-1.0548,-1.1577,-1.234,-1.2816,-1.3044,-1.3097,-1.3028,-1.219,-1.1652,-1.1759,-1.0777,-1.0232,-1.0369,-0.9783,-0.9476,-0.9585,-0.8945,-0.8408,-0.8106,-0.7936,-0.7996,-0.835,-0.8272,-0.8187,-0.816,-0.8123,-0.7621,-0.6699,-0.698,-0.677,-0.6184,-0.627,-0.6093,-0.5701,-0.5226,-0.4831,-0.4482,-0.4268,-0.3965,-0.3571,-0.335,-0.3262,-0.3217,-0.2729,-0.2506,-0.233,-0.215,-0.2103,-0.2101,-0.2014,-0.2012,-0.201,-0.1698,-0.1564,-0.1475,-0.1164,-0.076,-0.0405,-0.0414,-0.0046,0.0282,0.0293,0.0246,0.0149,0.0103,0.0102,0.0051,0.0,0.0,0.0,0.0,-0.005,-0.0099,0.0,-0.0103,-0.0157,0.0,-0.0054,-0.011,-0.0112,0.0505,0.0953,0.112,0.168,0.2071,0.2184,0.2685,0.3074,0.3357,0.3527,0.3585,0.3585,0.3585,0.3585,0.3585,0.3585,0.3585,-0.5027,-0.582,-0.6401,-0.5625,-0.6718,-0.7852,-0.743,-0.764,-0.7956,-0.8108,-0.796,-0.7824,-0.7811,-0.8717,-0.9996,-1.1614,-1.2132,-1.2481,-1.2794,-1.2788,-1.2563,-1.2175,-1.1424,-1.1016,-1.1235,-1.0077,-0.9515,-1.0026,-0.8992,-0.8488,-0.8766,-0.8002,-0.7609,-0.7725,-0.7475,-0.7643,-0.8248,-0.7983,-0.7815,-0.7761,-0.7624,-0.6943,-0.5893,-0.6138,-0.5933,-0.5432,-0.5666,-0.5534,-0.5188,-0.4709,-0.4399,-0.4216,-0.3785,-0.3435,-0.3126,-0.2998,-0.2865,-0.2776,-0.2551,-0.2504,-0.2504,-0.2415,-0.2279,-0.2235,-0.246,-0.2415,-0.2279,-0.2279,-0.2012,-0.1612,-0.1387,-0.1073,-0.0814,-0.0847,-0.0524,-0.0193,-0.0101,-0.0153,-0.0207,-0.0054,-0.0053,-0.0052,-0.0054,0.0,0.0,-0.0052,-0.0103,-0.0103,-0.0052,-0.0212,-0.027,0.0,-0.0166,-0.0168,-0.0056,0.0449,0.0896,0.1174,0.179,0.2071,0.1959,0.2685,0.3132,0.3246,0.3471,0.3585,0.3585,0.3585,0.3585,0.3585,0.3585,0.3585,-0.5717,-0.5488,-0.5372,-0.6711,-0.7152,-0.6984,-0.5904,-0.5794,-0.6122,-0.6856,-0.7467,-0.7884,-0.7818,-0.9334,-1.073,-1.1192,-1.2098,-1.2754,-1.2719,-1.2227,-1.2116,-1.2758,-1.143,-1.0622,-1.1064,-0.9695,-0.8756,-0.8744,-0.8418,-0.8247,-0.8347,-0.7919,-0.7711,-0.7775,-0.7757,-0.7678,-0.7471,-0.7818,-0.7991,-0.7991,-0.7547,-0.6777,-0.58,-0.5941,-0.5608,-0.4887,-0.5001,-0.4792,-0.436,-0.3965,-0.3788,-0.3741,-0.3527,-0.3262,-0.3034,-0.299,-0.2815,-0.2504,-0.2504,-0.2504,-0.246,-0.2144,-0.2324,-0.2595,-0.2235,-0.246,-0.2823,-0.2823,-0.2821,-0.2687,-0.2146,-0.201,-0.1986,-0.2117,-0.1808,-0.1362,-0.0941,-0.0902,-0.0858,-0.0278,-0.0167,-0.0167,-0.0168,-0.0109,-0.0054,-0.0166,-0.0108,-0.0054,-0.0166,-0.0223,-0.0168,0.0,-0.0224,-0.0168,0.0336,0.0393,0.056,0.0894,0.1621,0.179,0.1229,0.2402,0.2852,0.2296,0.3135,0.3585,0.3585,0.3585,0.3585,0.3585,0.3585,0.3585,-0.5188,-0.5405,-0.5584,-0.5593,-0.612,-0.669,-0.6888,-0.7281,-0.7719,-0.8016,-0.8768,-0.9359,-0.9251,-1.0244,-1.1168,-1.1414,-1.2181,-1.2659,-1.2408,-1.2067,-1.1721,-1.1402,-1.0758,-1.0304,-1.0231,-0.9615,-0.9119,-0.891,-0.873,-0.8574,-0.8417,-0.8276,-0.8006,-0.7614,-0.759,-0.7427,-0.7222,-0.7047,-0.7001,-0.7111,-0.6872,-0.6197,-0.5202,-0.539,-0.5147,-0.4523,-0.4857,-0.4805,-0.4487,-0.4495,-0.4184,-0.3653,-0.3081,-0.2771,-0.2682,-0.2771,-0.2729,-0.264,-0.2732,-0.2732,-0.2732,-0.2595,-0.2684,-0.2776,-0.264,-0.2504,-0.2415,-0.2415,-0.2237,-0.2072,-0.2077,-0.1905,-0.1608,-0.146,-0.1021,-0.0622,-0.0599,-0.055,-0.0497,-0.0336,-0.0336,-0.028,-0.0224,-0.0166,-0.0166,-0.0168,-0.0166,-0.0166,-0.028,-0.0449,-0.0449,-0.028,-0.0449,-0.0449,-0.0112,-0.028,-0.0336,-0.0112,0.0783,0.1398,0.1677,0.2125,0.2629,0.3079,0.3188,0.3413,0.3585,0.3413,0.3413,0.3585,0.3585,0.3585,-0.4762,-0.5186,-0.5573,-0.5215,-0.5587,-0.635,-0.7516,-0.8115,-0.8545,-0.888,-0.9734,-1.0406,-1.0421,-1.0798,-1.1136,-1.133,-1.1966,-1.2354,-1.2111,-1.1797,-1.1385,-1.0766,-1.0377,-1.0103,-0.9987,-0.9638,-0.9345,-0.912,-0.8916,-0.8687,-0.835,-0.835,-0.8086,-0.7509,-0.7442,-0.7248,-0.6925,-0.6476,-0.6182,-0.612,-0.5963,-0.553,-0.4844,-0.5012,-0.481,-0.4409,-0.4729,-0.4819,-0.4709,-0.4631,-0.4096,-0.3347,-0.2771,-0.2595,-0.264,-0.2732,-0.2776,-0.2776,-0.2868,-0.2912,-0.2912,-0.2912,-0.2912,-0.2868,-0.2687,-0.2415,-0.2144,-0.1967,-0.1791,-0.1679,-0.1769,-0.1633,-0.1506,-0.1309,-0.0958,-0.0644,-0.0668,-0.0672,-0.0616,-0.0505,-0.0505,-0.0449,-0.0393,-0.028,-0.028,-0.0336,-0.028,-0.0336,-0.0449,-0.0617,-0.0673,-0.0561,-0.0617,-0.0673,-0.0561,-0.0785,-0.0842,-0.0785,-0.0056,0.0615,0.1231,0.1623,0.2181,0.2852,0.2965,0.3132,0.3413,0.3188,0.3244,0.3585,0.3585,0.3604,-0.466,-0.4752,-0.5112,-0.6065,-0.5891,-0.5896,-0.7363,-0.7692,-0.8029,-0.9094,-1.0026,-1.0722,-1.1047,-1.0829,-1.0658,-1.0774,-1.1378,-1.1811,-1.1811,-1.1359,-1.1085,-1.1254,-1.0441,-1.0033,-1.0562,-0.9812,-0.9241,-0.914,-0.8799,-0.8454,-0.8035,-0.8,-0.7859,-0.752,-0.752,-0.7166,-0.6507,-0.6248,-0.575,-0.5099,-0.4896,-0.4832,-0.4896,-0.483,-0.4732,-0.459,-0.4604,-0.4735,-0.4937,-0.4049,-0.3303,-0.2684,-0.2687,-0.2776,-0.2912,-0.2912,-0.2912,-0.2912,-0.2912,-0.2912,-0.2912,-0.2912,-0.2912,-0.2821,-0.2279,-0.219,-0.219,-0.1746,-0.1703,-0.1691,-0.1236,-0.1423,-0.1849,-0.204,-0.2073,-0.1934,-0.1393,-0.1456,-0.1399,-0.0841,-0.0729,-0.0729,-0.0673,-0.0561,-0.0449,-0.0673,-0.0505,-0.0449,-0.0673,-0.0729,-0.0729,-0.0898,-0.0785,-0.0729,-0.0898,-0.0898,-0.0898,-0.0898,-0.0898,-0.0729,-0.0393,0.0896,0.151,0.1285,0.224,0.28,0.3074,0.3074,0.3244,0.3585,0.3585,0.3645,-0.4169,-0.4291,-0.4609,-0.5397,-0.5819,-0.6236,-0.691,-0.7983,-0.9346,-1.1091,-1.1513,-1.141,-1.1103,-1.1307,-1.134,-1.0767,-1.109,-1.1468,-1.159,-1.1469,-1.1278,-1.1111,-1.0814,-1.0599,-1.0484,-1.0111,-0.9855,-0.9818,-0.9677,-0.9374,-0.8935,-0.8896,-0.8515,-0.7668,-0.7614,-0.7145,-0.6278,-0.6027,-0.5699,-0.5303,-0.5015,-0.4698,-0.4403,-0.4383,-0.4308,-0.4171,-0.4081,-0.4148,-0.4311,-0.3746,-0.3373,-0.3171,-0.292,-0.2907,-0.2948,-0.2948,-0.2948,-0.2948,-0.2948,-0.2951,-0.2912,-0.2912,-0.2912,-0.2865,-0.2768,-0.2279,-0.1791,-0.1743,-0.1344,-0.0869,-0.0791,-0.09,-0.1112,-0.1086,-0.0993,-0.0941,-0.1008,-0.1009,-0.0953,-0.0842,-0.0842,-0.0785,-0.0729,-0.0673,-0.0617,-0.0673,-0.0505,-0.0449,-0.0673,-0.0785,-0.0842,-0.0898,-0.0842,-0.0842,-0.0898,-0.0898,-0.0898,-0.0898,-0.0898,-0.0616,0.0,0.0391,0.0838,0.1285,0.1734,0.2181,0.2681,0.2798,0.3081,0.3585,0.3585,0.3645,-0.4091,-0.4315,-0.4692,-0.5361,-0.5916,-0.6502,-0.7346,-0.85,-0.981,-1.1399,-1.159,-1.1367,-1.1028,-1.1118,-1.1151,-1.0776,-1.0962,-1.1169,-1.1282,-1.1282,-1.1207,-1.0878,-1.0791,-1.0677,-1.0418,-1.0273,-1.0157,-1.0079,-0.9932,-0.9655,-0.9288,-0.9007,-0.8544,-0.7857,-0.7691,-0.7258,-0.6409,-0.6115,-0.5731,-0.5223,-0.493,-0.4626,-0.4354,-0.4323,-0.4243,-0.4111,-0.4048,-0.4047,-0.4003,-0.3556,-0.3343,-0.3229,-0.3011,-0.2996,-0.3078,-0.3078,-0.3078,-0.3078,-0.3078,-0.304,-0.2998,-0.2998,-0.2998,-0.2998,-0.286,-0.246,-0.2014,-0.1921,-0.152,-0.1137,-0.1212,-0.1146,-0.1027,-0.0828,-0.0673,-0.0673,-0.0842,-0.0842,-0.0785,-0.0898,-0.0898,-0.0898,-0.0785,-0.0785,-0.0785,-0.0785,-0.0673,-0.0617,-0.0785,-0.0842,-0.0898,-0.0898,-0.0898,-0.0898,-0.0898,-0.0898,-0.0898,-0.0898,-0.0898,-0.0728,-0.028,-0.0056,0.028,0.0783,0.1175,0.1679,0.2291,0.2575,0.3026,0.3585,0.3632,0.3713,-0.42,-0.4557,-0.5096,-0.5776,-0.6145,-0.6758,-0.8309,-0.9053,-0.9638,-1.0467,-1.076,-1.0843,-1.0856,-1.0605,-1.049,-1.0805,-1.0878,-1.0878,-1.0943,-1.0981,-1.0878,-1.0659,-1.0495,-1.038,-1.038,-1.0273,-1.0166,-1.004,-0.9686,-0.9408,-0.9177,-0.8618,-0.8201,-0.8021,-0.7787,-0.7361,-0.6726,-0.6408,-0.5863,-0.5051,-0.4757,-0.4646,-0.4676,-0.4571,-0.4437,-0.4287,-0.4284,-0.412,-0.3762,-0.3463,-0.3185,-0.2999,-0.3014,-0.307,-0.3214,-0.3214,-0.3214,-0.3214,-0.3214,-0.3214,-0.3214,-0.3214,-0.3214,-0.3126,-0.2726,-0.2595,-0.2551,-0.2144,-0.201,-0.1988,-0.2078,-0.1767,-0.1336,-0.0994,-0.0898,-0.0898,-0.0898,-0.0898,-0.0898,-0.0898,-0.0898,-0.0898,-0.0898,-0.0898,-0.0898,-0.0898,-0.0898,-0.0898,-0.0898,-0.0898,-0.0898,-0.0898,-0.0898,-0.0898,-0.0898,-0.0898,-0.0898,-0.0898,-0.0898,-0.0898,-0.0898,-0.0505,-0.0224,-0.0112,0.0617,0.1289,0.1958,0.241,0.2914,0.353,0.3642,0.37,-0.3527,-0.3986,-0.4678,-0.5967,-0.6875,-0.7613,-0.8249,-0.8613,-0.9086,-1.0103,-1.0699,-1.0953,-1.0641,-1.0803,-1.0914,-1.0552,-1.0611,-1.0659,-1.0687,-1.0774,-1.086,-1.0843,-1.0669,-1.0428,-1.0137,-0.9873,-0.9667,-0.9478,-0.9399,-0.9248,-0.9056,-0.8903,-0.8651,-0.8332,-0.7821,-0.7328,-0.6934,-0.6263,-0.5744,-0.5398,-0.505,-0.5,-0.5137,-0.4752,-0.4421,-0.4101,-0.3702,-0.3334,-0.3007,-0.2838,-0.2819,-0.2834,-0.2938,-0.3126,-0.335,-0.335,-0.335,-0.335,-0.335,-0.3306,-0.3214,-0.3214,-0.3214,-0.3214,-0.3217,-0.2726,-0.2144,-0.2099,-0.1567,-0.1004,-0.1077,-0.1002,-0.0925,-0.0883,-0.0898,-0.0898,-0.0898,-0.0898,-0.0898,-0.0898,-0.0898,-0.0898,-0.0898,-0.0898,-0.0898,-0.0898,-0.0898,-0.0898,-0.0898,-0.0898,-0.0898,-0.0898,-0.0898,-0.0898,-0.0898,-0.0898,-0.0898,-0.0898,-0.0898,-0.0898,-0.0898,-0.0785,-0.0729,-0.0729,-0.0168,0.0504,0.1454,0.1902,0.2406,0.2907,0.2772,0.2864,-0.3442,-0.3886,-0.4567,-0.6067,-0.6986,-0.7629,-0.8029,-0.8246,-0.8511,-0.9084,-0.9713,-1.0084,-0.9695,-0.9828,-0.9784,-0.9287,-0.9437,-0.9682,-0.9766,-0.9889,-0.9995,-1.0139,-0.9886,-0.9558,-0.9263,-0.9134,-0.9013,-0.8853,-0.8703,-0.8706,-0.8907,-0.8585,-0.8351,-0.8234,-0.7821,-0.7321,-0.6768,-0.6335,-0.5961,-0.5596,-0.5426,-0.5281,-0.5159,-0.5,-0.4644,-0.4115,-0.3814,-0.342,-0.3007,-0.2793,-0.2868,-0.3096,-0.3102,-0.3272,-0.349,-0.349,-0.349,-0.349,-0.349,-0.3442,-0.3398,-0.3398,-0.3398,-0.3398,-0.3486,-0.3173,-0.2724,-0.2544,-0.2144,-0.1726,-0.1497,-0.1292,-0.1177,-0.1241,-0.1052,-0.0898,-0.0898,-0.0898,-0.0898,-0.0898,-0.0898,-0.0898,-0.0898,-0.0898,-0.0898,-0.0898,-0.0898,-0.0898,-0.0898,-0.0898,-0.0898,-0.0898,-0.0898,-0.0898,-0.0898,-0.0898,-0.0898,-0.0898,-0.0898,-0.0898,-0.0898,-0.0898,-0.0898,-0.0898,-0.0224,0.0336,0.0782,0.1454,0.19,0.2014,0.2408,0.2543,-0.3434,-0.3991,-0.4669,-0.6012,-0.675,-0.7276,-0.7669,-0.7925,-0.8054,-0.8121,-0.8673,-0.9053,-0.8786,-0.8723,-0.8568,-0.8199,-0.8448,-0.8711,-0.8787,-0.8858,-0.8958,-0.9099,-0.8779,-0.8421,-0.8166,-0.8221,-0.8232,-0.8078,-0.793,-0.8067,-0.8534,-0.8068,-0.7843,-0.7881,-0.7675,-0.7251,-0.6568,-0.6483,-0.6199,-0.578,-0.5821,-0.5577,-0.5158,-0.5325,-0.4953,-0.4199,-0.4065,-0.3736,-0.3317,-0.2972,-0.303,-0.3357,-0.3259,-0.3341,-0.3544,-0.3568,-0.3581,-0.3581,-0.3581,-0.3581,-0.3581,-0.3581,-0.3581,-0.3581,-0.3581,-0.3534,-0.3398,-0.299,-0.2854,-0.2663,-0.2182,-0.1773,-0.1478,-0.1487,-0.1207,-0.0898,-0.0898,-0.0898,-0.0898,-0.0898,-0.0898,-0.0898,-0.0898,-0.0898,-0.0898,-0.0898,-0.0898,-0.0898,-0.0898,-0.0898,-0.0898,-0.0898,-0.0898,-0.0898,-0.0898,-0.0898,-0.0898,-0.0898,-0.0898,-0.0898,-0.0898,-0.0898,-0.0898,-0.0898,-0.0168,0.0168,0.0223,0.1006,0.1341,0.1287,0.2031,0.2214,-0.2839,-0.3927,-0.5097,-0.5592,-0.6376,-0.7063,-0.7193,-0.7526,-0.7918,-0.813,-0.8581,-0.8921,-0.8891,-0.9008,-0.9107,-0.9047,-0.8987,-0.8822,-0.844,-0.842,-0.8354,-0.8039,-0.7851,-0.7581,-0.7125,-0.7329,-0.7389,-0.7182,-0.7464,-0.7627,-0.7605,-0.7704,-0.7656,-0.739,-0.7148,-0.6956,-0.6829,-0.6319,-0.6081,-0.6132,-0.6271,-0.6143,-0.5882,-0.5705,-0.5142,-0.4253,-0.3793,-0.354,-0.3463,-0.3159,-0.3108,-0.3152,-0.3262,-0.3319,-0.3356,-0.3531,-0.3581,-0.3581,-0.3581,-0.3581,-0.3581,-0.3581,-0.3581,-0.3581,-0.3581,-0.3306,-0.2987,-0.2898,-0.2544,-0.2092,-0.1719,-0.1559,-0.1438,-0.1097,-0.095,-0.0898,-0.0898,-0.0898,-0.0898,-0.0898,-0.0898,-0.0898,-0.0898,-0.0898,-0.0898,-0.0898,-0.0898,-0.0898,-0.0898,-0.0898,-0.0898,-0.0898,-0.0898,-0.0898,-0.0898,-0.0898,-0.0898,-0.0898,-0.0898,-0.0898,-0.0898,-0.0898,-0.0898,-0.0898,-0.0785,-0.0448,0.0223,0.0335,0.0614,0.1119,0.0837,0.1352,-0.2791,-0.368,-0.4592,-0.5276,-0.5778,-0.6268,-0.6864,-0.7152,-0.7384,-0.7724,-0.796,-0.8079,-0.7917,-0.7901,-0.7832,-0.7559,-0.7734,-0.7852,-0.7743,-0.7743,-0.77,-0.7647,-0.7148,-0.6697,-0.6418,-0.6376,-0.6236,-0.5947,-0.618,-0.6377,-0.654,-0.6804,-0.6944,-0.6926,-0.6956,-0.6865,-0.6623,-0.6367,-0.6239,-0.6319,-0.6367,-0.619,-0.5836,-0.5744,-0.5234,-0.4459,-0.4111,-0.3734,-0.3366,-0.3249,-0.3259,-0.3378,-0.3316,-0.336,-0.3487,-0.3554,-0.3581,-0.3581,-0.3581,-0.3581,-0.3581,-0.3581,-0.3581,-0.3581,-0.3581,-0.3442,-0.3214,-0.2987,-0.2721,-0.2456,-0.2124,-0.1766,-0.149,-0.1544,-0.1233,-0.0898,-0.0898,-0.0898,-0.0898,-0.0898,-0.0898,-0.0898,-0.0898,-0.0898,-0.0898,-0.0898,-0.0898,-0.0898,-0.0898,-0.0898,-0.0898,-0.0898,-0.0898,-0.0898,-0.0898,-0.0898,-0.0898,-0.0898,-0.0898,-0.0898,-0.0898,-0.0898,-0.0898,-0.0898,-0.0617,-0.0505,-0.0392,-0.0168,0.0,0.0,0.0239,0.0799,-0.2732,-0.328,-0.3836,-0.4744,-0.5083,-0.5433,-0.6304,-0.6609,-0.6808,-0.7272,-0.7329,-0.7263,-0.7193,-0.7062,-0.6893,-0.6581,-0.6799,-0.7061,-0.7107,-0.7083,-0.7042,-0.7064,-0.6419,-0.5918,-0.5781,-0.5591,-0.5389,-0.5144,-0.5308,-0.5515,-0.5743,-0.6,-0.618,-0.6238,-0.6487,-0.6511,-0.6307,-0.638,-0.6416,-0.6416,-0.6416,-0.6233,-0.5879,-0.5739,-0.5392,-0.4868,-0.4474,-0.394,-0.3366,-0.3366,-0.3453,-0.3514,-0.3396,-0.3453,-0.3527,-0.3565,-0.3581,-0.3581,-0.3581,-0.3581,-0.3581,-0.3581,-0.3581,-0.3581,-0.3581,-0.3581,-0.3534,-0.317,-0.3078,-0.3002,-0.2665,-0.2267,-0.1951,-0.2203,-0.168,-0.1065,-0.0954,-0.0898,-0.0898,-0.0898,-0.0898,-0.0898,-0.0898,-0.0898,-0.0898,-0.0898,-0.0898,-0.0898,-0.0898,-0.0898,-0.0898,-0.0898,-0.0898,-0.0898,-0.0898,-0.0898,-0.0898,-0.0898,-0.0898,-0.0898,-0.0898,-0.0898,-0.0898,-0.0898,-0.0449,-0.0449,-0.0898,-0.0561,-0.0449,-0.0562,0.012,0.0677,-0.2434,-0.2692,-0.3051,-0.3861,-0.4357,-0.4785,-0.5338,-0.5771,-0.624,-0.6888,-0.6876,-0.6887,-0.7317,-0.7275,-0.7248,-0.7394,-0.7227,-0.6991,-0.6694,-0.662,-0.6448,-0.595,-0.5575,-0.5302,-0.5156,-0.5202,-0.5225,-0.5196,-0.5553,-0.565,-0.534,-0.5591,-0.5594,-0.5279,-0.5535,-0.5798,-0.6009,-0.6283,-0.6416,-0.6416,-0.6416,-0.6367,-0.6367,-0.5916,-0.569,-0.5594,-0.47,-0.4008,-0.3568,-0.3568,-0.3487,-0.3333,-0.3514,-0.3483,-0.3336,-0.3527,-0.3581,-0.3581,-0.3581,-0.3581,-0.3581,-0.3581,-0.3581,-0.3581,-0.3581,-0.3581,-0.3581,-0.3578,-0.3578,-0.3465,-0.3156,-0.3016,-0.297,-0.2747,-0.2181,-0.1623,-0.1009,-0.0898,-0.0898,-0.0898,-0.0898,-0.0898,-0.0898,-0.0898,-0.0898,-0.0898,-0.0898,-0.0898,-0.0898,-0.0898,-0.0898,-0.0898,-0.0898,-0.0898,-0.0898,-0.0898,-0.0898,-0.0898,-0.0898,-0.0898,-0.0898,-0.0898,-0.0898,-0.0898,-0.0449,-0.0449,-0.0898,-0.0898,-0.0449,0.0337,0.0538,0.1231,-0.2073,-0.223,-0.2455,-0.3115,-0.3627,-0.4116,-0.4689,-0.5165,-0.5634,-0.612,-0.6185,-0.6179,-0.6393,-0.681,-0.7154,-0.7244,-0.7205,-0.7121,-0.7004,-0.6966,-0.6768,-0.637,-0.5891,-0.5506,-0.526,-0.4979,-0.4767,-0.4624,-0.4761,-0.4796,-0.4726,-0.4966,-0.5159,-0.5201,-0.5462,-0.5724,-0.5991,-0.6094,-0.6234,-0.6416,-0.6416,-0.6233,-0.5964,-0.5787,-0.5351,-0.4792,-0.4447,-0.4188,-0.4016,-0.3711,-0.3548,-0.3503,-0.3558,-0.3548,-0.3503,-0.3558,-0.3581,-0.3581,-0.3581,-0.3581,-0.3581,-0.3581,-0.3581,-0.3581,-0.3581,-0.3581,-0.3581,-0.3581,-0.3646,-0.3715,-0.367,-0.3479,-0.3111,-0.2544,-0.1961,-0.1569,-0.1512,-0.1177,-0.0898,-0.0898,-0.1233,-0.1344,-0.0953,-0.0898,-0.0898,-0.0898,-0.0898,-0.0898,-0.0898,-0.0898,-0.0898,-0.0898,-0.0898,-0.0898,-0.0898,-0.0898,-0.0898,-0.0898,-0.0898,-0.0898,-0.0898,-0.0617,-0.0449,-0.0449,-0.0056,0.0,-0.0449,-0.0168,0.0112,0.0393,0.0479,0.111,-0.1792,-0.1865,-0.2015,-0.2646,-0.3004,-0.3405,-0.4213,-0.4524,-0.4803,-0.5414,-0.5478,-0.5488,-0.5699,-0.6224,-0.6688,-0.6899,-0.6975,-0.7011,-0.7059,-0.7026,-0.6876,-0.6466,-0.5994,-0.5605,-0.5362,-0.4918,-0.4605,-0.447,-0.4464,-0.4495,-0.4539,-0.4709,-0.4918,-0.5095,-0.5329,-0.5515,-0.5623,-0.5704,-0.5803,-0.5927,-0.5927,-0.575,-0.548,-0.548,-0.5135,-0.4535,-0.436,-0.4232,-0.4056,-0.3711,-0.3581,-0.3581,-0.3581,-0.3581,-0.3581,-0.3581,-0.3581,-0.3581,-0.3581,-0.3581,-0.3581,-0.3581,-0.3581,-0.3581,-0.3581,-0.3581,-0.3581,-0.3581,-0.3646,-0.3768,-0.3968,-0.3807,-0.3371,-0.2561,-0.213,-0.185,-0.1681,-0.1289,-0.101,-0.0898,-0.1232,-0.1344,-0.0953,-0.0898,-0.0898,-0.0898,-0.0898,-0.0898,-0.0898,-0.0898,-0.0898,-0.0898,-0.0898,-0.0898,-0.0898,-0.0898,-0.0898,-0.0898,-0.0729,-0.0617,-0.0617,-0.0224,0.0,0.0,0.0393,0.0505,0.0224,0.0336,0.0505,0.0618,0.0839,0.1371,0.0,0.0,0.0,-0.2407,-0.2484,-0.2706,-0.3889,-0.3808,-0.3762,-0.4762,-0.4816,-0.4806,-0.5291,-0.5532,-0.5847,-0.6448,-0.6557,-0.661,-0.675,-0.6781,-0.6601,-0.6144,-0.5727,-0.546,-0.539,-0.5023,-0.4812,-0.4812,-0.4812,-0.4812,-0.4812,-0.4864,-0.4884,-0.489,-0.5055,-0.5068,-0.4904,-0.514,-0.5204,-0.5,-0.5005,-0.5009,-0.4966,-0.4966,-0.4966,-0.4923,-0.4491,-0.4016,-0.3626,-0.3581,-0.3581,-0.3581,-0.3581,-0.3581,-0.3581,-0.3581,-0.3581,-0.3581,-0.3581,-0.3581,-0.3581,-0.3581,-0.3581,-0.3581,-0.3581,-0.3581,-0.3581,-0.3581,-0.3629,-0.3653,-0.3948,-0.398,-0.3744,-0.2914,-0.2691,-0.2411,-0.1514,-0.1347,-0.1234,-0.0954,-0.0898,-0.0898,-0.0898,-0.0898,-0.0898,-0.0898,-0.0898,-0.0898,-0.0898,-0.0898,-0.0898,-0.0898,-0.0898,-0.0898,-0.0842,-0.0842,-0.0842,-0.0842,-0.028,0.0,0.0,0.028,0.0449,0.0449,0.0898,0.1122,0.1122,0.0673,0.0673,0.1124,0.1615,0.2098,-0.1367,0.0,0.0,0.0,0.0,0.0,-0.2876,-0.3169,-0.3492,-0.3966,-0.4102,-0.4218,-0.4487,-0.4582,-0.4763,-0.5222,-0.5658,-0.5978,-0.5996,-0.6035,-0.5915,-0.5502,-0.5474,-0.5365,-0.5074,-0.4896,-0.4812,-0.4812,-0.4812,-0.4806,-0.4858,-0.489,-0.4756,-0.4403,-0.4438,-0.4554,-0.4689,-0.4937,-0.5134,-0.5235,-0.5402,-0.5135,-0.4491,-0.4491,-0.4316,-0.3972,-0.384,-0.3751,-0.366,-0.3622,-0.3581,-0.3581,-0.3581,-0.3581,-0.3581,-0.3581,-0.3581,-0.3581,-0.3581,-0.3581,-0.3581,-0.3581,-0.3581,-0.3581,-0.3581,-0.3581,-0.3581,-0.3581,-0.3747,-0.3899,-0.4002,-0.3782,-0.3405,-0.2856,-0.2465,-0.2184,-0.1959,-0.1736,-0.1512,-0.1009,-0.0898,-0.0898,-0.0898,-0.0898,-0.0898,-0.0898,-0.0898,-0.0898,-0.0898,-0.0898,-0.0898,-0.0898,-0.0898,-0.0393,0.0954,0.1066,0.0842,0.0449,0.0561,0.0561,0.028,0.0673,0.0898,0.0898,0.1347,0.1628,0.1628,0.1459,0.1459,0.163,0.177,0.2011,-0.1524,-0.1577,-0.1653,-0.185,0.0,0.0,-0.2548,-0.2712,-0.2938,-0.3464,-0.3547,-0.3599,-0.3859,-0.3973,-0.4117,-0.4354,-0.4685,-0.5021,-0.5331,-0.5402,-0.5284,-0.4865,-0.4889,-0.4897,-0.4741,-0.4667,-0.4691,-0.48,-0.4812,-0.4774,-0.4698,-0.4628,-0.4436,-0.4081,-0.4011,-0.4018,-0.4096,-0.4262,-0.4366,-0.445,-0.4605,-0.4453,-0.4052,-0.4052,-0.3924,-0.3711,-0.3711,-0.3751,-0.3788,-0.3751,-0.3707,-0.3619,-0.3622,-0.3581,-0.3581,-0.3581,-0.3581,-0.3581,-0.3581,-0.3581,-0.3581,-0.3581,-0.3581,-0.3581,-0.3581,-0.3622,-0.3663,-0.3663,-0.3912,-0.4122,-0.4053,-0.3767,-0.3461,-0.3132,-0.2687,-0.2296,-0.2015,-0.2071,-0.2073,-0.1737,-0.1233,-0.0898,-0.0898,-0.0898,-0.0898,-0.0898,-0.0898,-0.0898,-0.0898,-0.0898,-0.0898,-0.0898,-0.0898,-0.0336,0.1122,0.1572,0.1459,0.0729,0.0898,0.0898,0.0673,0.1122,0.1403,0.1403,0.1685,0.1797,0.1797,0.1797,0.1813,0.1849,0.191,0.2016,-0.1922,-0.195,-0.1996,-0.2207,-0.2111,0.0,-0.2558,-0.2379,-0.2337,-0.3105,-0.3086,-0.3018,-0.3333,-0.3564,-0.3721,-0.3721,-0.3729,-0.3995,-0.4681,-0.48,-0.466,-0.4264,-0.4198,-0.4265,-0.4419,-0.4422,-0.4484,-0.4751,-0.4762,-0.4646,-0.4388,-0.4248,-0.4081,-0.3853,-0.3719,-0.357,-0.3396,-0.342,-0.3403,-0.3341,-0.3355,-0.3482,-0.3716,-0.3716,-0.3774,-0.388,-0.388,-0.3924,-0.3928,-0.3924,-0.3836,-0.37,-0.3667,-0.3622,-0.3581,-0.3622,-0.3622,-0.3581,-0.3581,-0.3581,-0.3581,-0.3581,-0.3581,-0.3581,-0.3622,-0.3663,-0.37,-0.3744,-0.4066,-0.4363,-0.4065,-0.3921,-0.3796,-0.3572,-0.3132,-0.2521,-0.1847,-0.224,-0.2635,-0.2523,-0.1737,-0.1065,-0.0898,-0.0898,-0.0898,-0.0898,-0.0898,-0.0898,-0.0898,-0.0898,-0.0898,-0.0898,-0.0729,-0.028,0.0505,0.1347,0.1459,0.0617,0.0954,0.1178,0.1178,0.1572,0.1797,0.1797,0.1797,0.1797,0.1797,0.1797,0.1834,0.1905,0.1951,0.21,-0.2224,-0.2224,-0.2184,-0.2016,-0.215,0.0,-0.1902,-0.2015,-0.2211,-0.2337,-0.24,-0.2509,-0.2732,-0.2988,-0.3166,-0.3166,-0.3293,-0.3547,-0.3966,-0.4064,-0.4024,-0.3835,-0.4005,-0.4103,-0.4098,-0.4284,-0.4412,-0.446,-0.4465,-0.435,-0.4091,-0.4058,-0.3853,-0.3425,-0.3388,-0.3344,-0.3223,-0.3469,-0.354,-0.3541,-0.3754,-0.3802,-0.3681,-0.3681,-0.3755,-0.388,-0.388,-0.3972,-0.4064,-0.3928,-0.3836,-0.37,-0.3792,-0.3751,-0.3622,-0.366,-0.366,-0.3581,-0.3581,-0.3581,-0.3581,-0.3581,-0.3581,-0.3622,-0.366,-0.37,-0.3744,-0.3972,-0.426,-0.4466,-0.4161,-0.4233,-0.4128,-0.3294,-0.291,-0.241,-0.1289,-0.1905,-0.2411,-0.1457,-0.185,-0.2018,-0.1065,-0.0898,-0.0898,-0.0898,-0.0898,-0.0898,-0.0898,-0.0898,-0.0898,-0.0898,0.0393,0.1347,0.1515,0.1685,0.1741,0.1515,0.1628,0.1685,0.1685,0.1741,0.1797,0.1797,0.1797,0.1797,0.1797,0.1797,0.1805,0.1823,0.1925,0.21,-0.2176,-0.2159,-0.2128,-0.2028,-0.2202,0.0,0.0,-0.198,-0.2182,-0.2439,-0.2333,-0.2324,-0.2719,-0.2914,-0.3012,-0.3012,-0.316,-0.3366,-0.3527,-0.3582,-0.3583,-0.3499,-0.3624,-0.3731,-0.3785,-0.3925,-0.4065,-0.4187,-0.4066,-0.3899,-0.3653,-0.3658,-0.3462,-0.3003,-0.3003,-0.2973,-0.2944,-0.3094,-0.3209,-0.329,-0.3448,-0.3543,-0.3635,-0.3719,-0.3807,-0.3937,-0.4065,-0.4144,-0.4192,-0.4144,-0.4012,-0.388,-0.3836,-0.3748,-0.3663,-0.3663,-0.3619,-0.3581,-0.3581,-0.3581,-0.3581,-0.3581,-0.3622,-0.366,-0.37,-0.3788,-0.3943,-0.4209,-0.451,-0.4679,-0.4614,-0.4555,-0.4353,-0.363,-0.3079,-0.2523,-0.1905,-0.1794,-0.1625,-0.1009,-0.1401,-0.1625,-0.1009,-0.0898,-0.0898,-0.0898,-0.0898,-0.0898,-0.0898,-0.0898,-0.0561,0.0336,0.0449,0.0842,0.1741,0.1797,0.1797,0.1797,0.1797,0.1797,0.1797,0.1797,0.1797,0.1797,0.1797,0.1797,0.1797,0.1917,0.1944,0.1887,0.2007,0.2161,-0.2148,-0.2089,-0.21,-0.2097,-0.225,-0.2348,0.0,0.0,0.0,-0.2584,-0.2328,-0.2182,-0.2713,-0.2795,-0.2819,-0.2891,-0.3019,-0.3099,-0.3109,-0.3113,-0.3156,-0.3272,-0.3278,-0.3343,-0.3506,-0.3524,-0.3599,-0.3801,-0.3589,-0.3386,-0.3181,-0.3192,-0.3053,-0.2704,-0.2699,-0.2716,-0.2716,-0.2716,-0.2808,-0.3029,-0.3029,-0.3224,-0.3577,-0.3684,-0.3825,-0.4024,-0.4166,-0.4243,-0.4316,-0.4316,-0.4232,-0.4104,-0.3921,-0.3788,-0.3744,-0.3711,-0.3667,-0.3622,-0.3622,-0.3622,-0.3622,-0.3622,-0.3704,-0.3788,-0.3788,-0.3924,-0.4188,-0.4449,-0.4622,-0.4844,-0.5031,-0.4892,-0.4574,-0.4301,-0.3469,-0.2691,-0.2691,-0.1737,-0.0898,-0.0898,-0.0898,-0.0898,-0.0898,-0.0898,-0.0898,-0.0898,-0.0898,-0.0898,-0.0898,-0.0898,-0.0336,0.1122,0.0,-0.0168,0.1629,0.1797,0.1797,0.1797,0.1797,0.1797,0.1797,0.1797,0.1797,0.1797,0.1797,0.1808,0.1831,0.2112,0.2169,0.2072,0.2173,0.2221,-0.2517,-0.2436,-0.2389,-0.2158,-0.229,-0.2353,-0.1866,0.0,-0.2037,-0.1873,0.0,-0.1822,-0.2061,0.0,0.0,-0.2498,-0.2471,-0.2412,-0.2415,-0.2408,-0.262,-0.3157,-0.3208,-0.322,-0.3251,-0.3251,-0.3214,-0.3114,-0.3032,-0.2903,-0.2705,-0.2788,-0.2784,-0.2609,-0.2744,-0.2782,-0.2782,-0.2782,-0.2889,-0.3103,-0.3103,-0.3231,-0.3517,-0.3537,-0.3716,-0.402,-0.4036,-0.4134,-0.4316,-0.4316,-0.4272,-0.4276,-0.4228,-0.41,-0.388,-0.402,-0.3884,-0.37,-0.37,-0.37,-0.37,-0.37,-0.3836,-0.4064,-0.4064,-0.4148,-0.4313,-0.4449,-0.4622,-0.4844,-0.5031,-0.516,-0.5187,-0.5187,-0.3913,-0.2691,-0.2691,-0.1737,-0.0898,-0.0898,-0.0898,-0.0898,-0.0898,-0.0898,-0.0898,-0.0898,-0.0898,-0.0898,-0.0898,-0.0898,-0.0842,-0.0617,-0.0785,-0.0168,0.1629,0.1797,0.1797,0.1797,0.1797,0.1797,0.1797,0.1797,0.1797,0.1797,0.1797,0.1849,0.1952,0.2154,0.2214,0.22,0.2214,0.2221,-0.2198,-0.2202,-0.2267,-0.1997,-0.2245,-0.2459,-0.2016,-0.2015,-0.2121,-0.2162,0.0,0.0,0.0,0.0,0.0,0.0,-0.214,-0.2132,-0.2121,-0.2123,-0.2268,-0.264,-0.2673,-0.2707,-0.2783,-0.2589,-0.2524,-0.2693,-0.247,-0.2373,-0.2468,-0.2616,-0.2648,-0.2611,-0.2734,-0.2815,-0.2874,-0.2874,-0.294,-0.3105,-0.3105,-0.3182,-0.333,-0.3439,-0.3622,-0.3822,-0.3931,-0.4114,-0.4316,-0.4316,-0.4316,-0.4316,-0.4316,-0.4188,-0.4016,-0.3843,-0.3796,-0.3788,-0.3744,-0.3744,-0.3836,-0.3924,-0.4016,-0.4108,-0.4192,-0.4308,-0.4375,-0.4307,-0.4424,-0.454,-0.4492,-0.4634,-0.4739,-0.4405,-0.3466,-0.2691,-0.2691,-0.1737,-0.1122,-0.1794,-0.1962,-0.1962,-0.1962,-0.1345,-0.1122,-0.185,-0.1346,-0.0898,-0.0898,-0.0898,-0.0898,-0.0898,-0.0898,-0.0617,0.0168,0.1178,0.1797,0.1797,0.1797,0.1797,0.1797,0.1797,0.1797,0.1797,0.1933,0.2029,0.2143,0.2195,0.2221,0.2221,0.2221,0.2221,-0.211,-0.2066,-0.211,-0.1894,-0.211,-0.2346,-0.2084,-0.2026,-0.2075,-0.2263,-0.1988,0.0,0.0,0.0,-0.1835,-0.1897,0.0,-0.1806,-0.1812,-0.1772,-0.1887,-0.2258,-0.2328,-0.2365,-0.2385,-0.2091,-0.2029,-0.2307,-0.2031,-0.1971,-0.2248,-0.247,-0.2556,-0.2542,-0.2709,-0.2845,-0.297,-0.297,-0.3003,-0.3142,-0.3142,-0.3142,-0.3212,-0.335,-0.3529,-0.371,-0.3842,-0.4069,-0.4316,-0.4316,-0.4316,-0.4316,-0.4276,-0.4192,-0.4108,-0.3888,-0.384,-0.3928,-0.3836,-0.388,-0.3972,-0.4104,-0.4148,-0.4156,-0.4199,-0.426,-0.431,-0.4065,-0.41,-0.422,-0.4042,-0.4132,-0.4128,-0.3683,-0.313,-0.2691,-0.2691,-0.2018,-0.1626,-0.2523,-0.2691,-0.2691,-0.2691,-0.1962,-0.1682,-0.2579,-0.1962,-0.1289,-0.0954,-0.0898,-0.0898,-0.0898,-0.0898,-0.0898,-0.0898,0.028,0.129,0.1797,0.1797,0.1797,0.1797,0.1797,0.1797,0.1797,0.1999,0.2176,0.2121,0.221,0.2221,0.2221,0.2221,0.2221,-0.2485,-0.225,-0.2078,-0.1938,-0.1916,-0.1894,-0.1828,-0.1799,-0.1818,-0.1825,-0.1818,-0.1854,-0.2072,-0.1839,-0.1662,-0.1871,-0.1571,0.0,0.0,-0.1216,-0.1425,-0.2201,-0.242,-0.2394,-0.2146,-0.1982,-0.1907,-0.1924,-0.1795,-0.1772,-0.1901,-0.2297,-0.2473,-0.2404,-0.2652,-0.2882,-0.3105,-0.3105,-0.3142,-0.3208,-0.3208,-0.3208,-0.3208,-0.3216,-0.3372,-0.3702,-0.3706,-0.3947,-0.4316,-0.4316,-0.4316,-0.4276,-0.4148,-0.4192,-0.4272,-0.4276,-0.4192,-0.4108,-0.4108,-0.4108,-0.4108,-0.4232,-0.4272,-0.426,-0.3972,-0.3929,-0.39,-0.384,-0.3813,-0.385,-0.3987,-0.3796,-0.3627,-0.3627,-0.313,-0.2691,-0.2691,-0.2691,-0.2635,-0.2691,-0.2691,-0.2691,-0.2691,-0.2691,-0.2635,-0.2691,-0.2691,-0.2242,-0.1065,-0.0898,-0.0898,-0.0898,-0.0898,-0.0898,-0.0898,-0.0842,-0.0056,0.1685,0.1797,0.1797,0.1797,0.1797,0.1797,0.1797,0.1916,0.1997,0.1976,0.2116,0.2221,0.2221,0.2221,0.2221,-0.2459,-0.242,-0.242,-0.2118,-0.2202,-0.2285,-0.2004,-0.1938,-0.1938,-0.1938,-0.1938,-0.196,-0.2026,-0.1826,-0.1696,-0.175,-0.1505,-0.1269,0.0,-0.1126,-0.1231,-0.1596,-0.1757,-0.1759,-0.1588,-0.1618,-0.1647,-0.1695,-0.1653,-0.1708,-0.1887,-0.2125,-0.2316,-0.2531,-0.2698,-0.2931,-0.3175,-0.3175,-0.3175,-0.3208,-0.3208,-0.3208,-0.3208,-0.3208,-0.3342,-0.3573,-0.3573,-0.3777,-0.4105,-0.4105,-0.417,-0.4272,-0.4232,-0.4276,-0.4276,-0.41,-0.41,-0.4232,-0.4232,-0.4232,-0.4232,-0.4276,-0.4174,-0.4004,-0.3918,-0.3882,-0.3751,-0.3426,-0.3455,-0.3471,-0.3236,-0.3079,-0.3021,-0.3021,-0.2856,-0.2691,-0.2691,-0.2691,-0.2691,-0.2691,-0.2691,-0.2691,-0.2691,-0.2691,-0.2691,-0.2691,-0.2691,-0.2242,-0.1065,-0.0898,-0.0898,-0.0898,-0.0898,-0.0898,-0.0898,0.0224,0.1122,0.1741,0.1797,0.1797,0.1797,0.1797,0.1797,0.1797,0.194,0.202,0.1971,0.2114,0.2221,0.2221,0.2221,0.2221,-0.2697,-0.2659,-0.2616,-0.2294,-0.2376,-0.2437,-0.2118,-0.2034,-0.2034,-0.2034,-0.2008,-0.203,-0.2096,-0.1938,-0.1783,-0.168,-0.1487,-0.1268,0.0,-0.1112,-0.1176,-0.1154,-0.1313,-0.1434,-0.144,-0.1388,-0.1454,-0.1655,-0.1588,-0.1636,-0.1883,-0.2049,-0.2288,-0.2586,-0.2737,-0.294,-0.3208,-0.3208,-0.3208,-0.3208,-0.3208,-0.3208,-0.3208,-0.3208,-0.331,-0.3492,-0.3549,-0.3744,-0.402,-0.4081,-0.4174,-0.4316,-0.4316,-0.4316,-0.4276,-0.41,-0.4144,-0.4316,-0.4316,-0.4316,-0.4284,-0.417,-0.4035,-0.3859,-0.3675,-0.3577,-0.3456,-0.3074,-0.3028,-0.3081,-0.2802,-0.2691,-0.2691,-0.2691,-0.2691,-0.2691,-0.2691,-0.2691,-0.2691,-0.2691,-0.2691,-0.2691,-0.2691,-0.2691,-0.2691,-0.2691,-0.2691,-0.2354,-0.1345,-0.1009,-0.0898,-0.0898,-0.0898,-0.0617,0.0,0.1122,0.1797,0.1797,0.1797,0.1797,0.1797,0.1797,0.1797,0.1797,0.1939,0.2012,0.2012,0.2108,0.2221,0.2221,0.2221,0.2221]},{"header":{"parameterUnit":"m.s-1","parameterCategory":1,"la1":30.6,"la2":29.2853,"lo1":-89.7004,"lo2":-87.6739,"dy":0.0162,"dx":0.0183,"nx":112,"ny":82,"refTime":"2024-09-17T12:00:00:Z","depth":0,"parameterNumber":3,"parameterNumberName":"V-component_of_WINDS"},"data":[0.0,0.0,0.0,0.0,0.0,0.0,0.0,0.0,0.0,0.0,0.0,0.0,0.0,0.0,0.0,0.0,0.0,0.0,0.0,0.0,0.0,0.0,0.0,0.0,0.0,0.0,0.0,0.0,0.0,0.0,0.0,0.0,0.0,0.0,0.0,0.0,0.0,0.0,0.0,0.0,0.0,0.0,0.0,0.0,0.0,0.0,0.0,0.0,0.0,0.0,0.0,0.0,0.0,0.0,0.0,0.0,0.0,0.0,0.0,0.0,0.0,0.0,0.0,0.0,0.0,0.0,0.0,0.0,0.0,0.0,0.0,0.0,0.0,0.0,0.0,0.0,0.0,0.0,0.0,0.0,0.0,0.0,0.0,0.0,0.0,0.0,0.0,0.0,0.0,0.0,0.7174,0.9576,1.226,1.3872,1.3908,1.4374,1.3716,1.1528,0.0,0.0,0.0,0.0,0.0,0.0,0.0,0.0,0.0,0.0,0.0,0.0,0.0,0.0,0.0,0.0,0.0,0.0,0.0,0.0,0.0,0.0,0.0,0.0,0.0,0.0,0.0,0.0,0.0,0.0,0.0,0.0,0.0,0.0,0.0,0.0,0.0,0.0,0.0,0.0,0.0,0.0,0.0,0.0,0.0,0.0,0.0,0.0,0.0,0.0,0.0,0.0,0.0,0.0,0.0,0.0,0.0,0.0,0.0,0.0,0.0,0.0,0.0,0.0,0.0,0.0,0.0,0.0,0.0,0.0,0.0,0.0,0.0,0.0,0.0,0.0,0.0,0.0,0.0,0.0,0.0,0.0,0.0,0.0,0.0,0.0,0.0,0.0,0.0,0.0,0.0,0.0,0.0,0.0,0.0,0.0,0.0,0.0,0.0,0.0,0.0,0.0,0.0,0.0,0.6329,1.0507,1.2609,1.3814,1.3951,1.4761,1.4159,1.1563,0.0,0.0,0.0,0.0,0.0,0.0,0.0,0.0,0.0,0.0,0.0,0.0,0.0,0.0,0.0,0.0,0.0,0.0,0.0,0.0,0.0,0.0,0.0,0.0,0.0,0.0,0.0,0.0,0.0,0.0,0.0,0.0,0.0,0.0,0.0,0.0,0.0,0.0,0.0,0.0,0.0,0.0,0.0,0.0,0.0,0.0,0.0,0.0,0.0,0.0,0.0,0.0,0.0,0.0,0.0,0.0,0.0,0.0,0.0,0.0,0.0,0.0,0.0,0.0,0.0,0.0,0.0,0.0,0.0,0.0,0.0,0.0,0.0,0.0,0.0,0.0,0.0,0.0,0.0,0.0,0.0,0.0,0.0,0.0,0.0,0.0,0.0,0.0,0.0,0.0,0.0,0.0,0.0,0.0,0.0,0.0,0.0,0.0,0.0,0.0,0.0,0.0,0.0,0.54,0.7611,1.1482,1.2609,1.334,1.3949,1.4417,1.368,1.1281,1.0066,0.0,0.0,0.0,0.0,0.0,0.0,0.0,0.0,0.0,0.0,0.0,0.0,0.0,0.0,0.0,0.0,0.0,0.0,0.0,0.0,0.0,0.0,0.0,0.0,0.0,0.0,0.0,0.0,0.0,0.0,0.0,0.0,0.0,0.0,0.0,0.0,0.0,0.0,0.0,0.0,0.0,0.0,0.0,0.0,0.0,0.0,0.0,0.0,0.0,0.0,0.0,0.0,0.0,0.0,0.0,0.0,0.0,0.0,0.0,0.0,0.0,0.0,0.0,0.0,0.0,0.0,0.0,0.0,0.0,0.0,0.0,0.0,0.0,0.0,0.0,0.0,0.0,0.0,0.0,0.0,0.0,0.0,0.0,0.0,0.0,0.0,0.0,0.0,0.0,0.0,0.0,0.0,0.0,0.0,0.0,0.0,0.0,0.0,0.0,0.0,0.0,0.0,0.6504,0.8584,1.1664,1.2196,1.2715,1.3614,1.3738,1.2935,1.1022,0.9752,0.0,0.0,0.0,0.0,0.0,0.0,0.0,0.0,0.0,0.0,0.0,0.0,0.0,0.0,0.0,0.0,0.0,0.0,0.0,0.0,0.0,0.0,0.0,0.0,0.0,0.0,0.0,0.0,0.0,0.0,0.0,0.0,0.0,0.0,0.0,0.0,0.0,0.0,0.0,0.0,0.0,0.0,0.0,0.0,0.0,0.0,0.0,0.0,0.0,0.0,0.0,0.0,0.0,0.0,0.0,0.0,0.0,0.0,0.0,0.0,0.0,0.0,0.0,0.0,0.0,0.0,0.0,0.0,0.0,0.0,0.0,0.0,0.0,0.0,0.0,0.0,0.0,0.0,0.0,0.0,0.0,0.0,0.0,0.0,0.0,0.0,0.0,0.0,0.0,0.0,0.0,0.0,0.0,0.0,0.0,0.0,0.0,0.0,0.0,0.0,0.0,0.0,0.5524,0.7794,1.0213,1.1188,1.1952,1.2725,1.2728,1.2194,1.0978,0.9139,0.0,0.0,0.0,0.0,0.0,0.0,0.0,0.0,0.0,0.0,0.0,0.0,0.0,0.0,0.0,0.0,0.0,0.0,0.0,0.0,0.0,0.0,0.0,0.0,0.0,0.0,0.0,0.0,0.0,0.0,0.0,0.0,0.0,0.0,0.0,0.0,0.0,0.0,0.0,0.0,0.0,0.0,0.0,0.0,0.0,0.0,0.0,0.0,0.0,0.0,0.0,0.0,0.0,0.0,0.0,0.0,0.0,0.0,0.0,0.0,0.0,0.0,0.0,0.0,0.0,0.0,0.0,0.0,0.0,0.0,0.0,0.0,0.0,0.0,0.0,0.0,0.0,0.0,0.0,0.0,0.0,0.0,0.0,0.0,0.0,0.0,0.0,0.0,0.0,0.0,0.0,0.0,0.0,0.0,0.0,0.0,0.0,0.0,0.0,0.0,0.0,0.0,0.4563,0.6877,1.0147,1.0487,1.1094,1.263,1.247,1.1794,1.0655,0.0,0.0,0.0,0.0,0.0,0.0,0.0,0.0,0.0,0.0,0.0,0.0,0.0,0.0,0.0,0.0,0.0,0.0,0.0,0.0,0.0,0.0,0.0,0.0,0.0,0.0,0.0,0.0,0.0,0.0,0.0,0.0,0.0,0.0,0.0,0.0,0.0,0.0,0.0,0.0,0.0,0.0,0.0,0.0,0.0,0.0,0.0,0.0,0.0,0.0,0.0,0.0,0.0,0.0,0.0,0.0,0.0,0.0,0.0,0.0,0.0,0.0,0.0,0.0,0.0,0.0,0.0,0.0,0.0,0.0,0.0,0.0,0.0,0.0,0.0,0.0,0.0,0.0,0.0,0.0,0.0,0.0,0.0,0.0,0.0,0.0,0.0,0.0,0.0,0.0,0.0,0.0,0.0,0.0,0.0,0.0,0.0,0.0,0.0,0.0,0.0,0.0,0.2453,0.4316,0.6719,0.9812,1.011,1.0825,1.253,1.2026,1.1345,1.0654,0.0,0.0,0.0,0.0,0.0,0.0,0.0,0.0,0.0,0.0,0.0,0.0,0.0,0.0,0.0,0.0,0.0,0.0,0.0,0.0,0.0,0.0,0.0,0.0,0.0,0.0,0.0,0.0,0.0,0.0,0.0,0.0,0.0,0.0,0.0,0.0,0.0,0.0,0.0,0.0,0.0,0.0,0.0,0.0,0.0,0.0,0.0,0.0,0.0,0.0,0.0,0.0,0.0,0.0,0.0,0.0,0.0,0.0,0.0,0.0,0.0,0.0,0.0,0.0,0.0,0.0,0.0,0.0,0.0,0.0,0.0,0.0,0.0,0.0,0.0,0.0,0.0,0.0,0.0,0.0,0.0,0.0,0.0,0.0,0.0,0.0,0.0,0.0,0.0,0.0,0.0,0.0,0.0,0.0,0.0,0.0,0.0,0.0,0.0,0.0,0.0,0.0,0.2146,0.4948,0.7473,0.8957,1.0117,1.1232,1.2301,1.1299,1.0743,0.0,0.0,0.0,0.0,0.0,0.0,0.0,0.0,0.0,0.0,0.0,0.0,0.0,0.0,0.0,0.0,0.0,0.0,0.0,0.0,0.0,0.0,0.0,0.0,0.0,0.0,0.0,0.0,0.0,0.0,0.0,0.0,0.0,0.0,0.0,0.0,0.0,0.0,0.0,0.0,0.0,0.0,0.0,0.0,0.0,0.0,0.0,0.0,0.0,0.0,0.0,0.0,0.0,0.0,0.0,0.0,0.0,0.0,0.0,0.0,0.0,0.0,0.0,0.0,0.0,0.0,0.0,0.0,0.0,0.0,0.0,0.0,0.0,0.0,0.0,0.0,0.0,0.0,0.0,0.0,0.0,0.0,0.0,0.0,0.0,0.0,0.0,0.0,0.0,0.0,0.0,0.0,0.0,0.0,0.0,0.0,0.0,0.0,0.0,0.0,0.0,0.0,0.0,0.2461,0.498,0.7424,0.9315,1.0217,1.1164,1.2434,1.1483,1.0814,1.0819,0.0,0.0,0.0,0.0,0.0,0.0,0.0,0.0,0.0,0.0,0.0,0.0,0.0,0.0,0.0,0.0,0.0,0.0,0.0,0.0,0.0,0.0,0.0,0.0,0.0,0.0,0.0,0.0,0.0,0.0,0.0,0.0,0.0,0.0,0.0,0.0,0.0,0.0,0.0,0.0,0.0,0.0,0.0,0.0,0.0,0.0,0.0,0.0,0.0,0.0,0.0,0.0,0.0,0.0,0.0,0.0,0.0,0.0,0.0,0.0,0.0,0.0,0.0,0.0,0.0,0.0,0.0,0.0,0.0,0.0,0.0,0.0,0.0,0.0,0.0,0.0,0.0,0.0,0.0,0.0,0.0,0.0,0.0,0.0,0.0,0.0,0.0,0.0,0.0,0.0,0.0,0.0,0.0,0.0,0.0,0.0,0.0,0.0,0.0,0.0,0.0,0.0,0.2229,0.5095,0.7688,0.9302,1.0409,1.1498,1.2606,1.1658,1.1028,1.1062,0.0,0.0,0.0,0.0,0.0,0.0,0.0,0.0,0.0,0.0,0.0,0.0,0.0,0.0,0.0,0.0,0.0,0.0,0.0,0.0,0.0,0.0,0.0,0.0,0.0,0.0,0.0,0.0,0.0,0.0,0.0,0.0,0.0,0.0,0.0,0.0,0.0,0.0,0.0,0.0,0.0,0.0,0.0,0.0,0.0,0.0,0.0,0.0,0.0,0.0,0.0,0.0,0.0,0.0,0.0,0.0,0.0,0.0,0.0,0.0,0.0,0.0,0.0,0.0,0.0,0.0,0.0,0.0,0.0,0.0,0.0,0.0,0.0,0.0,0.0,0.0,0.0,0.0,0.0,0.0,0.0,0.0,0.0,0.0,0.0,0.0,0.0,0.0,0.0,0.0,0.0,0.0,0.0,0.0,0.0,0.0,0.0,0.0,0.0,0.0,0.0,0.0,0.1793,0.5315,0.819,0.9113,1.0713,1.203,1.2827,1.1911,1.1386,1.157,0.0,0.0,0.0,0.0,0.0,0.0,0.0,0.0,0.0,0.0,0.0,0.0,0.0,0.0,0.0,0.0,0.0,0.0,0.0,0.0,0.0,0.0,0.0,0.0,0.0,0.0,0.0,0.0,0.0,0.0,0.0,0.0,0.0,0.0,0.0,0.0,0.0,0.0,0.0,0.0,0.0,0.0,0.0,0.0,0.0,0.0,0.0,0.0,0.0,0.0,0.0,0.0,0.0,0.0,0.0,0.0,0.0,0.0,0.0,0.0,-0.1372,-0.1615,0.0,0.0,0.0,0.0,0.0,0.0,0.0,0.0,0.0,0.0,0.0,0.0,0.0,0.0,0.0,0.0,0.0,0.0,0.0,0.0,0.0,0.0,0.0,0.0,0.0,0.0,0.0,0.0,0.0,0.0,0.0,0.0,0.0,0.0,0.0,0.0,0.0,0.0,0.0,0.0,0.2394,0.5694,0.8498,0.9902,1.1142,1.2128,1.2773,1.2415,1.1944,1.1459,0.9893,0.0,0.0,0.0,0.0,0.0,0.0,0.0,0.0,0.0,0.0,0.0,0.0,0.0,0.0,0.0,0.0,0.0,0.0,0.0,0.0,0.0,0.0,0.0,0.0,0.0,0.0,0.0,0.0,0.0,0.0,0.0,0.0,0.0,0.0,0.0,0.0,0.0,0.0,0.0,0.0,0.0,0.0,0.0,0.0,0.0,0.0,0.0,0.0,0.0,0.0,0.0,0.0,0.0,0.0,0.0,0.0,0.0,0.0,0.0,-0.1887,-0.1856,0.0,0.0,0.0,0.0,0.0,0.0,0.0,0.0,0.0,0.0,0.0,0.0,0.0,0.0,0.0,0.0,0.0,0.0,0.0,0.0,0.0,0.0,0.0,0.0,0.0,0.0,0.0,0.0,0.0,0.0,0.0,0.0,0.0,0.0,0.0,0.0,0.0,0.0,0.0,0.0,0.2384,0.5459,0.8275,1.0149,1.1269,1.2123,1.2695,1.2439,1.2018,1.1471,1.0125,0.0,0.0,0.0,0.0,0.0,0.0,0.0,0.0,0.0,0.0,0.0,0.0,0.0,0.0,0.0,0.0,0.0,0.0,0.0,0.0,0.0,0.0,0.0,0.0,0.0,0.0,0.0,0.0,0.0,0.0,0.0,0.0,0.0,0.0,0.0,0.0,0.0,0.0,0.0,0.0,0.0,0.0,0.0,0.0,0.0,0.0,0.0,0.0,0.0,0.0,0.0,0.0,0.0,-0.3785,-0.3796,-0.4266,-0.3913,-0.3662,-0.3482,-0.2785,-0.2488,-0.2476,-0.3077,0.0,0.0,0.0,0.0,0.0,0.0,0.0,0.0,0.0,0.0,0.0,0.0,0.0,0.0,0.0,0.0,0.0,0.0,0.0,0.0,0.0,0.0,-0.5245,-0.6085,-0.5892,-0.5171,-0.4057,0.0,0.0,0.0,0.0,0.0,0.0,0.0,0.0,0.0,0.0,0.0,0.2455,0.525,0.7976,1.0272,1.135,1.2118,1.2646,1.2438,1.212,1.1694,1.0475,0.9402,0.0,0.0,0.0,0.0,0.0,0.0,0.0,0.0,0.0,0.0,0.0,0.0,0.0,0.0,0.0,0.0,0.0,0.0,0.0,0.0,0.0,0.0,0.0,0.0,0.0,0.0,0.0,0.0,0.0,0.0,0.0,0.0,-0.2868,-0.3107,0.0,0.0,0.0,0.0,0.0,0.0,0.0,0.0,0.0,0.0,0.0,0.0,0.0,-0.498,-0.571,-0.5119,-0.4873,-0.4979,-0.4101,-0.3713,-0.3763,-0.3332,-0.3406,-0.3937,-0.4361,0.0,-0.3027,-0.357,0.0,0.0,0.0,0.0,0.0,0.0,0.0,0.0,0.0,0.0,0.0,0.0,0.0,0.0,0.0,0.0,0.0,0.0,0.0,0.0,0.0,0.0,-0.695,-0.6355,-0.6219,-0.618,-0.5895,-0.5282,-0.4713,-0.4411,-0.3454,-0.2878,0.0,0.0,0.0,0.0,0.0,0.0,0.3602,0.5799,0.81,1.0725,1.1542,1.2097,1.2572,1.2936,1.2918,1.2401,1.2186,1.1395,0.9916,0.8968,0.0,0.0,0.0,0.0,0.0,0.0,0.0,0.0,0.0,0.0,0.0,0.0,0.0,0.0,0.0,0.0,0.0,0.0,0.0,0.0,0.0,0.0,0.0,0.0,0.0,0.0,0.0,0.0,0.0,-0.3437,-0.3875,-0.4368,-0.4615,-0.4669,0.0,0.0,0.0,0.0,0.0,0.0,0.0,0.0,0.0,-0.6436,-0.6255,-0.6308,-0.6589,-0.5964,-0.5884,-0.6329,-0.5379,-0.5269,-0.5899,-0.5424,-0.5544,-0.6058,-0.6297,-0.6071,-0.5484,-0.5681,-0.5791,-0.5874,0.0,0.0,0.0,0.0,-0.7574,-0.8081,-0.8246,-0.8469,-0.8612,-0.8299,0.0,0.0,0.0,0.0,0.0,0.0,0.0,-0.8912,-0.8832,-0.8987,-0.9018,-0.8321,-0.8207,-0.8222,-0.8123,-0.7383,-0.6379,-0.5169,-0.416,-0.3609,-0.3967,-0.2832,0.0,0.0,0.0,0.1227,0.4353,0.5855,0.7929,1.1242,1.1672,1.1946,1.2431,1.2815,1.279,1.2243,1.2329,1.1881,1.0709,0.9614,0.8657,0.0,0.0,0.0,0.0,0.0,0.0,0.0,0.0,0.0,0.0,0.0,0.0,0.0,0.0,0.0,0.0,0.0,0.0,0.0,0.0,0.0,0.0,0.0,0.0,0.0,0.0,0.0,0.0,-0.4644,-0.5193,-0.5537,-0.5965,-0.6116,0.0,0.0,0.0,0.0,0.0,0.0,-0.7314,-0.7327,-0.756,-0.8164,-0.7936,-0.7775,-0.7756,-0.716,-0.7236,-0.7988,-0.6971,-0.705,-0.8011,-0.7609,-0.765,-0.8051,-0.8351,-0.8434,-0.8362,-0.766,-0.7465,-0.7694,-0.8149,-0.8361,-0.8548,-0.9244,-0.9545,-0.9676,-1.0117,-1.0332,-1.0341,-1.0004,-0.9865,-0.9851,-1.005,0.0,0.0,0.0,0.0,-1.0952,-1.0824,-1.0954,-1.0995,-1.0432,-1.0321,-1.0341,-1.0195,-0.956,-0.8424,-0.6432,-0.5335,-0.4685,-0.4414,-0.2983,0.0,-0.2047,-0.0295,0.216,0.5211,0.6557,0.8492,1.1863,1.1914,1.1963,1.2588,1.2735,1.2624,1.224,1.2388,1.21,1.1208,1.0331,0.9417,0.8451,0.0,0.0,0.0,0.0,0.0,0.0,0.0,0.0,0.0,0.0,0.0,0.0,0.0,0.0,0.0,0.0,0.0,0.0,0.0,0.0,0.0,0.0,0.0,0.0,0.0,0.0,0.0,0.0,0.0,-0.6147,-0.7469,0.0,0.0,0.0,0.0,-0.8337,-0.903,-0.9593,-1.0,-0.9826,-0.9901,-1.0327,-0.9707,-0.9512,-0.9829,-0.92,-0.9209,-0.9858,-0.8713,-0.8544,-0.9199,-0.8723,-0.8771,-0.9277,-1.0341,-1.103,-1.1202,-0.8752,-0.7982,-0.8398,-0.8928,-0.9359,-0.9782,-1.0387,-1.0546,-1.049,-1.0836,-1.096,-1.102,-1.1379,-1.1359,-1.1236,-1.1429,-1.1038,0.0,0.0,-1.1926,-1.2263,-1.214,-1.2498,-1.2714,-1.2047,-1.2035,-1.2083,-1.1748,-1.162,-1.0873,-0.8742,-0.7081,-0.5745,-0.4928,0.0,-0.232,-0.058,0.1594,0.3953,0.6395,0.8477,1.0522,1.2637,1.2397,1.2405,1.3202,1.2967,1.2797,1.2753,1.2947,1.2565,1.1434,1.1205,1.0371,0.8811,0.791,0.0,0.0,0.0,0.0,0.0,0.0,0.0,0.0,0.0,0.0,0.0,0.0,0.0,0.0,0.0,0.0,0.0,0.0,0.0,0.0,0.0,0.0,0.0,0.0,0.0,0.0,0.0,0.0,-0.9747,-1.0773,0.0,-1.0723,-1.102,-1.1298,-1.1454,-1.1622,-1.198,-1.2601,-1.2279,-1.2308,-1.273,-1.2216,-1.2011,-1.2119,-1.1575,-1.1575,-1.2119,-1.1122,-1.1111,-1.1861,-1.1159,-1.1118,-1.1547,-1.1761,-1.1903,-1.1999,-1.163,-1.1251,-1.0912,-1.1114,-1.1415,-1.1765,-1.1972,-1.2437,-1.294,-1.308,-1.3404,-1.3739,-1.3471,-1.3456,-1.3571,-1.3629,-1.3594,-1.3572,-1.3828,-1.4055,-1.4179,-1.4137,-1.4362,-1.4439,-1.3773,-1.3507,-1.3293,-1.2923,-1.2095,-1.1289,-1.0673,-0.8693,-0.6591,-0.4893,-0.322,-0.16,-0.0174,0.2315,0.4848,0.7131,0.9084,1.1051,1.326,1.3236,1.308,1.3099,1.3315,1.3242,1.2773,1.2516,1.219,1.1742,1.0555,0.9653,0.9065,0.8078,0.6998,0.0,0.0,0.0,0.0,0.0,0.0,0.0,0.0,0.0,0.0,0.0,0.0,0.0,0.0,0.0,0.0,0.0,0.0,0.0,0.0,0.0,0.0,0.0,0.0,0.0,-1.0416,-1.1627,-1.26,-1.3528,-1.3986,-1.3629,-1.3715,-1.3834,-1.3983,-1.409,-1.4356,-1.4872,-1.4634,-1.4589,-1.4905,-1.4377,-1.4114,-1.4114,-1.3565,-1.3565,-1.4114,-1.329,-1.3322,-1.4084,-1.356,-1.351,-1.3799,-1.3776,-1.3789,-1.3871,-1.4363,-1.427,-1.3757,-1.3551,-1.3597,-1.3875,-1.4055,-1.4396,-1.4787,-1.4857,-1.5048,-1.5212,-1.4834,-1.4815,-1.4981,-1.5076,-1.5151,-1.5256,-1.536,-1.5301,-1.5226,-1.5226,-1.5301,-1.5271,-1.4825,-1.4578,-1.4351,-1.3848,-1.3082,-1.2342,-1.1793,-0.991,-0.7508,-0.4829,-0.3239,-0.1651,0.0426,0.3566,0.6206,0.7677,1.0077,1.2268,1.3988,1.3953,1.3708,1.349,1.3549,1.3318,1.2713,1.2131,1.1742,1.1588,1.0138,0.9199,0.8907,0.7782,0.6984,0.6573,0.0,0.0,0.0,0.0,0.0,0.0,0.0,0.0,0.0,0.0,0.0,0.0,0.0,0.0,0.0,0.0,0.0,0.0,0.0,0.0,0.0,0.0,0.0,-1.0956,-1.304,-1.4543,-1.4437,-1.5611,-1.5973,-1.4876,-1.5644,-1.6118,-1.5929,-1.6448,-1.6808,-1.6792,-1.6767,-1.6759,-1.6759,-1.6101,-1.576,-1.576,-1.5116,-1.5116,-1.576,-1.5116,-1.5143,-1.5785,-1.576,-1.5796,-1.5908,-1.6474,-1.6767,-1.6824,-1.6792,-1.6759,-1.6669,-1.5993,-1.5821,-1.5991,-1.6536,-1.6308,-1.578,-1.598,-1.5762,-1.5359,-1.5359,-1.5374,-1.5419,-1.5665,-1.555,-1.5374,-1.5651,-1.5521,-1.5329,-1.5329,-1.5225,-1.5134,-1.5134,-1.5255,-1.5209,-1.4574,-1.4637,-1.4187,-1.2141,-1.0723,-0.8591,-0.4777,-0.3925,-0.2487,0.1374,0.5396,0.0,0.8116,1.157,1.4246,1.4814,1.4486,1.4254,1.4388,1.3667,1.304,1.2639,1.1833,1.1257,1.099,1.0081,0.9191,0.8321,0.7107,0.6814,0.7487,0.0,0.0,0.0,0.0,0.0,0.0,0.0,0.0,0.0,0.0,0.0,0.0,0.0,0.0,0.0,0.0,0.0,0.0,0.0,0.0,0.0,-1.2552,-1.3775,-1.3716,-1.5293,-1.6674,-1.7265,-1.8089,-1.8541,-1.8316,-1.8497,-1.8602,-1.8562,-1.8796,-1.8931,-1.8874,-1.8413,-1.8138,-1.8138,-1.7466,-1.71,-1.7146,-1.6917,-1.6917,-1.7146,-1.6894,-1.7013,-1.7348,-1.6961,-1.697,-1.7307,-1.7088,-1.7071,-1.7282,-1.7842,-1.775,-1.7226,-1.6645,-1.6604,-1.6857,-1.7001,-1.708,-1.7087,-1.7129,-1.7084,-1.6963,-1.6963,-1.6856,-1.6763,-1.6838,-1.6365,-1.5836,-1.5905,-1.5836,-1.5724,-1.5724,-1.5853,-1.5909,-1.5724,-1.5507,-1.5315,-1.5271,-1.4857,-1.4132,-1.2814,-1.2755,-1.0966,-0.4907,-0.3837,-0.1744,0.4288,0.6781,0.8758,1.0855,1.3188,1.4596,1.4465,1.4449,1.4428,1.4475,1.3684,1.3031,1.2636,1.1628,1.0913,1.0651,0.9745,0.9023,0.8595,0.8437,0.7955,0.0,0.0,0.0,0.0,0.0,0.0,0.0,0.0,0.0,0.0,0.0,0.0,0.0,0.0,0.0,0.0,0.0,0.0,0.0,0.0,0.0,0.0,-1.452,-1.5996,-1.6539,-1.7351,-1.8276,-1.9216,-1.9672,-1.9912,-1.9873,-1.9858,-1.9799,-1.9656,-1.9738,-1.9775,-1.9694,-1.9364,-1.9158,-1.9107,-1.8735,-1.8548,-1.8591,-1.8539,-1.8539,-1.8572,-1.8538,-1.8605,-1.8745,-1.8429,-1.8441,-1.8673,-1.8361,-1.8308,-1.8441,-1.8916,-1.8849,-1.8413,0.0,0.0,0.0,0.0,-1.8044,-1.7948,-1.8023,-1.7859,-1.7603,-1.7603,-1.7507,-1.7409,-1.7546,-1.7109,-1.6616,-1.6754,-1.6668,-1.6528,-1.6528,-1.6374,-1.6254,-1.6423,-1.5988,-1.565,-1.5952,-1.5652,-1.4615,-1.2255,-1.2095,0.0,-0.3817,-0.3839,-0.2172,0.5374,0.7711,0.9469,1.1994,1.4116,1.5183,1.4641,1.4895,1.5038,1.4932,1.4085,0.0,0.0,0.0,1.0768,1.0152,0.9546,0.0,0.0,0.0,0.0,0.0,0.0,0.0,0.0,0.8186,0.7972,0.0,0.0,0.0,0.0,0.0,0.0,0.0,0.0,0.0,0.0,0.0,0.0,0.0,0.0,0.0,0.0,-1.647,-1.7767,-1.9021,-1.9076,-1.9376,-2.036,-2.0505,-2.0406,-2.0171,-2.0194,-2.0109,-1.9791,-1.9836,-1.9843,-1.9777,-1.9817,0.0,0.0,0.0,-1.9792,-1.9798,-1.9804,-1.9797,-1.9811,-1.98,-1.981,-1.9821,-1.9802,-1.9821,-1.9869,-1.9841,-1.985,-1.9878,-1.9869,-1.9859,-1.9808,-1.9563,-1.9328,-1.9182,-1.9368,-1.9052,-1.8555,-1.8746,0.0,0.0,-1.7838,-1.7723,-1.7664,-1.7966,-1.7742,-1.7452,-1.7732,-1.7597,-1.7358,-1.7358,-1.6786,-1.6354,-1.6979,-1.6527,-1.6115,-1.6566,-1.6387,-1.4977,-1.1132,-1.0027,-0.7784,-0.1708,-0.3309,-0.2601,0.5753,0.8368,1.0211,1.2502,1.4743,1.5823,1.5015,1.5463,0.0,1.5571,1.4711,1.4117,1.3923,1.2411,1.1073,1.0062,0.9913,0.977,0.9603,0.984,1.0459,1.1411,1.1815,1.2129,1.2294,0.9967,0.9778,0.0,0.0,0.0,0.0,0.0,0.0,0.0,0.0,0.0,0.0,0.0,0.0,0.0,0.0,0.0,-1.6466,-1.7572,-1.8542,-1.9611,-1.9678,-1.9819,-2.0365,-2.0465,-2.0487,-2.0428,-2.0426,-2.039,-2.0271,-2.0328,-2.0343,-2.0273,-2.0126,-2.0039,-2.0012,-1.9834,-1.9759,-1.9799,-1.9799,-1.9797,-1.9804,-1.9804,0.0,-1.9967,-1.9794,-1.9924,-2.0265,-2.0107,-2.0133,-2.0289,-2.0285,-2.0191,-2.0017,-1.9808,-1.9663,-1.9582,-1.9632,-1.9563,-1.9449,-1.9482,-1.9412,-1.9281,-1.9281,-1.8856,-1.8321,-1.8376,-1.7859,0.0,-1.7325,-1.7261,-1.7166,-1.7166,-1.7028,-1.6863,-1.6749,-1.6582,-1.6591,-1.7075,-1.4999,-1.2622,-1.1226,-0.9649,-0.613,0.1361,0.02,0.0911,0.8866,0.9669,1.0958,1.5289,1.6143,1.586,1.4662,1.4916,1.5357,1.586,1.5145,1.4671,1.4686,1.3477,1.2704,1.2602,1.2647,1.2502,1.2036,1.2606,1.2643,1.2173,1.3006,1.3598,1.3919,1.2891,1.2263,0.0,0.0,0.0,0.0,0.0,0.0,0.0,0.0,0.0,0.0,0.0,-1.2549,-1.3522,0.0,-1.5991,-1.7509,-1.8319,-1.9031,-1.9831,-1.9805,-1.9863,-2.0292,-2.0376,-2.0402,-2.0458,-2.0472,-2.0434,-2.0258,-2.0274,-2.023,-2.0065,-2.0076,-2.0098,-2.0109,-2.0094,-2.0097,-2.009,-2.0091,-2.0096,-2.01,-2.01,-2.0145,-2.0194,-2.0108,-2.0173,-2.0386,-2.0292,-2.0311,-2.0403,-2.0405,-2.035,-2.0247,-2.0138,-1.9969,-1.9771,-1.9896,-1.9873,-1.9749,-1.9878,-1.982,-1.9715,-1.9715,-1.9419,-1.9058,-1.9119,-1.8776,-1.8359,-1.8427,-1.8252,-1.8056,-1.8056,-1.7633,-1.7243,-1.749,-1.5939,-1.4561,-1.5162,-1.2609,-0.9179,-0.5714,-0.4165,-0.1205,0.5848,0.5937,0.687,1.2248,1.2643,1.3493,1.6607,1.7103,1.6645,1.5152,1.536,1.5734,1.6062,1.5542,1.5105,1.4917,1.4107,1.3713,1.3828,1.365,1.3454,1.3252,1.358,1.3616,1.3342,1.3994,1.4483,1.4848,1.4668,1.429,0.0,0.0,0.0,0.0,0.0,0.0,0.0,-1.0342,-1.1464,-1.2131,-1.3362,-1.4606,-1.5594,-1.6289,-1.7092,-1.831,-1.8867,-1.935,-1.9824,-1.9593,-1.956,-2.0105,-2.0227,-2.0244,-2.0121,-2.0314,-2.0361,-2.0106,-2.0081,-1.9973,-1.9735,-1.9915,-2.0032,-2.0046,-2.0238,-2.0313,-2.0258,-2.0285,-2.0282,-2.0266,-2.0276,-2.0276,-2.0266,-2.0263,-2.0263,-2.0263,-2.026,-2.026,-2.0266,-2.0266,-2.0277,-2.0274,-2.0289,-2.0111,-1.9912,-2.0155,-2.0095,-1.9946,-2.01,-2.0024,-1.9831,-1.984,-1.9764,-1.9707,-1.9801,-1.9678,-1.952,-1.9639,-1.9381,-1.9096,-1.9096,-1.8378,-1.762,-1.7602,-1.4954,-1.2384,-1.2321,-0.9163,-0.4884,0.0093,0.2191,0.4917,1.0463,1.1597,1.253,1.4869,1.5279,1.5792,1.7154,1.7717,1.7406,1.5849,1.6093,1.6398,1.649,1.6158,1.5783,1.5389,1.494,1.4698,1.4772,1.4308,1.4091,1.4199,1.4199,1.4305,1.4585,1.4907,1.5203,1.5492,1.5812,1.574,-0.9968,-1.0049,-0.9737,-0.927,-1.0364,-1.1092,0.0,-1.1632,-1.3368,-1.0902,-1.3067,-1.5757,-1.687,-1.731,-1.7848,-1.8999,-1.9335,-1.9472,-1.954,-1.8907,-1.8746,-1.9575,-1.9984,-1.9908,-1.9135,-1.9838,-2.0237,-2.0031,-2.0009,-1.9938,-1.9807,-1.976,-1.9774,-1.9825,-1.9794,-1.9785,-1.977,-1.9841,-1.9831,-1.9785,-1.9842,-1.9842,-1.9785,-1.9774,-1.9774,-1.9785,-1.9793,-1.9774,-1.9785,-1.9785,-1.9811,-1.9875,-1.9882,-1.9979,-2.0165,-2.0312,-2.0364,-2.0346,-2.0368,-2.0347,-2.032,-2.0311,-2.0152,-1.9951,-1.9962,-1.9759,-1.949,-1.952,-1.9475,-1.9449,-1.9449,-1.9126,-1.8037,-1.5025,-1.3752,-1.2375,-0.9397,-0.4024,0.0432,0.1142,0.5913,1.0868,1.4093,1.4703,1.4853,1.523,1.5309,1.5812,1.7194,1.7742,1.7468,1.6095,1.6549,1.7093,1.7486,1.7342,1.7164,1.7042,1.66,1.6281,1.6191,1.5894,1.5672,1.5589,1.5589,1.559,1.5621,1.5918,1.6071,1.612,1.6367,1.6246,-0.8397,-0.9767,-1.0929,-0.9021,-1.091,-1.3024,-1.2307,-1.3664,-1.4841,-1.4047,-1.5548,-1.7213,-1.7866,-1.8108,-1.8396,-1.9063,-1.9198,-1.9259,-1.9361,-1.9081,-1.8865,-1.8838,-1.9418,-1.9728,-1.9564,-1.9476,-1.9545,-1.9863,-1.9809,-1.9688,-1.9526,-1.9513,-1.9535,-1.9574,-1.9645,-1.9715,-1.9715,-1.973,-1.9719,-1.971,-1.972,-1.9569,-1.9298,-1.9285,-1.923,-1.9128,-1.9128,-1.9207,-1.9351,-1.9345,-1.9375,-1.9395,-1.9432,-1.953,-1.9688,-2.0167,-2.0398,-2.0469,-2.0467,-2.043,-2.0408,-2.0402,-2.0357,-2.0293,-2.0289,-2.0188,-2.0091,-2.0123,-1.9967,-1.978,-1.9793,-1.7106,-1.4302,-1.3949,-0.9654,-0.5121,-0.3104,0.1022,0.532,0.8737,1.1576,1.4386,1.7329,1.7851,1.7898,1.7972,1.7611,1.7483,1.7929,1.7866,1.7462,1.6674,1.6773,1.6977,1.7288,1.7142,1.7109,1.7175,1.6701,1.6409,1.6398,1.6163,1.6052,1.6024,1.6191,1.6274,1.6274,1.6382,1.6421,1.6436,1.6543,1.649,-0.7814,-0.9563,-1.1446,-0.9591,-1.1797,-1.4537,-1.4805,-1.5449,-1.6134,-1.6752,-1.7417,-1.8009,-1.8385,-1.8487,-1.8641,-1.9019,-1.9036,-1.9052,-1.9214,-1.9044,-1.8816,-1.8554,-1.8652,-1.8984,-1.9656,-1.9287,-1.9122,-1.9475,-1.9471,-1.932,-1.9081,-1.9191,-1.9234,-1.9219,-1.929,-1.9396,-1.9537,-1.9253,-1.9206,-1.9337,-1.9191,-1.895,-1.8616,-1.8616,-1.8533,-1.8396,-1.8395,-1.8519,-1.8676,-1.8759,-1.8808,-1.884,-1.8974,-1.9081,-1.9217,-1.9773,-2.0081,-2.0276,-2.0383,-2.0382,-2.0339,-2.0334,-2.0371,-2.0412,-2.0378,-2.0399,-2.0458,-2.0505,-1.9219,-1.7812,-1.7812,-1.3383,-0.8925,-0.9072,-0.3939,0.1534,0.3488,0.6534,1.0159,1.4415,1.5923,1.7205,1.9364,1.977,1.9788,1.9738,1.9139,1.8645,1.8447,1.791,1.7426,1.7175,1.7068,1.7043,1.7126,1.7018,1.6984,1.7108,1.6675,1.649,1.6543,1.6328,1.6246,1.6313,1.6501,1.6596,1.6596,1.6659,1.6738,1.6815,1.6892,1.6952,-1.027,-1.1122,-1.2355,-1.3062,-1.4296,-1.5467,-1.5938,-1.6626,-1.7223,-1.7516,-1.7595,-1.7755,-1.8229,-1.831,-1.8469,-1.8931,-1.8984,-1.9018,-1.9087,-1.8433,-1.8216,-1.8977,-1.7724,-1.7379,-1.8885,-1.9291,-1.9273,-1.8771,-1.8911,-1.8877,-1.8544,-1.8716,-1.8807,-1.8824,-1.8571,-1.8663,-1.912,-1.8151,-1.7927,-1.8439,-1.7906,-1.7652,-1.7635,-1.7635,-1.7652,-1.763,-1.763,-1.7652,-1.7674,-1.7924,-1.8066,-1.8168,-1.8492,-1.8788,-1.9023,-1.9099,-1.9345,-1.9688,-2.0065,-2.0212,-2.0215,-2.0209,-2.0212,-2.0179,-2.0041,-2.0147,-2.0312,-2.0305,-1.6463,-1.2336,-1.2345,-0.7863,-0.2273,0.1962,0.3486,0.5172,0.9554,1.2838,1.5011,1.5252,1.7607,1.9617,1.9763,1.9795,1.9694,1.9364,1.8801,1.8429,1.8503,1.7864,1.7432,1.7462,1.7526,1.7549,1.7486,1.7361,1.7248,1.7199,1.6924,1.6799,1.6876,1.6617,1.6528,1.6596,1.6596,1.6596,1.6596,1.6866,1.7117,1.7384,1.7635,1.7866,-1.1652,-1.268,-1.3629,-1.4289,-1.5263,-1.614,-1.6472,-1.6765,-1.7018,-1.7353,-1.7188,-1.7076,-1.7325,-1.76,-1.7842,-1.8037,-1.8555,-1.8913,-1.8843,-1.8749,-1.8764,-1.8878,-1.8412,-1.8235,-1.8625,-1.8526,-1.8575,-1.8872,-1.8875,-1.7381,-1.396,-1.6885,-1.5644,-0.9069,-1.494,-1.6689,-1.3559,-1.6249,-1.7691,-1.7826,-1.399,-1.0365,-0.7159,-1.0273,-0.9934,-0.7028,-1.0431,-1.0097,-0.7194,-0.7282,-0.7358,-0.7445,-0.7596,-0.9877,-1.3136,-1.3323,-1.5719,-1.8957,-1.9585,-1.9791,-1.9839,-2.0003,-2.0068,-2.0071,-2.0068,-1.7547,-1.467,-1.471,-1.0768,-0.6532,-0.6538,-0.172,0.3209,0.3444,0.6994,1.0971,1.3336,1.463,1.5943,1.8023,1.9211,1.9907,1.9935,1.9922,1.9676,1.8899,1.8556,1.8266,1.7898,1.7771,1.7726,1.7641,1.7595,1.7542,1.7361,1.7321,1.7306,1.7273,1.7183,1.7076,1.6926,1.7027,1.7027,1.6866,1.7075,1.7216,1.7216,1.7472,1.7641,1.7749,1.7997,1.8146,-1.2438,-1.3337,-1.3929,-1.486,-1.5634,-1.627,-1.6554,-1.6712,-1.6827,-1.688,-1.6736,-1.6576,-1.6484,-1.6685,-1.7011,-1.7523,-1.8021,-1.8449,-1.8662,-1.8861,-1.8878,-1.8714,-1.8695,-1.8601,-1.8408,-1.8181,-1.8199,-1.8573,-1.6939,-1.4532,-1.1285,-1.2434,-1.0291,-0.3898,-0.9579,-1.1287,-0.8263,-1.0714,-1.1869,-1.1704,-0.8166,-0.4718,-0.163,-0.4646,-0.4287,-0.1499,-0.4796,-0.4486,-0.1645,-0.1742,-0.1821,-0.1903,-0.2038,-0.4209,-0.7301,-0.7471,-0.971,-1.305,-1.5664,-1.6556,-1.6292,-1.4566,-1.3987,-1.4001,-1.402,-1.1576,-0.8737,-0.8498,-0.4429,-0.0058,0.0222,0.5066,0.9672,0.8903,1.2018,1.5496,1.6731,1.7011,1.7611,1.9636,2.0017,2.0,2.0031,1.9906,1.9543,1.88,1.8574,1.8263,1.7602,1.7822,1.7954,1.7772,1.771,1.7618,1.7353,1.7394,1.7441,1.7441,1.7439,1.7406,1.7335,1.7429,1.7439,1.7288,1.7566,1.7675,1.7599,1.7861,1.8018,1.8125,1.8293,1.8393,-1.2777,-1.3159,-1.3417,-1.4905,-1.5551,-1.5868,-1.6203,-1.6538,-1.66,-1.6212,-1.6188,-1.608,-1.5583,-1.5594,-1.6039,-1.7241,-1.7453,-1.7736,-1.8553,-1.8678,-1.8641,-1.8505,-1.8485,-1.8316,-1.7862,-1.7866,-1.7693,-1.7188,-1.3208,-1.053,-0.989,-0.5789,-0.3237,-0.2712,-0.2905,-0.3131,-0.3302,-0.2272,-0.1432,-0.0795,-0.0763,-0.0641,-0.0367,-0.0641,-0.0611,-0.0397,-0.0641,-0.0611,-0.0397,-0.0653,-0.0818,-0.0896,-0.1152,-0.1467,-0.1794,-0.1731,-0.1892,-0.2926,-0.8286,-1.038,-0.984,-0.4819,-0.3192,-0.3167,-0.307,-0.2974,-0.273,-0.1931,0.2402,0.6962,0.772,1.2137,1.6696,1.7822,1.8145,1.8522,1.9676,1.9919,1.9957,2.0085,2.0055,2.0027,2.0088,1.973,1.9341,1.9073,1.8855,1.8444,1.7653,1.8001,1.8208,1.7861,1.7898,1.7815,1.7479,1.7618,1.7732,1.771,1.7726,1.7842,1.809,1.7864,1.7749,1.7794,1.8001,1.8001,1.7833,1.8023,1.8275,1.8531,1.8531,1.868,-1.3218,-1.3774,-1.4268,-1.4972,-1.5225,-1.5477,-1.6219,-1.5982,-1.5509,-1.522,-1.4435,-1.3571,-1.2847,-1.3936,-1.5019,-1.5262,-1.6844,-1.8101,-1.8166,-1.8406,-1.8467,-1.8232,-1.8211,-1.6749,-1.3051,-1.258,-1.0948,-0.7219,-0.9345,-0.7531,-0.0062,-0.1767,0.042,0.7877,0.1515,-0.0328,0.3259,0.0457,0.0966,0.482,0.5023,0.7149,1.0737,0.6876,0.7227,1.0652,0.685,0.7335,1.0796,1.0713,1.0498,1.0242,1.0417,0.7731,0.3855,0.4541,0.2127,-0.1119,0.1702,-0.058,-0.4583,-0.3489,-0.3117,-0.3009,-0.2382,0.0626,0.3982,0.4738,0.9061,1.3475,1.364,1.5615,1.7648,1.7949,1.8746,1.957,2.0018,2.0117,2.018,2.0357,2.025,2.0113,2.0041,1.9939,1.9743,1.9425,1.9284,1.8957,1.8252,1.8415,1.8532,1.8342,1.8438,1.8362,1.8035,1.8097,1.8115,1.8005,1.8191,1.8232,1.8111,1.8232,1.8208,1.8023,1.8069,1.8107,1.8082,1.8351,1.8587,1.8806,1.9013,1.9113,-1.3761,-1.411,-1.4374,-1.4752,-1.4968,-1.511,-1.5113,-1.4955,-1.4497,-1.3473,-1.2838,-1.222,-1.14,-1.254,-1.3803,-1.4398,-1.5997,-1.7363,-1.7919,-1.8197,-1.8243,-1.7997,-1.798,-1.6094,-1.1198,-1.065,-0.7637,-0.0524,-0.2613,-0.1718,0.4046,0.3975,0.6377,1.2129,0.7256,0.6035,0.9124,0.6926,0.7332,1.0359,1.0532,1.2104,1.4817,1.1893,1.216,1.4744,1.1898,1.226,1.4873,1.4873,1.4718,1.4556,1.4746,1.2737,0.9814,1.0267,0.8418,0.6143,0.9459,0.8132,0.4998,0.4911,0.4965,0.5135,0.5531,0.7918,1.069,1.1485,1.4101,1.6773,1.7199,1.8001,1.8742,1.891,1.9504,2.0087,2.0291,2.0312,2.0308,2.0351,2.0305,2.0192,2.0022,2.0,1.9888,1.9588,1.9561,1.9387,1.8859,1.8842,1.8789,1.8572,1.8717,1.8681,1.8323,1.8399,1.8454,1.8373,1.8526,1.8563,1.841,1.8545,1.8524,1.829,1.8391,1.8469,1.8471,1.8734,1.8982,1.9175,1.932,1.9365,-1.4219,-1.4214,-1.4084,-1.4438,-1.48,-1.4819,-1.3774,-1.3824,-1.3543,-1.1562,-1.1362,-1.1319,-1.0539,-1.1281,-1.2521,-1.4057,-1.5039,-1.6143,-1.7674,-1.7944,-1.7944,-1.7766,-1.726,-1.4995,-1.0096,-0.9068,-0.4862,0.4443,0.5187,0.535,0.5636,0.9807,1.2389,1.2766,1.2766,1.3067,1.3696,1.4076,1.4487,1.4887,1.498,1.5011,1.5011,1.5027,1.5027,1.5027,1.5027,1.5027,1.5027,1.5027,1.5027,1.5027,1.5058,1.5027,1.4968,1.497,1.4939,1.4864,1.5018,1.5064,1.5048,1.5122,1.5272,1.5461,1.5515,1.5802,1.6244,1.712,1.7637,1.8097,1.8958,1.9431,1.9768,2.0099,2.0203,2.0288,2.0467,2.0455,2.0371,2.0243,2.028,2.0241,2.005,2.0021,1.9941,1.9705,1.9757,1.9713,1.9411,1.9237,1.903,1.8753,1.8946,1.8928,1.8554,1.868,1.877,1.8734,1.8788,1.8788,1.8788,1.8788,1.8732,1.8582,1.8824,1.8914,1.8895,1.9134,1.9341,1.9527,1.9527,1.9523,-1.3901,-1.3947,-1.4084,-1.4501,-1.4752,-1.4729,-1.3998,-1.3443,-1.2546,-1.0767,-1.0049,-0.9555,-0.893,-1.0033,-1.153,-1.3021,-1.4321,-1.5643,-1.7139,-1.7432,-1.7502,-1.7455,-1.409,-0.986,-0.4959,-0.0776,0.4118,1.0113,1.0541,1.0576,1.0637,1.1989,1.3057,1.3722,1.4006,1.42,1.4328,1.4907,1.5225,1.5299,1.5854,1.6136,1.6136,1.6231,1.6285,1.6285,1.6285,1.6285,1.6285,1.6285,1.6212,1.6123,1.6374,1.6219,1.5979,1.6668,1.659,1.6258,1.6887,1.6953,1.6606,1.5589,1.5272,1.546,1.6534,1.6881,1.7089,1.8007,1.8592,1.8982,1.9099,1.9555,2.0047,2.018,2.029,2.0393,2.0485,2.0486,2.0462,2.0383,2.0322,2.027,2.018,2.0115,2.0088,2.0088,2.0021,1.9928,1.9816,1.9591,1.9413,1.935,1.9446,1.9416,1.9246,1.9168,1.9069,1.8949,1.8861,1.8788,1.8788,1.8788,1.8861,1.8999,1.9033,1.9164,1.9365,1.9427,1.9509,1.9682,1.9682,1.9663,-1.3914,-1.3934,-1.4065,-1.4356,-1.4325,-1.3924,-1.2804,-1.2035,-1.1082,-0.9351,-0.8832,-0.8592,-0.835,-0.9391,-1.0608,-1.163,-1.2714,-1.4061,-1.5856,-1.6125,-1.5526,-1.3789,-1.1667,-0.7373,0.0186,0.3075,0.6612,1.1822,1.2508,1.2672,1.2672,1.334,1.394,1.4347,1.4707,1.4968,1.5075,1.5521,1.5769,1.5812,1.6219,1.6463,1.6554,1.6696,1.6783,1.6853,1.6818,1.6818,1.6793,1.6659,1.6628,1.6709,1.6696,1.6725,1.6765,1.7109,1.706,1.6881,1.7455,1.7482,1.7206,1.6938,1.6692,1.663,1.7336,1.7791,1.8146,1.8699,1.9146,1.9481,1.9597,1.9858,2.0127,2.027,2.038,2.0466,2.0497,2.0504,2.0477,2.0405,2.0349,2.0289,2.0253,2.0195,2.0162,2.0208,2.0126,2.004,2.0019,1.9828,1.9675,1.9564,1.9583,1.9569,1.9512,1.9375,1.928,1.9261,1.9134,1.9067,1.9067,1.9082,1.9132,1.9212,1.9274,1.9409,1.9609,1.9604,1.9682,1.9866,1.9866,1.9866,-1.396,-1.4032,-1.4098,-1.4319,-1.3994,-1.3247,-1.1617,-1.0821,-0.9918,-0.8229,-0.798,-0.8104,-0.8245,-0.8957,-0.9801,-1.0599,-1.1368,-1.2243,-1.3355,-1.3588,-1.2332,-0.8834,-0.7603,-0.3919,0.4044,0.5819,0.8203,1.2354,1.3272,1.3609,1.3589,1.4264,1.4676,1.4772,1.521,1.5521,1.5667,1.5996,1.6207,1.6316,1.649,1.6686,1.6901,1.7027,1.7142,1.7254,1.7182,1.7174,1.715,1.6935,1.7035,1.7287,1.706,1.723,1.7597,1.7502,1.7417,1.7417,1.7783,1.773,1.7592,1.8186,1.8115,1.7849,1.8101,1.8537,1.8986,1.9239,1.9531,1.9804,2.0012,2.0128,2.0216,2.0377,2.0466,2.0497,2.05,2.0497,2.0487,2.0433,2.0366,2.0314,2.0308,2.0265,2.0222,2.0225,2.0182,2.0136,2.0098,2.001,1.9862,1.9686,1.9633,1.962,1.962,1.9493,1.9431,1.9504,1.9398,1.932,1.932,1.938,1.9394,1.9394,1.9499,1.9623,1.9763,1.9757,1.9854,2.0012,2.0012,2.0088,-1.3821,-1.4144,-1.4319,-1.4452,-1.4165,-1.3403,-1.1545,-1.0755,-0.9912,-0.8166,-0.7912,-0.8108,-0.8415,-0.8556,-0.9121,-1.0634,-1.1139,-1.0658,-0.867,-0.8858,-0.7622,-0.3417,0.0719,0.374,0.5042,0.9399,1.243,1.3157,1.394,1.4356,1.4222,1.4738,1.5031,1.4968,1.5609,1.5926,1.5856,1.6136,1.6394,1.6644,1.6993,1.7264,1.7502,1.7658,1.7726,1.7749,1.7726,1.7726,1.7726,1.7704,1.7927,1.8266,1.8187,1.8356,1.8662,1.8661,1.8455,1.8243,1.8512,1.8397,1.8183,1.8552,1.8417,1.8255,1.889,1.9068,1.9158,1.955,1.982,1.9974,2.0005,2.0192,2.039,2.0466,2.0501,2.0501,2.0494,2.0506,2.049,2.0489,2.0445,2.039,2.0395,2.034,2.0294,2.0292,2.0296,2.0244,2.0117,2.0079,2.003,1.9896,1.975,1.9676,1.9676,1.9582,1.9485,1.9485,1.9423,1.9394,1.9394,1.9394,1.9481,1.9656,1.9688,1.9782,1.9971,1.9971,1.9982,2.0012,2.0012,2.0391,-1.3164,-1.3811,-1.4319,-1.4401,-1.3901,-1.2994,-1.1604,-1.0478,-0.9375,-0.8062,-0.7812,-0.7884,-0.8152,-0.8274,-0.8525,-0.9163,-0.9368,-0.9383,-0.9222,-0.7736,-0.5225,-0.1288,0.2653,0.6379,0.9797,1.2204,1.3709,1.413,1.4305,1.4433,1.4588,1.4996,1.5359,1.5638,1.5911,1.6108,1.6274,1.6367,1.6581,1.6876,1.7093,1.7408,1.7794,1.7922,1.8009,1.8057,1.8163,1.8201,1.8142,1.8086,1.8232,1.8506,1.8316,1.8475,1.886,1.886,1.8825,1.8806,1.9033,1.8981,1.8841,1.9111,1.9044,1.896,1.9179,1.9323,1.9468,1.9801,2.0047,2.0243,2.0244,2.0361,2.0469,2.0481,2.0506,2.0499,2.0503,2.0503,2.0509,2.054,2.0503,2.0457,2.0453,2.0366,2.0308,2.0301,2.0304,2.0277,2.0225,2.0216,2.0208,2.0152,1.9941,1.9821,1.9824,1.9778,1.9786,1.9862,1.9804,1.9757,1.9757,1.9763,1.9782,1.9818,1.9854,1.9941,2.0058,2.0015,2.0015,2.0077,2.0563,2.0944,-1.2147,-1.3112,-1.3911,-1.3891,-1.3288,-1.2416,-1.1322,-1.0021,-0.8792,-0.7944,-0.7753,-0.7797,-0.7971,-0.8139,-0.8218,-0.8232,-0.8374,-0.8064,-0.693,-0.4984,-0.1876,0.2927,0.5866,0.8994,1.2875,1.3762,1.4273,1.4714,1.4588,1.4637,1.498,1.5254,1.5551,1.5926,1.6163,1.6382,1.6565,1.6644,1.6866,1.7191,1.7264,1.7526,1.7944,1.8095,1.8142,1.8163,1.8426,1.8485,1.8368,1.8336,1.8473,1.8679,1.8475,1.8663,1.9033,1.8999,1.9066,1.9212,1.9353,1.935,1.9313,1.9532,1.9559,1.9521,1.9557,1.9642,1.9774,2.0039,2.025,2.039,2.043,2.0461,2.0505,2.0515,2.0525,2.0523,2.0533,2.0536,2.0543,2.0588,2.0555,2.0522,2.05,2.0413,2.0355,2.0338,2.0334,2.0313,2.0311,2.0311,2.0311,2.0304,2.0124,1.9993,1.9964,1.9963,1.9992,2.0088,2.0079,2.0059,2.0059,2.0058,2.0038,1.9996,2.0028,2.0078,2.0126,2.0078,2.0222,2.0508,2.1063,2.1618,-1.0816,-1.2039,-1.3018,-1.2702,-1.2317,-1.1714,-1.0577,-0.9327,-0.8265,-0.7796,-0.7797,-0.7928,-0.7983,-0.8164,-0.8301,-0.8309,-0.8736,-0.6664,0.0296,0.0793,0.319,1.0587,1.2163,1.2709,1.2886,1.3744,1.4461,1.4777,1.4871,1.5072,1.5477,1.5551,1.5565,1.5507,1.6324,1.6763,1.6696,1.7027,1.7337,1.7589,1.7589,1.7743,1.8005,1.8205,1.8184,1.8027,1.8428,1.8489,1.831,1.8508,1.8716,1.8895,1.8895,1.9101,1.9375,1.9251,1.9277,1.9409,1.9397,1.9439,1.954,1.9729,1.9798,1.9852,2.0104,2.0096,2.0056,2.0328,2.0404,2.0409,2.049,2.0509,2.0529,2.0586,2.0602,2.0597,2.0607,2.0605,2.0607,2.0593,2.0593,2.0588,2.0506,2.05,2.0487,2.0405,2.04,2.0376,2.0308,2.0359,2.036,2.0311,2.0299,2.0246,2.012,2.0106,2.0088,2.0088,2.0162,2.0188,2.0188,2.0188,2.0188,2.0188,2.0188,2.0188,2.0188,2.0188,2.0619,2.1386,2.1405,2.2352,-0.9453,-1.0354,-1.1123,-1.1109,-1.074,-1.0194,-0.9488,-0.878,-0.8083,-0.7423,-0.753,-0.7724,-0.762,-0.7724,-0.7169,-0.5142,-0.4872,-0.3469,0.0737,0.3491,0.6043,0.863,1.1895,1.4087,1.4499,1.4699,1.489,1.5179,1.5088,1.515,1.5477,1.5751,1.5991,1.6231,1.6528,1.6763,1.696,1.7215,1.7482,1.781,1.7945,1.8128,1.8345,1.8406,1.8328,1.8142,1.8483,1.8563,1.8528,1.8734,1.8966,1.9168,1.9168,1.9282,1.9405,1.946,1.9471,1.9481,1.9638,1.97,1.9731,1.988,1.9952,1.9953,2.0087,2.0131,2.0161,2.0344,2.041,2.0409,2.0471,2.0503,2.0514,2.0536,2.0525,2.0527,2.0524,2.0578,2.0591,2.0593,2.0593,2.0591,2.0566,2.0533,2.0497,2.0464,2.0422,2.0381,2.0362,2.0391,2.0386,2.0363,2.0376,2.0327,2.0236,2.0234,2.0265,2.0292,2.0289,2.0273,2.0273,2.0214,2.0466,2.1003,2.1022,2.1336,2.1974,2.1931,2.2363,2.3262,2.3262,2.3904,-0.7856,-0.8908,-0.9701,-0.9532,-0.9393,-0.9146,-0.8677,-0.8155,-0.7673,-0.7237,-0.7359,-0.7513,-0.7376,-0.6724,-0.5614,-0.377,-0.2604,-0.0823,0.236,0.4912,0.7236,0.9369,1.2346,1.4483,1.5104,1.5088,1.5165,1.5433,1.5389,1.5506,1.5805,1.6114,1.6454,1.685,1.696,1.7118,1.7335,1.7597,1.7842,1.8052,1.8153,1.8266,1.8383,1.8483,1.8385,1.8222,1.8619,1.8733,0.0,1.893,1.918,1.9387,1.9387,1.9456,1.9545,1.9585,1.9643,1.9695,1.9794,1.988,1.9931,2.006,2.0139,2.0161,2.0208,2.025,2.0308,2.0419,2.0445,2.0449,2.0494,2.0492,2.0504,2.0494,2.0524,2.0547,2.0544,2.0579,2.0593,2.0593,2.0593,2.0593,2.0593,2.0566,2.0538,2.0538,2.0509,2.0474,2.0441,2.0448,2.0425,2.039,2.0414,2.055,2.0847,2.0543,2.0357,2.0402,2.0366,2.0332,2.0332,2.0612,2.0997,2.1497,2.1814,2.2273,2.2881,2.3141,2.3568,2.4149,2.4477,2.4938,0.0,-0.757,-0.8615,-0.7995,-0.8169,-0.8392,-0.7963,-0.7448,0.0,-0.7139,-0.723,-0.7219,-0.6985,-0.5239,-0.3707,-0.3279,-0.1277,0.1511,0.5184,0.5773,0.7593,1.2361,1.3501,1.4223,1.4941,1.509,1.527,1.555,1.5737,1.6004,1.6412,1.6628,1.6869,1.7238,1.753,1.7686,1.7715,1.8111,1.831,1.831,1.826,1.8253,1.8236,1.8423,1.8403,1.8236,1.8843,1.8948,1.8753,1.913,1.9376,1.9513,1.9499,1.9626,1.9787,1.9681,1.9778,1.9969,1.9933,2.0002,2.0116,2.0258,2.0346,2.0391,2.0404,2.0408,2.0418,2.048,2.0497,2.05,2.05,2.0508,2.0504,2.0504,2.0546,2.0596,2.0596,2.0594,2.0593,2.0594,2.0594,2.0594,2.0594,2.0597,2.0599,2.0599,2.0601,2.0579,2.0523,2.0506,2.0501,2.0494,2.0558,2.0954,2.1815,2.1037,2.0521,2.0584,2.0588,2.0591,2.0591,2.1365,2.1828,2.1886,2.2675,2.3114,2.3178,2.3921,2.4292,2.4312,2.5124,2.5511,-0.4875,0.0,-0.6374,-0.6262,-0.6364,-0.6481,0.0,-0.6592,-0.6697,-0.6613,-0.6894,-0.6397,-0.3919,-0.341,-0.1873,0.2696,0.397,0.5597,0.9014,1.0915,1.2458,1.3857,1.4623,1.511,1.5301,1.5463,1.5767,1.6243,1.6215,1.6351,1.6757,1.6834,1.6841,1.6841,1.7099,1.7435,1.7866,1.8266,1.8465,1.8465,1.86,1.8619,1.8506,1.8565,1.8506,1.8443,1.8751,1.8861,1.8877,1.9117,1.938,1.9656,1.9599,1.9695,1.9888,1.9969,1.9918,1.9877,2.0124,2.015,2.0133,2.0313,2.0341,2.0332,2.0376,2.0433,2.0487,2.0506,2.0496,2.05,2.05,2.0501,2.0498,2.0498,2.0507,2.0527,2.0527,2.0561,2.0594,2.0597,2.0598,2.0598,2.0599,2.0601,2.0601,2.0601,2.0603,2.0584,2.0582,2.0583,2.0816,2.1409,2.1536,2.1909,2.2719,2.1973,2.176,2.2426,2.2477,2.2431,2.2392,2.2586,2.3012,2.3689,2.449,2.49,2.4922,2.5093,2.5182,2.5201,2.5395,2.5511,-0.3751,-0.4421,-0.5165,-0.5449,-0.5566,-0.5686,-0.5948,-0.6207,-0.6406,-0.6401,-0.575,-0.4645,-0.2944,-0.0931,0.1564,0.4932,0.6856,0.8788,1.1158,1.2855,1.395,1.4087,1.4887,1.5374,1.5359,1.5497,1.5825,1.6378,1.5894,1.6053,1.7166,1.6577,1.6381,1.674,1.6598,1.6848,1.761,1.7902,1.8034,1.8034,1.8555,1.8574,1.8164,1.8574,1.8753,1.8734,1.8948,1.9033,1.9048,1.932,1.9564,1.9738,1.9767,1.9888,2.005,2.0117,2.0098,2.0041,2.0211,2.0258,2.026,2.0366,2.0408,2.0395,2.04,2.0456,2.0492,2.0506,2.0503,2.0494,2.0499,2.0495,2.0505,2.0505,2.0527,2.0546,2.0546,2.0562,2.0716,2.1128,2.0874,2.0737,2.1129,2.0856,2.0603,2.0603,2.0605,2.0605,2.0605,2.0957,2.1367,2.1794,2.2246,2.2812,2.363,2.3265,2.3018,2.3101,2.3071,2.3036,2.2995,2.3373,2.3983,2.484,2.5279,2.551,2.5511,2.5511,2.5511,2.5511,2.5511,2.5511,-0.2936,-0.3349,-0.39,-0.4456,-0.4688,-0.477,-0.4798,-0.4936,-0.5075,-0.5191,-0.3649,-0.2159,-0.1752,0.1913,0.5139,0.5907,0.8797,1.1314,1.2466,1.3402,1.3979,1.3962,1.4746,1.5301,1.5228,1.5278,1.554,1.6024,1.5201,1.5486,1.7292,1.6092,1.5765,1.6635,1.6096,1.6213,1.708,1.7329,1.7453,1.7471,1.8217,1.8146,1.7432,1.8355,1.88,1.885,1.917,1.9286,1.9268,1.9585,1.975,1.9843,1.996,2.0079,2.0208,2.019,2.0233,2.0277,2.0231,2.0302,2.0418,2.0429,2.0443,2.0472,2.0428,2.0452,2.0496,2.0504,2.0488,2.0484,2.0492,2.0504,2.0508,2.0508,2.0546,2.0639,2.0775,2.0796,2.1051,2.1911,2.1481,2.1227,2.197,2.1385,2.0839,2.0976,2.0879,2.0859,2.0977,2.1641,2.2148,2.2266,2.2949,2.3711,2.4531,2.4603,2.4282,2.3544,2.3427,2.3396,2.3407,2.4097,2.48,2.548,2.5499,2.5499,2.5511,2.5511,2.5511,2.5511,2.5511,2.5511,-0.3019,-0.1825,-0.059,-0.1241,-0.1678,-0.1484,0.0219,0.0409,0.0224,0.0208,0.0399,0.133,0.3824,0.4854,0.6278,0.9278,1.1506,1.3127,1.3892,1.4745,1.5154,1.4685,1.4833,1.4926,1.4803,1.4597,1.464,1.5002,1.478,1.5149,1.6357,1.5611,1.5387,1.5942,1.5841,1.5934,1.6184,1.6901,1.7252,1.7252,1.7393,1.7116,1.6531,1.7346,1.7855,1.8128,1.9007,1.9434,1.954,1.9726,1.9866,1.9981,1.999,2.0069,2.0201,2.0205,2.0211,2.0235,2.0321,2.0421,2.0488,2.0484,2.0456,2.0419,2.0474,2.0445,2.0426,2.0472,2.0464,2.0429,2.0494,2.0497,2.0505,2.0505,2.0547,2.0797,2.1539,2.1695,2.193,2.2752,2.2811,2.2773,2.2968,2.2285,2.1953,2.2695,2.2168,2.1973,2.2715,2.293,2.3262,2.3945,2.4141,2.4551,2.543,2.5502,2.5434,2.5317,2.5233,2.5204,2.5197,2.5268,2.5369,2.5505,2.5503,2.5499,2.5511,2.5511,2.5511,2.5511,2.5511,2.5511,-0.2381,-0.1969,-0.0981,0.1142,0.1372,0.1282,0.2061,0.2395,0.2526,0.2481,0.3499,0.4787,0.6117,0.7881,0.9966,1.2515,1.3615,1.4195,1.4296,1.4615,1.4673,1.4156,1.4272,1.4389,1.4328,1.4109,1.4149,1.4604,1.4037,1.4316,1.5796,1.4813,1.4563,1.5245,1.4848,1.5038,1.5955,1.6412,1.6694,1.6729,1.7223,1.6917,1.5976,1.7276,1.7987,1.8217,1.9156,1.9623,1.972,1.9851,1.9931,2.0012,2.0079,2.0161,2.0254,2.0292,2.0306,2.0313,2.0385,2.0413,2.0454,2.0454,2.0439,2.0419,2.0448,2.0428,2.0409,2.0437,2.0448,2.0455,2.0494,2.0494,2.0621,2.109,2.125,2.1522,2.2361,2.2577,2.2831,2.3652,2.3418,2.3262,2.3769,2.3164,2.2734,2.3086,2.2793,2.2715,2.3144,2.3574,2.3984,2.4355,2.4824,2.5254,2.5664,2.5698,2.5685,2.5659,2.5629,2.56,2.561,2.5543,2.5499,2.5503,2.5499,2.5511,2.5511,2.5511,2.5511,2.5511,2.5511,2.5511,-0.1892,-0.1669,-0.0758,0.2075,0.2869,0.3193,0.4161,0.4728,0.5142,0.5443,0.6919,0.8138,0.8124,1.0481,1.291,1.447,1.4981,1.5074,1.4783,1.4582,1.4389,1.413,1.392,1.3848,1.3998,1.3681,1.3652,1.4056,1.3394,1.365,1.5259,1.4143,1.387,1.4761,1.4208,1.4451,1.5677,1.6011,1.6202,1.6271,1.7023,1.6658,1.5353,1.7096,1.7992,1.8191,1.9282,1.9788,1.9881,2.0,2.005,2.005,2.0175,2.0258,2.0308,2.0366,2.0386,2.0398,2.0408,2.0394,2.0394,2.0404,2.04,2.0405,2.0399,2.0404,2.04,2.04,2.0428,2.0483,2.048,2.048,2.0707,2.1565,2.183,2.2167,2.3183,2.3437,2.373,2.4551,2.418,2.3926,2.459,2.4023,2.3535,2.3691,2.3535,2.3496,2.375,2.4315,2.4706,2.4707,2.5292,2.5703,2.5703,2.5699,2.5668,2.5598,2.5601,2.56,2.5609,2.5543,2.5511,2.5517,2.5507,2.5511,2.5511,2.5511,2.5511,2.5511,2.5511,2.5511,-0.2109,0.0468,0.2708,0.0602,0.1277,0.3714,0.855,0.9643,1.0039,1.1466,1.1499,1.1313,1.1429,1.2164,1.3075,1.4008,1.5209,1.6034,1.6062,1.558,1.5369,1.5755,1.4242,1.3413,1.4034,1.3283,1.2799,1.2902,1.3024,1.3524,1.4531,1.3786,1.3769,1.4779,1.4744,1.4829,1.5066,1.5766,1.6116,1.6116,1.6371,1.5774,1.4446,1.6211,1.7133,1.7474,1.9163,1.996,2.0079,2.0161,2.0195,2.0184,2.0262,2.0306,2.0302,2.0308,2.0353,2.0394,2.0394,2.0394,2.0399,2.0395,2.0395,2.0402,2.0405,2.0399,2.0411,2.0411,2.0392,2.041,2.0415,2.0409,2.0627,2.1497,2.1761,2.2263,2.3946,2.4319,2.4575,2.5448,2.5566,2.5527,2.5605,2.4883,2.459,2.539,2.4824,2.4609,2.5429,2.5565,2.5605,2.5605,2.5663,2.5703,2.5701,2.57,2.5677,2.5609,2.5593,2.5601,2.5595,2.5532,2.5525,2.56,2.5531,2.5511,2.5511,2.5511,2.5511,2.5511,2.5511,2.5511,-0.185,-0.0224,0.1641,0.2105,0.3732,0.579,0.8064,1.0208,1.2057,1.3275,1.3566,1.3617,1.3715,1.4164,1.4621,1.4875,1.5591,1.5985,1.5461,1.5308,1.5206,1.513,1.4538,1.4313,1.4748,1.4458,1.4315,1.4469,1.4601,1.4851,1.5343,1.5086,1.4899,1.4863,1.4896,1.4978,1.5057,1.5462,1.5633,1.5604,1.5711,1.5338,1.4589,1.5764,1.6705,1.7491,1.8615,1.9454,2.0031,2.0069,2.0116,2.02,2.0314,2.0359,2.0371,2.0359,2.0385,2.0396,2.0404,2.0404,2.0404,2.0402,2.039,2.0398,2.0396,2.0394,2.0404,2.0404,2.0425,2.0579,2.1089,2.1243,2.1639,2.304,2.3396,2.3742,2.4954,2.5209,2.5308,2.5642,2.5701,2.5702,2.5702,2.5429,2.5312,2.5644,2.5429,2.5331,2.5662,2.5699,2.5699,2.5702,2.5699,2.5699,2.5703,2.5702,2.5681,2.5664,2.5613,2.5606,2.559,2.5576,2.5549,2.5538,2.5505,2.5495,2.5511,2.5495,2.5495,2.5511,2.5511,2.5511,-0.0469,0.0845,0.2366,0.3227,0.571,0.7876,0.7648,1.034,1.3221,1.435,1.4637,1.4792,1.5092,1.5209,1.5327,1.5524,1.6025,1.6173,1.5571,1.5443,1.5386,1.5375,1.5098,1.5048,1.5452,1.535,1.5325,1.5482,1.56,1.5752,1.5955,1.5955,1.5784,1.5395,1.5428,1.5369,1.5196,1.535,1.5302,1.5053,1.5137,1.4989,1.4691,1.554,1.6501,1.752,1.8285,1.9149,2.0,2.0058,2.0134,2.0272,2.0359,2.0402,2.0396,2.0404,2.0398,2.0398,2.0405,2.0399,2.0399,2.0399,2.0399,2.0405,2.041,2.0404,2.0395,2.0433,2.0469,2.0752,2.1862,2.1971,2.2234,2.3968,2.4376,2.4601,2.5519,2.5675,2.5676,2.5698,2.5698,2.5699,2.57,2.5702,2.5702,2.5701,2.5702,2.5701,2.5699,2.5696,2.5694,2.5697,2.5696,2.5694,2.5697,2.5691,2.5709,2.5691,2.5664,2.5637,2.5634,2.5613,2.5571,2.5525,2.5531,2.5511,2.5495,2.5505,2.5498,2.5511,2.5511,2.5646,0.2161,0.4354,0.583,0.3519,0.6601,0.9764,0.8035,1.0587,1.3699,1.5134,1.4935,1.4758,1.5559,1.5043,1.4805,1.575,1.6401,1.6789,1.6789,1.6223,1.6128,1.7003,1.5925,1.5376,1.6033,1.5702,1.5456,1.5516,1.5712,1.59,1.6116,1.6133,1.6202,1.6406,1.6406,1.6094,1.5422,1.5465,1.5178,1.4501,1.4632,1.4654,1.4632,1.5556,1.6503,1.7433,1.8297,1.917,1.9985,2.0124,2.028,2.039,2.041,2.0398,2.0399,2.0399,2.0399,2.0399,2.0399,2.0399,2.0399,2.0399,2.0399,2.0392,2.04,2.041,2.041,2.0472,2.0496,2.0908,2.2642,2.2455,2.2247,2.3917,2.4306,2.4572,2.5509,2.5642,2.5626,2.5689,2.5693,2.5693,2.5694,2.5697,2.5699,2.5694,2.5698,2.5699,2.5694,2.5693,2.5693,2.5707,2.5691,2.5693,2.5707,2.5707,2.5707,2.5707,2.5707,2.5693,2.57,2.5648,2.56,2.5593,2.5605,2.557,2.5499,2.5499,2.5498,2.5511,2.5511,2.5936,0.2505,0.4019,0.5642,0.5968,0.8467,1.0856,1.0951,1.2352,1.4121,1.5767,1.6066,1.5996,1.5783,1.5925,1.6046,1.6038,1.6597,1.7002,1.6942,1.6765,1.68,1.7191,1.6894,1.6799,1.7192,1.7165,1.7156,1.7177,1.7279,1.7446,1.7631,1.765,1.7556,1.7324,1.7305,1.7039,1.6461,1.5908,1.5551,1.5402,1.4881,1.4677,1.4747,1.5038,1.5668,1.6573,1.6837,1.7443,1.8308,1.9049,1.9377,1.947,2.0141,2.036,2.0334,2.0334,2.0334,2.0334,2.0334,2.0354,2.0399,2.0399,2.0399,2.0386,2.034,2.04,2.0469,2.0434,2.0503,2.0958,2.2662,2.2912,2.3157,2.4879,2.5273,2.5354,2.5644,2.5683,2.5685,2.5709,2.5709,2.5691,2.5693,2.5694,2.5696,2.5694,2.5698,2.5699,2.5694,2.5691,2.5709,2.5707,2.5709,2.5709,2.5707,2.5707,2.5707,2.5707,2.5707,2.5676,2.5625,2.5602,2.5592,2.5593,2.5605,2.5571,2.5504,2.555,2.5557,2.5511,2.5511,2.5936,0.4543,0.5675,0.6989,0.8139,0.9798,1.1491,1.2853,1.3804,1.4751,1.598,1.6323,1.6385,1.6427,1.6484,1.6532,1.6593,1.6961,1.7199,1.7126,1.7126,1.7175,1.7408,1.7439,1.7509,1.7687,1.7794,1.7861,1.7905,1.8009,1.8159,1.8328,1.8467,1.8428,1.8179,1.8229,1.7964,1.7371,1.6917,1.6411,1.5841,1.5402,1.5251,1.5311,1.4954,1.5301,1.6185,1.6543,1.7186,1.8058,1.8728,1.9203,1.9559,2.0147,2.0347,2.0295,2.0295,2.0295,2.0295,2.0295,2.034,2.0366,2.0366,2.0366,2.0366,2.0347,2.0399,2.0448,2.0418,2.0451,2.0828,2.2193,2.2823,2.3532,2.5299,2.5694,2.5694,2.5709,2.5709,2.5691,2.5707,2.5707,2.5707,2.5691,2.5691,2.5691,2.5691,2.5694,2.5696,2.5691,2.5709,2.5707,2.5707,2.5707,2.5707,2.5707,2.5707,2.5707,2.5707,2.5707,2.5673,2.5643,2.5644,2.5643,2.5633,2.5637,2.5609,2.5542,2.5574,2.5564,2.5511,2.584,2.642,0.7385,0.8349,0.91,0.9904,1.0751,1.1885,1.376,1.4702,1.535,1.5814,1.5877,1.6151,1.7122,1.6726,1.6545,1.7292,1.7408,1.7408,1.7344,1.732,1.7408,1.7566,1.7641,1.771,1.771,1.7794,1.7878,1.7927,1.8121,1.8266,1.8406,1.8695,1.8861,1.8895,1.9035,1.8806,1.8232,1.8222,1.7522,1.6142,1.619,1.6202,1.6174,1.5309,1.5348,1.614,1.6867,1.7671,1.8488,1.8686,1.929,2.007,2.0167,2.0237,2.0294,2.0294,2.0294,2.0294,2.0294,2.0294,2.0294,2.0294,2.0294,2.0308,2.0365,2.0402,2.0408,2.0395,2.0409,2.0647,2.158,2.245,2.3536,2.5293,2.5707,2.5707,2.5707,2.5707,2.5707,2.5707,2.5707,2.5707,2.5707,2.5707,2.5707,2.5707,2.5707,2.5707,2.5707,2.5707,2.5707,2.5707,2.5707,2.5707,2.5707,2.5707,2.5707,2.5707,2.5707,2.5707,2.5707,2.5698,2.5702,2.5703,2.5696,2.5671,2.5589,2.5609,2.5577,2.5519,2.6331,2.7191,0.7036,0.7657,0.8661,1.0492,1.1908,1.2924,1.3201,1.3918,1.4612,1.4978,1.5422,1.5863,1.6308,1.6715,1.7131,1.7562,1.7572,1.7566,1.7526,1.7496,1.7465,1.7522,1.7582,1.7704,1.7917,1.7997,1.8086,1.8208,1.8249,1.8348,1.8465,1.8561,1.8658,1.8824,1.9,1.9091,1.9051,1.8582,1.8217,1.7936,1.7326,1.7015,1.6933,1.6172,1.5941,1.6148,1.5722,1.5685,1.6029,1.6734,1.7548,1.8416,1.9092,1.9734,2.0292,2.0292,2.0292,2.0292,2.0292,2.0299,2.0294,2.0294,2.0294,2.0294,2.0313,2.0365,2.0395,2.04,2.0487,2.0894,2.2416,2.2947,2.3536,2.5297,2.5707,2.5707,2.5707,2.5707,2.5707,2.5707,2.5707,2.5707,2.5707,2.5707,2.5707,2.5707,2.5707,2.5707,2.5707,2.5707,2.5707,2.5707,2.5707,2.5707,2.5707,2.5707,2.5707,2.5707,2.5707,2.5707,2.5707,2.5691,2.5693,2.5693,2.5703,2.5679,2.5603,2.5593,2.5571,2.5518,2.6378,2.7252,0.7339,0.7752,0.8499,1.0615,1.1979,1.2824,1.3039,1.3456,1.382,1.3989,1.4885,1.5528,1.5291,1.5577,1.5811,1.561,1.5862,1.6034,1.5937,1.6297,1.6552,1.6464,1.6617,1.6808,1.6973,1.6998,1.7041,1.719,1.7267,1.7462,1.7864,1.7999,1.8324,1.8825,1.9,1.9198,1.938,1.9073,1.8763,1.8447,1.8029,1.7828,1.7843,1.7015,1.6467,1.6204,1.6198,1.6265,1.6426,1.6919,1.7857,1.9007,1.9046,1.9552,2.0308,2.0308,2.0308,2.0308,2.0308,2.0296,2.0304,2.0304,2.0304,2.0304,2.0289,2.032,2.0346,2.0349,2.0395,2.0768,2.2098,2.2756,2.3427,2.4715,2.5369,2.5707,2.5707,2.5707,2.5707,2.5707,2.5707,2.5707,2.5707,2.5707,2.5707,2.5707,2.5707,2.5707,2.5707,2.5707,2.5707,2.5707,2.5707,2.5707,2.5707,2.5707,2.5707,2.5707,2.5707,2.5707,2.5707,2.5707,2.5707,2.5707,2.5702,2.5662,2.5593,2.5603,2.5574,2.5585,2.6845,2.7676,0.745,0.7962,0.8599,1.0466,1.1574,1.2352,1.2891,1.3125,1.3207,1.3188,1.4293,1.5067,1.4407,1.4446,1.4402,1.3781,1.42,1.4498,1.42,1.4889,1.5283,1.4994,1.5206,1.543,1.5522,1.5626,1.573,1.5854,1.6081,1.6449,1.7024,1.74,1.793,1.8679,1.8996,1.9266,1.9489,1.9518,1.922,1.8615,1.8603,1.8677,1.8757,1.7978,1.7273,1.6687,1.7262,1.7576,1.768,1.7761,1.8603,1.9795,1.9218,1.9442,2.01,2.0235,2.0312,2.0312,2.0312,2.0312,2.0312,2.0312,2.0312,2.0312,2.0312,2.03,2.0304,2.0308,2.0308,2.0571,2.1668,2.2528,2.3332,2.431,2.5127,2.5707,2.5707,2.5707,2.5707,2.5707,2.5707,2.5707,2.5707,2.5707,2.5707,2.5707,2.5707,2.5707,2.5707,2.5707,2.5707,2.5707,2.5707,2.5707,2.5707,2.5707,2.5707,2.5707,2.5707,2.5707,2.5707,2.5707,2.5707,2.5707,2.5703,2.5663,2.5604,2.5605,2.559,2.5632,2.7327,2.8136,0.6089,0.7424,0.901,0.9986,1.127,1.2295,1.2333,1.284,1.3243,1.3137,1.38,1.4347,1.4228,1.4844,1.5308,1.5207,1.5334,1.5204,1.4545,1.4511,1.4324,1.3648,1.3667,1.3819,1.4059,1.47,1.515,1.5314,1.5915,1.6356,1.6496,1.7201,1.7713,1.7952,1.8867,1.9375,1.942,1.9592,1.9585,1.9447,1.9443,1.9484,1.9544,1.9414,1.9024,1.8422,1.7844,1.7597,1.7612,1.7689,1.7856,1.8107,1.8742,1.9069,1.928,2.0023,2.0312,2.0312,2.0312,2.0312,2.0312,2.0312,2.0312,2.0312,2.0312,2.0299,2.0289,2.0302,2.0349,2.0774,2.2473,2.3014,2.3511,2.5132,2.5607,2.5707,2.5707,2.5707,2.5707,2.5707,2.5707,2.5707,2.5707,2.5707,2.5707,2.5707,2.5707,2.5707,2.5707,2.5707,2.5707,2.5707,2.5707,2.5707,2.5707,2.5707,2.5707,2.5707,2.5707,2.5707,2.5707,2.5707,2.5707,2.5707,2.5691,2.566,2.5604,2.5603,2.5598,2.564,2.7389,2.8151,0.6305,0.7462,0.8729,0.987,1.0642,1.1309,1.2071,1.2514,1.2854,1.3244,1.3581,1.3647,1.3176,1.3412,1.3565,1.3159,1.3464,1.3599,1.3211,1.3616,1.382,1.3447,1.3165,1.3072,1.3233,1.3145,1.3147,1.328,1.3561,1.4157,1.5131,1.5932,1.6869,1.7927,1.8855,1.9387,1.9512,1.9597,1.9638,1.9592,1.9597,1.9633,1.9701,1.9707,1.9364,1.8754,1.8934,1.8773,1.8386,1.8427,1.8722,1.9158,1.9049,1.93,1.9773,2.0158,2.0312,2.0312,2.0312,2.0312,2.0312,2.0312,2.0312,2.0312,2.0312,2.0296,2.0294,2.0289,2.0326,2.0754,2.2576,2.3077,2.3527,2.5246,2.5673,2.5707,2.5707,2.5707,2.5707,2.5707,2.5707,2.5707,2.5707,2.5707,2.5707,2.5707,2.5707,2.5707,2.5707,2.5707,2.5707,2.5707,2.5707,2.5707,2.5707,2.5707,2.5707,2.5707,2.5707,2.5707,2.5707,2.5707,2.5707,2.5707,2.5696,2.5698,2.5661,2.5663,2.5664,2.5703,2.7401,2.8172,0.6436,0.7155,0.7864,0.931,0.9817,1.0273,1.149,1.1923,1.2282,1.3052,1.3222,1.3102,1.2649,1.261,1.2436,1.1872,1.2265,1.2544,1.2248,1.2844,1.3244,1.3011,1.2666,1.2476,1.254,1.2198,1.2032,1.2118,1.2281,1.2915,1.4216,1.5039,1.6101,1.7495,1.8319,1.891,1.9267,1.949,1.9602,1.9602,1.9602,1.962,1.9688,1.9688,1.9442,1.8995,1.9773,1.9807,1.9338,1.9338,1.9581,1.9927,1.9511,1.9581,2.0004,2.0215,2.0312,2.0312,2.0312,2.0312,2.0312,2.0312,2.0312,2.0312,2.0312,2.0312,2.03,2.0301,2.0295,2.0701,2.2519,2.3014,2.3474,2.5177,2.5629,2.5681,2.5705,2.5707,2.5707,2.5707,2.5707,2.5707,2.5707,2.5707,2.5707,2.5707,2.5707,2.5707,2.5707,2.5707,2.5707,2.5707,2.5707,2.5707,2.5707,2.5707,2.5707,2.5707,2.5707,2.5707,2.5707,2.5707,2.5707,2.5707,2.5699,2.5699,2.5707,2.5697,2.5699,2.5736,2.7422,2.8195,0.5735,0.5942,0.6291,0.783,0.874,0.9443,1.0146,1.0911,1.1613,1.2237,1.2468,1.2751,1.3407,1.354,1.3489,1.3409,1.3522,1.3359,1.2589,1.2517,1.2321,1.1677,1.1688,1.1771,1.1857,1.2559,1.3014,1.3025,1.3745,1.4253,1.4476,1.5258,1.5797,1.6008,1.6787,1.7584,1.8358,1.9193,1.9602,1.9602,1.9602,1.9597,1.9597,1.9656,1.9682,1.9669,1.9962,2.0152,2.0235,2.0235,1.9773,1.9146,1.9927,1.9754,1.9165,2.0004,2.0312,2.0312,2.0312,2.0312,2.0312,2.0312,2.0312,2.0312,2.0312,2.0312,2.0312,2.0292,2.0292,2.0708,2.2455,2.2908,2.3347,2.5084,2.5571,2.5613,2.5683,2.5707,2.5707,2.5707,2.5707,2.5707,2.5707,2.5707,2.5707,2.5707,2.5707,2.5707,2.5707,2.5707,2.5707,2.5707,2.5707,2.5707,2.5707,2.5707,2.5707,2.5707,2.5707,2.5707,2.5707,2.5707,2.5707,2.5707,2.5699,2.5699,2.5707,2.5707,2.5699,2.574,2.7417,2.8196,0.5813,0.6005,0.6233,0.7207,0.8006,0.8727,0.9404,1.0192,1.0939,1.1633,1.1819,1.1933,1.2151,1.3013,1.3671,1.3624,1.3622,1.3534,1.3242,1.324,1.3211,1.3061,1.2705,1.2514,1.262,1.2481,1.2417,1.245,1.2733,1.3178,1.3824,1.4629,1.5306,1.5889,1.6687,1.7485,1.8302,1.8618,1.9045,1.9602,1.9602,1.962,1.9662,1.9695,1.9797,1.996,2.006,2.0135,2.019,2.0269,2.0119,1.9869,2.0177,2.0119,1.9869,2.0177,2.0312,2.0312,2.0312,2.0312,2.0312,2.0312,2.0312,2.0312,2.0312,2.0312,2.0312,2.0312,2.0677,2.1339,2.2535,2.3277,2.4038,2.5263,2.5628,2.5655,2.5639,2.5676,2.5707,2.5707,2.5673,2.5648,2.5685,2.5707,2.5707,2.5707,2.5707,2.5707,2.5707,2.5707,2.5707,2.5707,2.5707,2.5707,2.5707,2.5707,2.5707,2.5707,2.5707,2.5707,2.5707,2.5696,2.5699,2.5699,2.5703,2.5703,2.5699,2.5703,2.5703,2.5739,2.7457,2.824,0.5558,0.5699,0.5937,0.6892,0.7297,0.7784,0.8983,0.9484,0.9957,1.0919,1.117,1.1252,1.1431,1.2282,1.3055,1.3253,1.3257,1.3327,1.3632,1.3715,1.3791,1.3945,1.3622,1.3449,1.3527,1.3154,1.2914,1.2982,1.2964,1.3242,1.3866,1.4386,1.4913,1.5451,1.6279,1.7101,1.7969,1.823,1.8833,1.9694,1.9694,1.9726,1.9762,1.9762,1.9855,2.004,2.0079,2.0126,2.0162,2.0269,2.0312,2.0312,2.0312,2.0312,2.0312,2.0312,2.0312,2.0312,2.0312,2.0312,2.0312,2.0312,2.0312,2.0312,2.0312,2.0312,2.0312,2.0312,2.0677,2.137,2.2504,2.37,2.4772,2.5438,2.5634,2.5656,2.5648,2.5671,2.5703,2.5707,2.5654,2.5648,2.5685,2.5707,2.5707,2.5707,2.5707,2.5707,2.5707,2.5707,2.5707,2.5707,2.5707,2.5707,2.5707,2.5707,2.5707,2.5707,2.5693,2.5696,2.5696,2.5702,2.5703,2.5703,2.57,2.5698,2.5702,2.5701,2.5698,2.5735,2.7468,2.8541,0.0,0.0,0.0,0.6752,0.6557,0.6574,0.8787,0.8759,0.8651,1.0041,1.0447,1.0731,1.1411,1.147,1.1663,1.2321,1.2462,1.2765,1.3614,1.3751,1.3838,1.4047,1.4264,1.4411,1.4416,1.4589,1.4701,1.4701,1.4701,1.4701,1.4701,1.4643,1.4595,1.4614,1.5444,1.6321,1.7246,1.8072,1.8926,1.9869,1.9888,1.9907,1.9918,1.9918,1.9918,1.9928,2.005,2.019,2.0304,2.0312,2.0312,2.0312,2.0312,2.0312,2.0312,2.0312,2.0312,2.0312,2.0312,2.0312,2.0312,2.0312,2.0312,2.0312,2.0312,2.0312,2.0312,2.0312,2.0323,2.0716,2.2389,2.4107,2.5429,2.5577,2.5601,2.5629,2.5678,2.5707,2.5693,2.5705,2.5707,2.5707,2.5707,2.5707,2.5707,2.5707,2.5707,2.5707,2.5707,2.5707,2.5707,2.5707,2.5707,2.5707,2.5709,2.5709,2.5709,2.5709,2.5702,2.5703,2.5703,2.5702,2.5699,2.5699,2.5707,2.5698,2.5698,2.5694,2.5694,2.5737,2.7394,2.9085,0.4972,0.0,0.0,0.0,0.0,0.0,0.6736,0.7077,0.7574,0.8603,0.8798,0.9045,0.9846,0.9996,1.0214,1.0947,1.1474,1.186,1.2091,1.2723,1.3209,1.3365,1.3986,1.4446,1.453,1.4632,1.4701,1.4701,1.4701,1.4683,1.4624,1.4614,1.4637,1.4747,1.4982,1.5497,1.6353,1.7216,1.8054,1.8877,1.948,1.9855,2.005,2.005,2.0088,2.0199,2.0225,2.0241,2.0238,2.0285,2.0312,2.0312,2.0312,2.0312,2.0312,2.0312,2.0312,2.0312,2.0312,2.0312,2.0312,2.0312,2.0312,2.0312,2.0312,2.0312,2.0312,2.0312,2.0719,2.1564,2.3291,2.4574,2.5437,2.5564,2.5604,2.561,2.5609,2.5625,2.5639,2.5683,2.5707,2.5707,2.5707,2.5707,2.5707,2.5707,2.5707,2.5707,2.5707,2.5707,2.5707,2.5707,2.5707,2.57,2.5705,2.5701,2.5709,2.5699,2.5697,2.5697,2.5702,2.5694,2.5707,2.5707,2.5707,2.5691,2.5691,2.5701,2.5701,2.573,2.7012,2.8758,0.5496,0.5501,0.5581,0.5868,0.0,0.0,0.6386,0.6508,0.6879,0.8014,0.8255,0.853,0.9374,0.9474,0.9583,1.0012,1.04,1.0891,1.1565,1.2133,1.2525,1.2673,1.3164,1.364,1.4066,1.4153,1.433,1.4664,1.4701,1.4693,1.4677,1.4678,1.4738,1.484,1.4839,1.5261,1.6129,1.663,1.7511,1.8716,1.9181,1.9678,2.0143,2.0143,2.0188,2.0269,2.0269,2.0241,2.0195,2.0241,2.0249,2.0265,2.0285,2.0312,2.0312,2.0312,2.0312,2.0312,2.0312,2.0312,2.0312,2.0312,2.0312,2.0312,2.0312,2.0285,2.0257,2.0257,2.1105,2.2238,2.3283,2.4477,2.543,2.5511,2.5562,2.56,2.5604,2.56,2.5619,2.5644,2.5673,2.5707,2.5707,2.5707,2.5707,2.5707,2.5707,2.5707,2.5707,2.5707,2.5707,2.5707,2.5707,2.5701,2.5698,2.5694,2.5701,2.5693,2.5707,2.5707,2.5694,2.5698,2.5704,2.5704,2.5707,2.5699,2.5699,2.5699,2.5933,2.6439,2.7316,2.8836,0.6336,0.6328,0.6477,0.7107,0.6748,0.0,0.6842,0.6492,0.6465,0.7782,0.8146,0.8462,0.9283,0.9406,0.9387,0.9387,0.9468,1.0014,1.1443,1.1732,1.183,1.1958,1.2105,1.2475,1.3206,1.3411,1.3801,1.4516,1.4656,1.4734,1.4813,1.4813,1.484,1.49,1.4914,1.5312,1.6151,1.6265,1.7106,1.8708,1.8785,1.9258,2.0049,2.0049,2.0118,2.0197,2.0197,2.0188,2.0208,2.0188,2.0205,2.0211,2.0277,2.0285,2.0312,2.0285,2.0285,2.0312,2.0312,2.0312,2.0312,2.0312,2.0312,2.0312,2.0285,2.0257,2.0211,2.0203,2.1414,2.271,2.2765,2.4077,2.5401,2.5414,2.5511,2.5599,2.5617,2.5605,2.5607,2.5618,2.5644,2.5681,2.5707,2.5707,2.5707,2.5707,2.5707,2.5707,2.5707,2.5707,2.5707,2.5707,2.5693,2.5702,2.5698,2.5707,2.5701,2.5696,2.5705,2.5696,2.5696,2.5694,2.5699,2.5699,2.5699,2.5699,2.5699,2.5699,2.6225,2.7238,2.7901,2.9124,0.7163,0.7163,0.7032,0.6491,0.6715,0.0,0.5604,0.5689,0.6116,0.6465,0.6505,0.6756,0.761,0.8266,0.8699,0.8699,0.9235,0.9746,1.0004,1.0658,1.1131,1.1218,1.18,1.2261,1.2428,1.3086,1.3579,1.3727,1.4381,1.4804,1.4877,1.4886,1.49,1.4985,1.4973,1.5083,1.5329,1.5975,1.6479,1.6839,1.7472,1.8281,1.9161,1.9161,1.9545,2.0197,2.0197,2.0199,2.0201,2.0208,2.0205,2.0211,2.0214,2.0241,2.0285,2.0238,2.0238,2.0312,2.0312,2.0312,2.0312,2.0312,2.0312,2.0285,2.0238,2.0211,2.0203,2.0199,2.1416,2.271,2.2728,2.4005,2.535,2.5452,2.5538,2.5609,2.5671,2.5632,2.5629,2.5662,2.5656,2.5643,2.5681,2.5707,2.5707,2.5707,2.5707,2.5707,2.5707,2.5707,2.5707,2.5707,2.57,2.5707,2.5697,2.5707,2.5703,2.5697,2.5691,2.5707,2.5707,2.5703,2.5699,2.5699,2.5699,2.5699,2.5699,2.5699,2.5816,2.6069,2.753,2.9124,0.8051,0.8056,0.7942,0.7504,0.7679,0.0,0.0,0.6093,0.6293,0.7134,0.6633,0.6429,0.7677,0.823,0.8506,0.8506,0.9178,0.9706,0.9691,1.0045,1.0334,1.0383,1.0753,1.115,1.1564,1.1991,1.2603,1.3486,1.3951,1.4424,1.4931,1.495,1.4996,1.5095,1.5095,1.5121,1.5146,1.5555,1.595,1.6352,1.6758,1.7417,1.8275,1.8696,1.9137,1.9569,1.9981,2.0144,2.0155,2.0144,2.0171,2.0197,2.0205,2.0222,2.0257,2.0257,2.0265,2.0312,2.0312,2.0312,2.0312,2.0312,2.0285,2.0238,2.0211,2.0195,2.0284,2.0689,2.1684,2.2746,2.3198,2.4283,2.5332,2.5426,2.5538,2.5618,2.5632,2.566,2.5652,2.5683,2.5665,2.5652,2.5683,2.5707,2.5707,2.5707,2.5707,2.5707,2.5707,2.5707,2.5697,2.5701,2.5699,2.5709,2.5703,2.5699,2.5699,2.5699,2.5699,2.5699,2.5699,2.5699,2.5699,2.5699,2.5699,2.5699,2.5699,2.7413,2.7803,2.6985,2.8699,2.9961,0.8945,0.8959,0.8916,0.8736,0.8779,0.8611,0.0,0.0,0.0,0.8073,0.7273,0.6766,0.8051,0.8292,0.8304,0.8279,0.8958,0.9467,0.936,0.9441,0.9571,0.978,0.9798,1.0065,1.071,1.0766,1.1501,1.3255,1.3395,1.3709,1.4499,1.4856,1.5005,1.4953,1.5112,1.5209,1.5209,1.5209,1.5529,1.6144,1.6144,1.6584,1.739,1.8106,1.8595,1.8932,1.9601,1.9964,2.0088,2.0088,2.0126,2.0173,2.0169,2.0195,2.0203,2.0269,2.0277,2.0285,2.0285,2.0285,2.0285,2.0285,2.023,2.0195,2.0195,2.0188,2.0355,2.1158,2.198,2.2792,2.367,2.4596,2.5293,2.5361,2.5488,2.5601,2.5601,2.5644,2.5707,2.5707,2.5707,2.5707,2.5707,2.5707,2.5707,2.5707,2.5707,2.5707,2.5707,2.5707,2.5701,2.5698,2.5703,2.5703,2.571,2.5699,2.5699,2.5699,2.5699,2.5699,2.5699,2.5699,2.5699,2.5699,2.5699,2.5855,2.6186,2.9279,3.0078,2.8734,3.0137,3.0799,0.9819,0.986,0.967,0.8902,0.9272,0.9438,0.7848,0.0,0.8248,0.7725,0.0,0.7376,0.7495,0.0,0.0,0.7464,0.821,0.8553,0.7778,0.8331,0.9062,0.9715,0.9801,0.9838,0.9931,0.9931,1.0679,1.2489,1.2629,1.27,1.2863,1.4341,1.4839,1.4077,1.4806,1.5197,1.5197,1.5197,1.5216,1.5254,1.5254,1.5706,1.6544,1.664,1.7481,1.8913,1.899,1.9448,2.0088,2.0088,2.0098,2.0117,2.0107,2.0153,2.0197,2.0209,2.0216,2.0211,2.0211,2.0211,2.0211,2.0211,2.0205,2.0201,2.0201,2.0164,2.0289,2.1158,2.198,2.2792,2.367,2.4541,2.5214,2.5214,2.5423,2.5601,2.5601,2.5644,2.5707,2.5707,2.5707,2.5707,2.5707,2.5707,2.5707,2.5707,2.5707,2.5707,2.5707,2.5707,2.5709,2.5696,2.5691,2.5703,2.571,2.5699,2.5699,2.5699,2.5699,2.5699,2.5699,2.5699,2.5699,2.5699,2.5699,2.6439,2.792,2.9864,3.0701,3.0507,3.0701,3.0799,1.0016,1.0035,0.992,0.9599,0.9725,0.9773,0.9096,0.8816,0.8751,0.8921,0.0,0.0,0.0,0.0,0.0,0.0,0.7717,0.782,0.7458,0.7721,0.8249,0.9057,0.9169,0.9363,0.9869,0.9497,0.9938,1.1666,1.1376,1.1536,1.2553,1.3777,1.4288,1.3917,1.4749,1.519,1.514,1.514,1.5127,1.5094,1.5094,1.5298,1.5666,1.6181,1.7041,1.8177,1.8693,1.9353,2.0088,2.0088,2.0088,2.0088,2.0088,2.0135,2.019,2.0244,2.0233,2.0195,2.0203,2.0203,2.0205,2.0188,2.019,2.0192,2.0155,2.0489,2.1034,2.1905,2.2758,2.363,2.4534,2.5004,2.5262,2.5303,2.5468,2.5601,2.5601,2.5644,2.5698,2.566,2.5648,2.5648,2.5648,2.5668,2.5698,2.5656,2.5687,2.5707,2.5707,2.5707,2.5707,2.5707,2.5707,2.5696,2.5703,2.5696,2.5699,2.5699,2.5699,2.5699,2.5699,2.5699,2.5699,2.5699,2.7647,2.9011,2.9708,3.0429,3.0799,3.0799,3.0799,3.0799,1.0034,1.0044,1.0034,1.0097,1.0034,0.9962,1.002,0.9533,0.9263,0.9901,0.9062,0.0,0.0,0.0,0.7795,0.7538,0.0,0.738,0.7137,0.7107,0.7501,0.8575,0.892,0.9314,0.9933,0.9059,0.9153,1.0851,1.021,1.0381,1.1839,1.3169,1.3789,1.3553,1.4614,1.5165,1.5101,1.5101,1.5095,1.5106,1.5106,1.5106,1.5112,1.5761,1.6602,1.7641,1.8272,1.9143,2.0088,2.0088,2.0088,2.0088,2.0117,2.0155,2.0192,2.0235,2.0225,2.0208,2.0205,2.0197,2.0199,2.0173,2.0164,2.0202,2.0412,2.0938,2.1665,2.2765,2.3552,2.4245,2.5166,2.5369,2.535,2.5398,2.5492,2.5601,2.5601,2.5643,2.5671,2.5618,2.5601,2.5601,2.5601,2.5648,2.5668,2.5613,2.5648,2.5671,2.5705,2.5707,2.5707,2.5707,2.5707,2.5707,2.5707,2.5702,2.569,2.5699,2.5699,2.5699,2.5699,2.5699,2.5699,2.5699,2.8582,3.0175,3.0336,3.0643,3.0799,3.0799,3.0799,3.0799,0.9968,1.0044,1.0101,1.0089,1.0093,1.0097,1.0109,1.0075,1.0052,1.009,1.0052,1.0005,0.9963,0.9352,0.8551,0.7646,0.7553,0.0,0.0,0.633,0.6925,0.8509,0.9441,0.9971,0.9987,0.8502,0.8259,1.0012,0.9341,0.9226,1.0136,1.2545,1.3506,1.2664,1.4307,1.5178,1.5094,1.5094,1.5106,1.5092,1.5092,1.5092,1.5092,1.5131,1.6036,1.7603,1.7622,1.8569,2.0088,2.0088,2.0088,2.0117,2.0164,2.0155,2.0098,2.0117,2.0155,2.0192,2.0192,2.0192,2.0192,2.0126,2.0098,2.026,2.1174,2.146,2.1842,2.3576,2.4075,2.4306,2.5174,2.5401,2.5406,2.5406,2.5492,2.5601,2.5601,2.5601,2.5607,2.5601,2.5601,2.5601,2.5601,2.5601,2.5607,2.5601,2.5601,2.5625,2.5681,2.5707,2.5707,2.5707,2.5707,2.5707,2.5707,2.5709,2.5703,2.5707,2.5699,2.5699,2.5699,2.5699,2.5699,2.5699,2.7394,2.8563,2.9171,3.0258,3.0799,3.0799,3.0799,3.0799,0.9955,0.9984,0.9984,1.0073,1.0035,0.9996,1.0076,1.0089,1.0089,1.0089,1.0089,1.0085,1.0072,0.9394,0.8723,0.8414,0.7925,0.7293,0.0,0.6306,0.6724,0.7847,0.8731,0.9049,0.8466,0.842,0.8673,0.926,0.903,0.9218,1.0059,1.1465,1.2343,1.258,1.3722,1.4571,1.5099,1.5099,1.5099,1.5092,1.5092,1.5092,1.5092,1.5092,1.5723,1.6812,1.6812,1.7767,1.9315,1.9315,1.962,2.0098,2.0126,2.0117,2.0117,2.0153,2.0153,2.0126,2.0126,2.0126,2.0126,2.0117,2.0517,2.1088,2.1402,2.2301,2.3353,2.3995,2.4583,2.5093,2.5439,2.5538,2.5525,2.5525,2.5564,2.5601,2.5601,2.5601,2.5601,2.5601,2.5601,2.5601,2.5601,2.5601,2.5601,2.5601,2.5601,2.5625,2.5681,2.5707,2.5707,2.5707,2.5707,2.5707,2.5707,2.5702,2.5698,2.5703,2.5699,2.5699,2.5699,2.5699,2.5699,2.5699,2.7745,2.8894,2.9093,3.0239,3.0799,3.0799,3.0799,3.0799,0.9893,0.9923,0.9935,1.0034,0.9995,0.996,1.0073,1.011,1.011,1.011,1.0095,1.0091,1.0077,0.9631,0.9065,0.8448,0.7928,0.7194,0.0,0.6388,0.6754,0.6718,0.7741,0.8454,0.8492,0.8184,0.8351,0.9267,0.8783,0.8934,1.004,1.0923,1.1772,1.2569,1.3455,1.4291,1.5092,1.5092,1.5092,1.5092,1.5092,1.5092,1.5092,1.5092,1.557,1.643,1.6697,1.7614,1.8913,1.92,1.9639,2.0088,2.0088,2.0088,2.0117,2.0153,2.0144,2.0088,2.0088,2.0088,2.0155,2.0498,2.1003,2.1611,2.2257,2.3242,2.4208,2.4594,2.5111,2.5557,2.5589,2.5601,2.5601,2.5601,2.5601,2.5601,2.5601,2.5601,2.5601,2.5601,2.5601,2.5601,2.5601,2.5601,2.5601,2.5601,2.5601,2.5615,2.5668,2.5683,2.5707,2.5707,2.5707,2.5696,2.5703,2.5698,2.5699,2.5699,2.5699,2.5699,2.5699,2.5699,2.5699,2.5699,2.7725,2.8777,2.8777,3.0141,3.0799,3.0799,3.0799,3.0799]}]]